[[{"header":{"parameterUnit":"m.s-1","parameterCategory":1,"la1":30.6,"la2":29.2853,"lo1":-89.7004,"lo2":-87.6739,"dy":0.0162,"dx":0.0183,"nx":112,"ny":82,"refTime":"2023-08-04T12:00:00:Z","depth":0,"parameterNumber":2,"parameterNumberName":"U-component_of_WINDS"},"data":[0.0,0.0,0.0,0.0,0.0,0.0,0.0,0.0,0.0,0.0,0.0,0.0,0.0,0.0,0.0,0.0,0.0,0.0,0.0,0.0,0.0,0.0,0.0,0.0,0.0,0.0,0.0,0.0,0.0,0.0,0.0,0.0,0.0,0.0,0.0,0.0,0.0,0.0,0.0,0.0,0.0,0.0,0.0,0.0,0.0,0.0,0.0,0.0,0.0,0.0,0.0,0.0,0.0,0.0,0.0,0.0,0.0,0.0,0.0,0.0,0.0,0.0,0.0,0.0,0.0,0.0,0.0,0.0,0.0,0.0,0.0,0.0,0.0,0.0,0.0,0.0,0.0,0.0,0.0,0.0,0.0,0.0,0.0,0.0,0.0,0.0,0.0,0.0,0.0,0.0,-0.3721,-0.4035,-0.5021,-0.5562,-0.5444,-0.5561,-0.5332,-0.4585,0.0,0.0,0.0,0.0,0.0,0.0,0.0,0.0,0.0,0.0,0.0,0.0,0.0,0.0,0.0,0.0,0.0,0.0,0.0,0.0,0.0,0.0,0.0,0.0,0.0,0.0,0.0,0.0,0.0,0.0,0.0,0.0,0.0,0.0,0.0,0.0,0.0,0.0,0.0,0.0,0.0,0.0,0.0,0.0,0.0,0.0,0.0,0.0,0.0,0.0,0.0,0.0,0.0,0.0,0.0,0.0,0.0,0.0,0.0,0.0,0.0,0.0,0.0,0.0,0.0,0.0,0.0,0.0,0.0,0.0,0.0,0.0,0.0,0.0,0.0,0.0,0.0,0.0,0.0,0.0,0.0,0.0,0.0,0.0,0.0,0.0,0.0,0.0,0.0,0.0,0.0,0.0,0.0,0.0,0.0,0.0,0.0,0.0,0.0,0.0,0.0,0.0,0.0,0.0,-0.3639,-0.4794,-0.5658,-0.6139,-0.6058,-0.5937,-0.565,-0.5181,0.0,0.0,0.0,0.0,0.0,0.0,0.0,0.0,0.0,0.0,0.0,0.0,0.0,0.0,0.0,0.0,0.0,0.0,0.0,0.0,0.0,0.0,0.0,0.0,0.0,0.0,0.0,0.0,0.0,0.0,0.0,0.0,0.0,0.0,0.0,0.0,0.0,0.0,0.0,0.0,0.0,0.0,0.0,0.0,0.0,0.0,0.0,0.0,0.0,0.0,0.0,0.0,0.0,0.0,0.0,0.0,0.0,0.0,0.0,0.0,0.0,0.0,0.0,0.0,0.0,0.0,0.0,0.0,0.0,0.0,0.0,0.0,0.0,0.0,0.0,0.0,0.0,0.0,0.0,0.0,0.0,0.0,0.0,0.0,0.0,0.0,0.0,0.0,0.0,0.0,0.0,0.0,0.0,0.0,0.0,0.0,0.0,0.0,0.0,0.0,0.0,0.0,0.0,-0.3602,-0.4195,-0.5166,-0.5733,-0.607,-0.6109,-0.5923,-0.5649,-0.5134,-0.421,0.0,0.0,0.0,0.0,0.0,0.0,0.0,0.0,0.0,0.0,0.0,0.0,0.0,0.0,0.0,0.0,0.0,0.0,0.0,0.0,0.0,0.0,0.0,0.0,0.0,0.0,0.0,0.0,0.0,0.0,0.0,0.0,0.0,0.0,0.0,0.0,0.0,0.0,0.0,0.0,0.0,0.0,0.0,0.0,0.0,0.0,0.0,0.0,0.0,0.0,0.0,0.0,0.0,0.0,0.0,0.0,0.0,0.0,0.0,0.0,0.0,0.0,0.0,0.0,0.0,0.0,0.0,0.0,0.0,0.0,0.0,0.0,0.0,0.0,0.0,0.0,0.0,0.0,0.0,0.0,0.0,0.0,0.0,0.0,0.0,0.0,0.0,0.0,0.0,0.0,0.0,0.0,0.0,0.0,0.0,0.0,0.0,0.0,0.0,0.0,0.0,0.0,-0.4341,-0.4705,-0.5295,-0.5663,-0.5845,-0.5896,-0.5801,-0.5514,-0.5017,-0.4272,0.0,0.0,0.0,0.0,0.0,0.0,0.0,0.0,0.0,0.0,0.0,0.0,0.0,0.0,0.0,0.0,0.0,0.0,0.0,0.0,0.0,0.0,0.0,0.0,0.0,0.0,0.0,0.0,0.0,0.0,0.0,0.0,0.0,0.0,0.0,0.0,0.0,0.0,0.0,0.0,0.0,0.0,0.0,0.0,0.0,0.0,0.0,0.0,0.0,0.0,0.0,0.0,0.0,0.0,0.0,0.0,0.0,0.0,0.0,0.0,0.0,0.0,0.0,0.0,0.0,0.0,0.0,0.0,0.0,0.0,0.0,0.0,0.0,0.0,0.0,0.0,0.0,0.0,0.0,0.0,0.0,0.0,0.0,0.0,0.0,0.0,0.0,0.0,0.0,0.0,0.0,0.0,0.0,0.0,0.0,0.0,0.0,0.0,0.0,0.0,0.0,0.0,-0.4343,-0.4898,-0.5171,-0.5663,-0.5896,-0.5677,-0.5566,-0.5426,-0.5211,-0.4179,0.0,0.0,0.0,0.0,0.0,0.0,0.0,0.0,0.0,0.0,0.0,0.0,0.0,0.0,0.0,0.0,0.0,0.0,0.0,0.0,0.0,0.0,0.0,0.0,0.0,0.0,0.0,0.0,0.0,0.0,0.0,0.0,0.0,0.0,0.0,0.0,0.0,0.0,0.0,0.0,0.0,0.0,0.0,0.0,0.0,0.0,0.0,0.0,0.0,0.0,0.0,0.0,0.0,0.0,0.0,0.0,0.0,0.0,0.0,0.0,0.0,0.0,0.0,0.0,0.0,0.0,0.0,0.0,0.0,0.0,0.0,0.0,0.0,0.0,0.0,0.0,0.0,0.0,0.0,0.0,0.0,0.0,0.0,0.0,0.0,0.0,0.0,0.0,0.0,0.0,0.0,0.0,0.0,0.0,0.0,0.0,0.0,0.0,0.0,0.0,0.0,0.0,-0.4304,-0.4859,-0.5406,-0.5763,-0.5946,-0.5841,-0.5774,-0.5497,-0.5084,0.0,0.0,0.0,0.0,0.0,0.0,0.0,0.0,0.0,0.0,0.0,0.0,0.0,0.0,0.0,0.0,0.0,0.0,0.0,0.0,0.0,0.0,0.0,0.0,0.0,0.0,0.0,0.0,0.0,0.0,0.0,0.0,0.0,0.0,0.0,0.0,0.0,0.0,0.0,0.0,0.0,0.0,0.0,0.0,0.0,0.0,0.0,0.0,0.0,0.0,0.0,0.0,0.0,0.0,0.0,0.0,0.0,0.0,0.0,0.0,0.0,0.0,0.0,0.0,0.0,0.0,0.0,0.0,0.0,0.0,0.0,0.0,0.0,0.0,0.0,0.0,0.0,0.0,0.0,0.0,0.0,0.0,0.0,0.0,0.0,0.0,0.0,0.0,0.0,0.0,0.0,0.0,0.0,0.0,0.0,0.0,0.0,0.0,0.0,0.0,0.0,0.0,-0.3678,-0.4351,-0.4923,-0.5411,-0.5768,-0.6005,-0.595,-0.5788,-0.5558,-0.5129,0.0,0.0,0.0,0.0,0.0,0.0,0.0,0.0,0.0,0.0,0.0,0.0,0.0,0.0,0.0,0.0,0.0,0.0,0.0,0.0,0.0,0.0,0.0,0.0,0.0,0.0,0.0,0.0,0.0,0.0,0.0,0.0,0.0,0.0,0.0,0.0,0.0,0.0,0.0,0.0,0.0,0.0,0.0,0.0,0.0,0.0,0.0,0.0,0.0,0.0,0.0,0.0,0.0,0.0,0.0,0.0,0.0,0.0,0.0,0.0,0.0,0.0,0.0,0.0,0.0,0.0,0.0,0.0,0.0,0.0,0.0,0.0,0.0,0.0,0.0,0.0,0.0,0.0,0.0,0.0,0.0,0.0,0.0,0.0,0.0,0.0,0.0,0.0,0.0,0.0,0.0,0.0,0.0,0.0,0.0,0.0,0.0,0.0,0.0,0.0,0.0,0.0,-0.3524,-0.4487,-0.5142,-0.5198,-0.5663,-0.5955,-0.58,-0.5619,-0.5468,0.0,0.0,0.0,0.0,0.0,0.0,0.0,0.0,0.0,0.0,0.0,0.0,0.0,0.0,0.0,0.0,0.0,0.0,0.0,0.0,0.0,0.0,0.0,0.0,0.0,0.0,0.0,0.0,0.0,0.0,0.0,0.0,0.0,0.0,0.0,0.0,0.0,0.0,0.0,0.0,0.0,0.0,0.0,0.0,0.0,0.0,0.0,0.0,0.0,0.0,0.0,0.0,0.0,0.0,0.0,0.0,0.0,0.0,0.0,0.0,0.0,0.0,0.0,0.0,0.0,0.0,0.0,0.0,0.0,0.0,0.0,0.0,0.0,0.0,0.0,0.0,0.0,0.0,0.0,0.0,0.0,0.0,0.0,0.0,0.0,0.0,0.0,0.0,0.0,0.0,0.0,0.0,0.0,0.0,0.0,0.0,0.0,0.0,0.0,0.0,0.0,0.0,0.0,-0.376,-0.4396,-0.4936,-0.547,-0.5869,-0.6045,-0.5988,-0.5944,-0.5733,-0.5332,0.0,0.0,0.0,0.0,0.0,0.0,0.0,0.0,0.0,0.0,0.0,0.0,0.0,0.0,0.0,0.0,0.0,0.0,0.0,0.0,0.0,0.0,0.0,0.0,0.0,0.0,0.0,0.0,0.0,0.0,0.0,0.0,0.0,0.0,0.0,0.0,0.0,0.0,0.0,0.0,0.0,0.0,0.0,0.0,0.0,0.0,0.0,0.0,0.0,0.0,0.0,0.0,0.0,0.0,0.0,0.0,0.0,0.0,0.0,0.0,0.0,0.0,0.0,0.0,0.0,0.0,0.0,0.0,0.0,0.0,0.0,0.0,0.0,0.0,0.0,0.0,0.0,0.0,0.0,0.0,0.0,0.0,0.0,0.0,0.0,0.0,0.0,0.0,0.0,0.0,0.0,0.0,0.0,0.0,0.0,0.0,0.0,0.0,0.0,0.0,0.0,0.0,-0.372,-0.4398,-0.4953,-0.5457,-0.5892,-0.6103,-0.6123,-0.6113,-0.5968,-0.5584,0.0,0.0,0.0,0.0,0.0,0.0,0.0,0.0,0.0,0.0,0.0,0.0,0.0,0.0,0.0,0.0,0.0,0.0,0.0,0.0,0.0,0.0,0.0,0.0,0.0,0.0,0.0,0.0,0.0,0.0,0.0,0.0,0.0,0.0,0.0,0.0,0.0,0.0,0.0,0.0,0.0,0.0,0.0,0.0,0.0,0.0,0.0,0.0,0.0,0.0,0.0,0.0,0.0,0.0,0.0,0.0,0.0,0.0,0.0,0.0,0.0,0.0,0.0,0.0,0.0,0.0,0.0,0.0,0.0,0.0,0.0,0.0,0.0,0.0,0.0,0.0,0.0,0.0,0.0,0.0,0.0,0.0,0.0,0.0,0.0,0.0,0.0,0.0,0.0,0.0,0.0,0.0,0.0,0.0,0.0,0.0,0.0,0.0,0.0,0.0,0.0,0.0,-0.3564,-0.4426,-0.5086,-0.5311,-0.5806,-0.611,-0.6104,-0.6151,-0.613,-0.6027,0.0,0.0,0.0,0.0,0.0,0.0,0.0,0.0,0.0,0.0,0.0,0.0,0.0,0.0,0.0,0.0,0.0,0.0,0.0,0.0,0.0,0.0,0.0,0.0,0.0,0.0,0.0,0.0,0.0,0.0,0.0,0.0,0.0,0.0,0.0,0.0,0.0,0.0,0.0,0.0,0.0,0.0,0.0,0.0,0.0,0.0,0.0,0.0,0.0,0.0,0.0,0.0,0.0,0.0,0.0,0.0,0.0,0.0,0.0,0.0,-0.2842,0.0,0.0,0.0,0.0,0.0,0.0,0.0,0.0,0.0,0.0,0.0,0.0,0.0,0.0,0.0,0.0,0.0,0.0,0.0,0.0,0.0,0.0,0.0,0.0,0.0,0.0,0.0,0.0,0.0,0.0,0.0,0.0,0.0,0.0,0.0,0.0,0.0,0.0,0.0,0.0,0.0,-0.381,-0.4405,-0.4948,-0.5458,-0.5863,-0.6075,-0.6113,-0.6387,-0.6459,-0.6083,-0.5276,0.0,0.0,0.0,0.0,0.0,0.0,0.0,0.0,0.0,0.0,0.0,0.0,0.0,0.0,0.0,0.0,0.0,0.0,0.0,0.0,0.0,0.0,0.0,0.0,0.0,0.0,0.0,0.0,0.0,0.0,0.0,0.0,0.0,0.0,0.0,0.0,0.0,0.0,0.0,0.0,0.0,0.0,0.0,0.0,0.0,0.0,0.0,0.0,0.0,0.0,0.0,0.0,0.0,0.0,0.0,0.0,0.0,0.0,0.0,0.0,-0.3263,0.0,0.0,0.0,0.0,0.0,0.0,0.0,0.0,0.0,0.0,0.0,0.0,0.0,0.0,0.0,0.0,0.0,0.0,0.0,0.0,0.0,0.0,0.0,0.0,0.0,0.0,0.0,0.0,0.0,0.0,0.0,0.0,0.0,0.0,0.0,0.0,0.0,0.0,0.0,0.0,-0.3889,-0.4562,-0.5169,-0.5543,-0.5903,-0.6162,-0.6124,-0.6371,-0.6492,-0.6273,-0.5584,0.0,0.0,0.0,0.0,0.0,0.0,0.0,0.0,0.0,0.0,0.0,0.0,0.0,0.0,0.0,0.0,0.0,0.0,0.0,0.0,0.0,0.0,0.0,0.0,0.0,0.0,0.0,0.0,0.0,0.0,0.0,0.0,0.0,0.0,0.0,0.0,0.0,0.0,0.0,0.0,0.0,0.0,0.0,0.0,0.0,0.0,0.0,0.0,0.0,0.0,0.0,0.0,0.0,-0.3912,-0.4059,-0.4239,-0.4258,-0.4592,-0.5086,-0.4355,-0.4091,-0.4154,-0.3406,0.0,0.0,0.0,0.0,0.0,0.0,0.0,0.0,0.0,0.0,0.0,0.0,0.0,0.0,0.0,0.0,0.0,0.0,0.0,0.0,0.0,0.0,0.0,0.0,-0.4306,-0.4581,-0.4685,0.0,0.0,0.0,0.0,0.0,0.0,0.0,0.0,0.0,0.0,0.0,-0.402,-0.4807,-0.5433,-0.5644,-0.5976,-0.6205,-0.6221,-0.633,-0.6437,-0.645,-0.5904,-0.5446,0.0,0.0,0.0,0.0,0.0,0.0,0.0,0.0,0.0,0.0,0.0,0.0,0.0,0.0,0.0,0.0,0.0,0.0,0.0,0.0,0.0,0.0,0.0,0.0,0.0,0.0,0.0,0.0,0.0,0.0,0.0,0.0,-0.2842,-0.3464,0.0,0.0,0.0,0.0,0.0,0.0,0.0,0.0,0.0,0.0,0.0,0.0,0.0,-0.3697,-0.3873,-0.4429,-0.4667,-0.4582,-0.5104,-0.5172,-0.4787,-0.5158,-0.5414,-0.5524,-0.5476,0.0,-0.4914,-0.4258,0.0,0.0,0.0,0.0,0.0,0.0,0.0,0.0,0.0,0.0,0.0,0.0,0.0,0.0,0.0,0.0,0.0,0.0,0.0,0.0,0.0,0.0,-0.47,-0.4921,-0.4993,-0.5071,0.0,-0.507,-0.4391,-0.4104,-0.3711,0.0,0.0,0.0,0.0,0.0,0.0,0.0,-0.4406,-0.5068,-0.563,-0.5843,-0.6042,-0.6219,-0.6176,-0.6327,-0.6477,-0.6615,-0.602,-0.5794,-0.6035,-0.5106,0.0,0.0,0.0,0.0,0.0,0.0,0.0,0.0,0.0,0.0,0.0,0.0,0.0,0.0,0.0,0.0,0.0,0.0,0.0,0.0,0.0,0.0,0.0,0.0,0.0,0.0,0.0,0.0,0.0,-0.269,-0.3341,-0.3754,-0.4048,-0.4091,0.0,0.0,0.0,0.0,0.0,0.0,0.0,0.0,0.0,-0.3992,-0.4355,-0.4657,-0.4901,-0.5328,-0.5483,-0.5434,-0.5692,-0.5792,-0.5609,-0.5717,-0.5922,-0.6237,-0.606,-0.5912,-0.5739,-0.5078,-0.4534,-0.4139,0.0,0.0,0.0,0.0,-0.4002,-0.4219,-0.4515,-0.4781,-0.4897,-0.46,0.0,0.0,0.0,0.0,0.0,0.0,0.0,0.0,0.0,0.0,-0.5227,-0.5375,-0.5411,-0.5523,-0.5799,-0.5686,-0.542,0.0,-0.4772,-0.4381,-0.3674,-0.3514,0.0,0.0,0.0,-0.4507,-0.4786,-0.5432,-0.5923,-0.6068,-0.6286,-0.6453,-0.6453,-0.6522,-0.6575,-0.662,-0.6301,-0.6104,-0.6039,-0.5578,-0.5075,0.0,0.0,0.0,0.0,0.0,0.0,0.0,0.0,0.0,0.0,0.0,0.0,0.0,0.0,0.0,0.0,0.0,0.0,0.0,0.0,0.0,0.0,0.0,0.0,0.0,0.0,0.0,0.0,-0.3137,-0.3741,-0.4089,-0.4516,-0.4659,0.0,0.0,0.0,0.0,0.0,0.0,-0.4164,-0.4312,-0.4551,-0.4962,-0.5264,-0.548,-0.5741,-0.5999,-0.6103,-0.5972,-0.6125,-0.6199,-0.6188,-0.6093,-0.626,-0.6701,-0.6449,-0.6383,-0.6285,-0.5696,-0.5117,-0.4537,-0.4213,-0.4039,-0.4002,-0.4247,-0.4587,-0.4953,-0.5252,-0.5588,-0.5814,-0.5424,-0.5155,-0.4845,-0.4534,0.0,0.0,0.0,0.0,-0.5236,-0.5358,-0.5507,-0.5642,-0.5614,-0.5758,-0.5806,-0.5777,-0.6086,-0.6221,0.0,-0.5688,-0.5423,-0.4545,-0.4462,0.0,-0.4197,-0.4805,-0.5278,-0.542,-0.5961,-0.6396,-0.6404,-0.6599,-0.6761,-0.6761,-0.6753,-0.6756,-0.6725,-0.6594,-0.6376,-0.6215,-0.6128,-0.5743,-0.5169,0.0,0.0,0.0,0.0,0.0,0.0,0.0,0.0,0.0,0.0,0.0,0.0,0.0,0.0,0.0,0.0,0.0,0.0,0.0,0.0,0.0,0.0,0.0,0.0,0.0,0.0,0.0,0.0,0.0,-0.47,-0.5081,0.0,0.0,0.0,0.0,-0.4853,-0.4941,-0.4977,-0.4959,-0.5195,-0.5433,-0.5735,-0.6044,-0.62,-0.6112,-0.6505,-0.642,-0.6016,-0.6445,-0.6508,-0.623,-0.6215,-0.6424,-0.6606,-0.67,-0.6587,-0.6368,-0.599,-0.5635,-0.5183,-0.4908,-0.4711,-0.4673,-0.483,-0.4983,-0.5124,-0.5541,-0.5651,-0.5746,-0.6048,-0.5608,-0.5035,-0.5101,-0.4938,0.0,0.0,-0.574,-0.5799,-0.6179,-0.6144,-0.5915,-0.5767,-0.5782,-0.5907,-0.6036,-0.6155,-0.6349,0.0,-0.6325,-0.6207,-0.6072,0.0,-0.5914,-0.5603,-0.6262,-0.6662,-0.6271,-0.6786,-0.712,-0.6982,-0.6999,-0.7011,-0.7011,-0.7011,-0.7017,-0.7126,-0.6893,-0.6793,-0.7106,-0.6641,-0.6383,-0.6306,-0.5813,0.0,0.0,0.0,0.0,0.0,0.0,0.0,0.0,0.0,0.0,0.0,0.0,0.0,0.0,0.0,0.0,0.0,0.0,0.0,0.0,0.0,0.0,0.0,0.0,0.0,0.0,0.0,0.0,-0.5267,-0.5723,0.0,-0.5885,-0.5906,-0.5817,-0.5521,-0.5723,-0.5832,-0.584,-0.6061,-0.6271,-0.6376,-0.6671,-0.6766,-0.6734,-0.7054,-0.7091,-0.7008,-0.7204,-0.7132,-0.681,-0.6725,-0.6677,-0.6768,-0.6768,-0.6605,-0.6438,-0.6488,-0.6089,-0.5557,-0.5428,-0.529,-0.5192,-0.5195,-0.535,-0.5641,-0.6069,-0.6156,-0.6152,-0.6152,-0.574,-0.5239,-0.5414,-0.539,-0.5333,-0.5786,-0.6165,-0.6449,-0.6585,-0.6551,-0.6463,-0.6466,-0.6227,-0.6087,-0.6314,-0.6456,-0.6713,-0.6873,-0.6691,-0.6495,-0.6112,-0.6368,-0.6421,-0.6054,-0.6653,-0.7056,-0.6904,-0.7182,-0.7372,-0.7293,-0.7403,-0.7423,-0.7305,-0.7293,-0.7322,-0.7239,-0.6972,-0.6961,-0.6986,-0.6828,-0.675,-0.663,-0.6346,-0.5872,0.0,0.0,0.0,0.0,0.0,0.0,0.0,0.0,0.0,0.0,0.0,0.0,0.0,0.0,0.0,0.0,0.0,0.0,0.0,0.0,0.0,0.0,0.0,0.0,0.0,0.0,-0.5095,-0.5636,-0.6258,-0.6486,-0.6284,-0.6518,-0.6493,-0.6097,-0.636,-0.6581,-0.6546,-0.6742,-0.6895,-0.7,-0.7193,-0.7205,-0.7111,-0.7397,-0.7406,-0.7221,-0.7364,-0.7197,-0.6908,-0.6762,-0.671,-0.6751,-0.6851,-0.6778,-0.6519,-0.6816,-0.6571,-0.5964,-0.5882,-0.5754,-0.561,-0.561,-0.5747,-0.6017,-0.6365,-0.6444,-0.6398,-0.6252,-0.5939,-0.5591,-0.5834,-0.5794,-0.5783,-0.6084,-0.6368,-0.674,-0.6969,-0.6908,-0.6899,-0.6944,-0.678,-0.6527,-0.6712,-0.6846,-0.696,-0.72,-0.7095,-0.6877,-0.6562,-0.6933,-0.7094,-0.6774,-0.7308,-0.7655,-0.7457,-0.7652,-0.7801,-0.7675,-0.7772,-0.7772,-0.759,-0.7577,-0.7549,-0.7338,-0.7134,-0.7025,-0.699,-0.6973,-0.6956,-0.6817,-0.6607,-0.6156,-0.5616,0.0,0.0,0.0,0.0,0.0,0.0,0.0,0.0,0.0,0.0,0.0,0.0,0.0,0.0,0.0,0.0,0.0,0.0,0.0,0.0,0.0,0.0,0.0,-0.4357,-0.493,-0.5458,-0.5884,-0.6546,-0.6905,-0.663,-0.7084,-0.7217,-0.6732,-0.6876,-0.701,-0.7132,-0.7156,-0.7295,-0.759,-0.7604,-0.751,-0.7218,-0.751,-0.7227,-0.6567,-0.6891,-0.676,-0.6374,-0.6391,-0.6507,-0.6619,-0.6938,-0.6906,-0.6801,-0.7115,-0.6864,-0.6423,-0.6189,-0.6092,-0.6086,-0.6086,-0.6089,-0.613,-0.6361,-0.6442,-0.6461,-0.6584,-0.6337,-0.6022,-0.6211,-0.6153,-0.6116,-0.6594,-0.6544,-0.6606,-0.7177,-0.7246,-0.7018,-0.7171,-0.734,-0.7346,-0.7149,-0.7153,-0.7307,-0.7372,-0.7521,-0.7611,-0.76,-0.7848,-0.8018,-0.7734,-0.8371,0.0,-0.801,-0.8293,-0.8434,-0.8069,-0.8028,-0.7959,-0.7793,-0.7772,-0.7691,-0.7504,-0.7326,-0.7228,-0.7236,-0.7058,-0.7027,-0.7023,-0.6607,-0.6287,-0.6019,0.0,0.0,0.0,0.0,0.0,0.0,0.0,0.0,0.0,0.0,0.0,0.0,0.0,0.0,0.0,0.0,0.0,0.0,0.0,0.0,0.0,0.0,-0.5201,-0.528,-0.5636,-0.6093,-0.6786,-0.6996,-0.7138,-0.7387,-0.7323,-0.722,-0.7052,-0.7212,-0.731,-0.7305,-0.7509,-0.7617,-0.76,-0.7699,-0.7753,-0.7654,-0.7561,-0.7517,-0.7619,-0.7267,-0.7087,-0.6991,-0.6822,-0.6793,-0.6624,-0.7024,-0.7083,-0.7115,-0.722,-0.7072,-0.6984,-0.6534,-0.6236,-0.6086,-0.6086,-0.6195,-0.6361,-0.6516,-0.6672,-0.6901,-0.7021,-0.6711,-0.6331,-0.6603,-0.6355,-0.6028,-0.6374,-0.6547,-0.6715,-0.7168,-0.7186,-0.7198,-0.7659,-0.7607,-0.7563,-0.7766,-0.7734,-0.7782,-0.8052,-0.7925,-0.7848,-0.7918,-0.812,-0.827,-0.8451,-0.8737,-0.8938,-0.8617,-0.8629,-0.8666,-0.8438,-0.8418,-0.8341,-0.8162,-0.802,-0.787,-0.7695,-0.7395,-0.7281,-0.7407,-0.7389,-0.7377,-0.7384,-0.7005,-0.6672,0.0,0.0,0.0,0.0,0.0,0.0,0.0,0.0,0.0,0.0,0.0,0.0,0.0,0.0,0.0,0.0,0.0,0.0,0.0,0.0,0.0,0.0,-0.5411,-0.5908,-0.6396,-0.6509,-0.6712,-0.7127,-0.7309,-0.7419,-0.753,-0.7357,-0.7277,-0.7187,-0.7324,-0.74,-0.7465,-0.7685,-0.7801,-0.7784,-0.7865,-0.7906,-0.7906,-0.7713,-0.7658,-0.7637,-0.7338,-0.7068,-0.692,-0.6896,-0.6782,-0.6777,-0.7057,-0.7116,-0.7163,-0.7271,-0.7243,0.0,0.0,0.0,0.0,0.0,-0.6472,-0.6605,-0.673,-0.6917,-0.7067,-0.7243,-0.6987,-0.6651,-0.6807,-0.6534,-0.6163,-0.638,-0.6564,-0.6739,-0.7065,-0.7304,-0.7431,-0.7817,-0.794,-0.7965,-0.8256,-0.8206,-0.8233,-0.8282,-0.8197,0.0,-0.8208,-0.8299,-0.8445,-0.863,-0.9013,-0.9141,-0.8958,-0.8999,-0.8978,-0.8808,-0.8792,-0.8775,-0.8599,-0.8389,0.0,0.0,0.0,-0.7463,-0.7563,-0.7533,0.0,0.0,0.0,-0.7148,-0.702,0.0,0.0,0.0,-0.5877,-0.5737,0.0,0.0,0.0,0.0,0.0,0.0,0.0,0.0,0.0,0.0,0.0,0.0,0.0,0.0,0.0,0.0,-0.6182,-0.655,-0.7366,-0.7403,-0.7251,-0.7173,-0.7589,-0.7703,-0.7289,-0.7351,-0.7351,-0.7166,-0.7326,-0.7482,-0.7614,0.0,0.0,0.0,0.0,-0.8038,-0.8038,-0.7942,-0.7739,-0.7238,-0.7138,-0.7006,-0.6619,-0.6632,-0.6766,-0.6986,-0.6999,-0.7062,-0.7265,-0.7493,-0.732,-0.6991,-0.6855,-0.6801,-0.6801,-0.6801,-0.6809,-0.6839,-0.6948,0.0,0.0,-0.7321,-0.7162,-0.6905,-0.7006,-0.676,-0.6497,-0.6592,-0.663,-0.6662,-0.7066,-0.7328,-0.7669,-0.7982,-0.8206,-0.8428,-0.8533,-0.852,-0.8469,-0.8343,-0.8306,-0.835,-0.841,-0.8554,-0.8642,-0.8624,-0.9115,-0.9344,-0.9149,-0.9259,-0.9287,-0.9116,0.0,0.0,-0.9,-0.8781,-0.8553,-0.8277,-0.8055,-0.7858,-0.7713,-0.7681,-0.778,-0.7904,-0.7787,-0.7806,-0.7888,-0.8099,-0.8178,-0.801,-0.6943,-0.6618,0.0,0.0,0.0,0.0,0.0,0.0,0.0,0.0,0.0,0.0,0.0,0.0,0.0,0.0,0.0,-0.6527,-0.6906,-0.7265,-0.7439,-0.7668,-0.7768,-0.7716,-0.7466,-0.74,-0.7446,-0.742,-0.742,-0.7326,-0.7577,-0.774,-0.777,-0.7913,-0.8011,-0.8038,-0.8038,-0.8038,-0.8038,-0.7743,-0.7646,-0.7543,0.0,0.0,-0.6935,-0.6829,-0.6847,-0.6991,-0.7084,-0.7249,-0.7493,-0.7379,-0.7254,-0.71,-0.6885,-0.6801,-0.6801,-0.6801,-0.6648,-0.6621,-0.6867,-0.6953,-0.6907,-0.7169,-0.7206,-0.7134,-0.7061,-0.6883,0.0,-0.6641,-0.669,-0.6854,-0.699,-0.7226,-0.7591,-0.8132,-0.8218,-0.8188,-0.8739,-0.854,-0.8448,-0.8632,-0.8526,-0.8431,-0.8505,-0.8582,-0.8743,-0.9008,-0.9299,-0.947,-0.9348,-0.9332,-0.9382,-0.9393,-0.9469,-0.9532,-0.9732,-0.9306,-0.911,-0.9108,-0.8765,-0.8466,-0.8229,-0.872,-0.8837,-0.8515,-0.8859,-0.9041,-0.9041,-0.8968,-0.9119,-0.9536,-0.8505,-0.8023,0.0,0.0,0.0,0.0,0.0,0.0,0.0,0.0,0.0,0.0,0.0,-0.6454,0.0,0.0,-0.7104,-0.7368,-0.7538,-0.7737,-0.7849,-0.7871,-0.7897,-0.7895,-0.7625,-0.7471,-0.7542,-0.7537,-0.7485,-0.7485,-0.7689,-0.7811,-0.7811,-0.7957,-0.8038,-0.8038,-0.8038,-0.8038,-0.8038,-0.7746,-0.7543,-0.7444,-0.7009,-0.6907,-0.6925,-0.6882,-0.6902,-0.707,-0.707,-0.7105,-0.716,-0.7046,-0.7043,-0.7143,-0.7024,-0.6978,-0.6978,-0.6978,-0.6907,-0.6845,-0.7067,-0.7138,-0.7186,-0.7229,-0.7272,-0.7206,-0.7145,-0.6964,-0.6801,-0.6801,-0.6844,-0.6893,-0.7105,-0.7348,-0.7712,-0.7934,-0.8208,-0.8482,-0.8709,-0.8709,-0.8587,-0.8726,-0.8648,-0.857,-0.8496,-0.88,-0.9064,-0.921,-0.9384,-0.9552,-0.977,-0.9698,-0.9782,-0.9888,-0.9803,-0.9897,-1.018,-0.981,-0.9597,-0.9593,-0.9393,-0.9176,-0.9239,-0.9366,-0.9437,-0.9432,-0.9531,-0.9677,-0.9962,-0.9858,-0.9956,-1.0227,-0.9866,-0.9486,0.0,0.0,0.0,0.0,0.0,0.0,0.0,0.0,-0.6177,-0.6721,-0.7202,-0.7588,-0.7869,-0.7956,-0.8121,-0.828,-0.818,-0.8135,-0.8385,-0.8201,-0.8016,-0.7882,-0.7833,-0.7689,-0.7729,-0.7701,-0.7641,-0.7736,-0.7773,-0.7855,-0.7855,-0.7974,-0.8038,-0.8038,-0.8038,-0.7942,-0.7942,-0.7743,-0.7456,-0.7181,-0.7088,-0.6908,-0.6836,-0.6836,-0.6953,-0.7149,-0.7056,-0.696,-0.6824,-0.6824,-0.6935,-0.7154,-0.7154,-0.7168,-0.7187,-0.7163,-0.7154,-0.7154,-0.7154,-0.7312,-0.7337,-0.7314,-0.7251,-0.7186,-0.7295,-0.7082,-0.7,-0.7208,-0.7127,-0.7144,-0.7213,-0.7449,-0.7675,-0.7786,-0.813,-0.8587,-0.87,-0.8818,-0.8789,-0.8777,-0.8754,-0.8716,-0.8591,-0.8994,-0.923,-0.9253,-0.9446,-0.9725,-1.0148,-1.0112,-1.0088,-1.0344,-1.0222,-1.0349,-1.055,-1.0361,-1.0127,-0.994,-0.9835,-0.9809,-0.9897,-0.9777,-0.9886,-1.0224,-1.0171,-1.0364,-1.0726,-1.0765,-1.0784,-1.0877,-1.1048,-1.0606,-0.7954,-0.7158,-0.6553,-0.6817,-0.6696,-0.6768,0.0,0.0,-0.7805,-0.8812,-0.8764,-0.8732,-0.9315,-0.9123,-0.8932,-0.9095,-0.8985,-0.8802,-0.8939,-0.867,-0.8415,-0.834,-0.7993,-0.7829,-0.804,-0.7918,-0.7887,-0.8086,-0.8031,-0.8014,-0.8014,-0.8031,-0.8038,-0.8038,-0.8038,-0.7842,-0.7646,-0.7646,-0.7409,-0.7015,-0.7032,-0.6956,-0.6964,-0.6964,-0.7035,-0.7154,-0.7141,-0.7143,-0.7154,-0.7154,-0.7154,-0.7154,-0.7154,-0.722,-0.7301,-0.7195,-0.7154,-0.7154,-0.7154,-0.7257,-0.723,-0.7127,-0.7152,-0.7227,-0.745,-0.7564,-0.7567,-0.7913,-0.7805,-0.7564,-0.746,-0.7388,-0.7448,-0.7672,-0.79,-0.8016,-0.8587,-0.8588,-0.8592,-0.8803,-0.8913,-0.8906,-0.8893,-0.912,-0.9359,-0.9271,-0.9644,-0.9993,-1.018,-1.0231,-1.0315,-1.0543,-1.0733,-1.0955,-1.1066,-1.0872,-1.0635,-1.007,-1.0161,-0.9951,-0.9494,-1.0214,-1.0617,-1.0449,-1.1212,-1.162,-1.1644,-1.162,-1.1821,-1.2123,-1.1611,-1.1075,-0.8661,-0.8287,-0.8045,0.0,-0.8083,-0.8174,-0.8908,-0.9003,-0.9095,-0.9651,-0.9839,-0.9926,-1.0019,-0.9723,-0.9551,0.0,-0.9118,-0.8905,-0.8819,-0.8629,-0.8496,-0.831,-0.8219,-0.8081,-0.8182,-0.8129,-0.8143,-0.8332,-0.8301,-0.8233,-0.8233,-0.8038,-0.8038,-0.8038,-0.8038,-0.7882,-0.7762,-0.7481,-0.7211,-0.7041,-0.7108,-0.699,-0.688,-0.7166,-0.7228,-0.7059,-0.6906,-0.6935,-0.694,-0.7011,-0.7038,-0.7045,-0.7339,-0.7399,-0.7426,-0.7304,-0.726,-0.726,-0.726,-0.7214,-0.716,-0.7182,-0.7332,-0.761,-0.78,-0.7938,-0.8166,-0.8277,-0.828,-0.8136,-0.8003,-0.7879,-0.8014,-0.8129,-0.8132,-0.8271,-0.8813,-0.8768,-0.8726,-0.9062,-0.8994,-0.894,-0.9158,-0.9489,-0.9662,-0.985,-0.9908,-1.0111,-1.0465,-1.0607,-1.0785,-1.0988,-1.12,-1.1203,-1.1121,-1.116,-1.1161,-1.0959,-1.1086,-1.1001,-1.0803,-1.1061,-1.1212,-1.1438,-1.1603,-1.1852,-1.2176,-1.2274,-1.2216,-1.2211,-1.2098,-1.1788,-0.9086,0.0,0.0,-0.9291,-0.9352,-0.9416,-0.9807,-1.001,-1.0157,-1.0326,-1.0543,-1.0719,-1.0538,-1.0129,-0.9822,-0.9723,-0.9207,-0.884,-0.8806,-0.8726,-0.8528,-0.83,-0.8356,-0.8375,-0.8248,-0.8254,-0.8351,-0.8361,-0.8407,-0.8333,-0.8333,-0.8137,-0.8038,-0.8038,-0.7979,-0.7847,-0.7642,-0.7379,-0.7112,-0.7038,-0.7126,-0.7186,-0.6902,-0.7205,-0.7247,-0.7037,-0.6901,-0.6824,-0.6831,-0.6914,-0.6969,-0.7005,-0.7319,-0.751,-0.7557,-0.747,-0.7394,-0.7331,-0.7296,-0.7228,-0.7168,-0.7258,-0.742,-0.7698,-0.8058,-0.8329,-0.8567,-0.8725,-0.8681,-0.8493,-0.8437,-0.8462,-0.8408,-0.8482,-0.8476,-0.8608,-0.8972,-0.9049,-0.899,-0.9215,-0.9209,-0.922,-0.9439,-0.9735,-1.0036,-1.0257,-1.0256,-1.0325,-1.0676,-1.0894,-1.1146,-1.1462,-1.1502,-1.1462,-1.1198,-1.1397,-1.1475,-1.1323,-1.1499,-1.161,-1.161,-1.1562,-1.1663,-1.2032,-1.1982,-1.2079,-1.2441,-1.2514,-1.2437,-1.2326,-1.2426,-1.224,0.0,0.0,-0.9383,-0.9719,-0.9981,-1.0221,-1.0269,-1.0634,-1.0994,-1.1199,-1.1076,-1.1027,-1.0935,-1.0405,-0.9912,-0.9912,-0.93,-0.897,-0.9148,-0.8993,-0.8751,-0.8584,-0.8543,-0.8469,0.0,-0.8498,-0.8497,-0.8215,-0.835,-0.8333,-0.8038,-0.8038,-0.8038,-0.8038,-0.7873,-0.7638,-0.7443,-0.7252,-0.7169,-0.6975,-0.73,-0.7359,-0.7143,-0.7146,-0.7149,-0.7149,-0.7152,-0.7154,-0.7154,-0.7157,-0.723,-0.7336,-0.7339,-0.7486,-0.7695,-0.7693,-0.754,-0.7317,-0.7201,-0.7157,-0.7154,-0.716,-0.7239,-0.7472,-0.8286,-0.8442,-0.8586,-0.9321,-0.9155,-0.8739,-0.8878,-0.8583,-0.8323,-0.8579,-0.8781,-0.8955,-0.909,-0.9245,-0.9374,-0.9374,-0.9478,-0.9596,-0.9592,-1.0028,-1.0257,-1.0257,-1.0468,-1.0684,-1.0692,-1.0899,-1.1223,-1.1551,-1.1599,-1.1613,-1.1412,-1.1601,-1.1522,-1.0725,-1.1196,-1.13,-1.0988,-1.1489,-1.1709,-1.1713,-1.2116,-1.2432,-1.2441,-1.2432,-1.254,-1.2866,-1.2331,-1.2235,-0.9406,0.0,-1.0185,-1.0429,-1.0674,-1.0918,-1.1372,-1.1484,-1.147,-1.1581,-1.1407,-1.0983,-1.0428,-1.0027,-0.9623,-0.9363,-0.8935,-0.8702,-0.8802,-0.8742,-0.8629,-0.8388,-0.8436,0.0,0.0,0.0,0.0,-0.8324,-0.8386,-0.838,-0.8188,-0.8086,-0.7942,-0.7743,-0.7775,-0.7586,-0.7261,-0.7197,-0.718,-0.6986,-0.7091,-0.7264,-0.7493,-0.7268,-0.7154,-0.7154,-0.7154,-0.7154,-0.716,-0.7241,-0.7298,-0.7353,-0.7746,-0.7982,-0.8056,-0.8056,-0.8002,-0.7794,-0.7552,-0.7342,-0.7288,-0.7369,-0.7594,-0.7951,-0.8318,-0.8717,-0.8963,-0.9137,-0.9255,-0.9212,-0.8929,-0.9,-0.9099,-0.9198,-0.9137,-0.909,-0.9473,-0.939,-0.9258,-0.9627,-0.9595,-0.968,-1.0024,-1.0181,-1.0476,-1.0802,-1.0802,-1.0802,-1.124,-1.135,-1.1568,-1.2114,-1.2047,-1.1898,-1.1829,-1.1929,-1.1897,-1.1622,-1.1907,-1.2014,-1.1912,-1.2084,-1.2121,-1.2121,-1.2295,-1.2441,-1.2441,-1.2793,-1.287,-1.288,-1.3018,-1.3019,-0.9973,-1.0371,-1.0759,-1.1266,-1.1423,-1.1505,-1.1962,-1.1992,-1.1848,-1.1627,-1.1338,-1.0818,-1.0042,-0.9415,-0.9034,-0.8856,-0.851,-0.835,-0.8434,-0.8524,-0.8589,-0.8464,-0.8565,-0.8504,0.0,0.0,0.0,-0.7969,-0.8324,-0.8362,-0.8111,-0.796,-0.7842,-0.7743,-0.7725,-0.7657,-0.7533,-0.7419,-0.7291,-0.7267,-0.7155,-0.7306,-0.7607,-0.7268,-0.7154,-0.7154,-0.7154,-0.7179,-0.7222,-0.7255,-0.7323,-0.7413,-0.7758,-0.7977,-0.8176,-0.8056,-0.8056,-0.8155,-0.7677,-0.7467,-0.7415,-0.7494,-0.7718,-0.8073,-0.8274,-0.8696,-0.9095,-0.8976,-0.9203,-0.9399,-0.9118,-0.9189,-0.9395,-0.9449,-0.9453,-0.9463,-0.968,-0.9623,-0.9526,-0.9908,-0.9997,-1.0086,-1.0662,-1.0767,-1.0904,-1.1121,-1.1063,-1.1131,-1.1568,-1.1678,-1.1896,-1.2219,-1.2215,-1.2112,-1.1935,-1.2098,-1.2112,-1.1931,-1.222,-1.2441,-1.255,-1.255,-1.2659,-1.2767,-1.2767,-1.2692,-1.2659,-1.3015,-1.3126,-1.2876,-1.3316,-1.3238,-1.0684,-1.0885,-1.1051,-1.2081,-1.2221,-1.2097,-1.2073,-1.2204,-1.2089,-1.1417,-1.0958,-1.0504,0.0,0.0,-0.7983,-0.8321,-0.8066,-0.7898,-0.8256,-0.8463,-0.8637,0.0,0.0,0.0,0.0,0.0,0.0,-0.7485,0.0,-0.8259,-0.7818,-0.7664,-0.7743,-0.7939,-0.7714,-0.7753,-0.796,-0.7695,-0.7607,-0.7607,-0.7379,-0.7379,-0.7607,-0.7379,-0.7265,-0.7154,-0.7154,-0.722,-0.7317,-0.7201,-0.729,-0.7489,-0.7377,-0.7713,-0.8167,-0.7817,-0.7943,-0.8167,-0.7693,-0.7532,-0.7529,-0.7529,-0.7611,-0.7829,-0.8068,-0.8512,-0.8854,-0.8854,-0.9136,-0.9295,-0.9193,-0.9241,-0.9408,-0.9561,-0.9707,-0.9812,-0.9819,-0.9819,-0.994,-1.0293,-1.0408,-1.0776,-1.1366,-1.1778,-1.1768,-1.153,-1.1594,-1.1581,-1.1568,-1.1787,-1.2005,-1.2005,-1.2223,-1.2257,-1.1852,-1.222,-1.2248,-1.1847,-1.2224,-1.255,-1.2881,-1.2881,-1.2989,-1.3315,-1.3315,-1.3202,-1.3189,-1.3204,-1.3209,-1.3084,-1.3198,-1.3198,-1.1042,-1.1144,-1.1311,-1.1994,-1.201,-1.1898,-1.2224,-1.177,-1.1292,-1.0934,-1.0074,-0.9199,0.0,0.0,0.0,-0.7643,-0.7845,0.0,-0.8446,-0.8645,0.0,-0.8816,0.0,-0.895,-0.8703,-0.8638,0.0,0.0,-0.8133,-0.815,-0.7814,-0.7664,-0.7543,-0.7437,-0.7504,-0.7539,-0.7428,-0.7586,-0.7493,-0.7268,-0.7382,-0.7382,-0.7268,-0.7493,-0.7379,-0.7154,-0.7154,-0.7173,-0.7198,-0.7168,-0.719,-0.7252,-0.7536,-0.7772,-0.8043,-0.8022,-0.8239,-0.8314,-0.7914,-0.7725,-0.7655,-0.7655,-0.7733,-0.7828,-0.7947,-0.8216,-0.8491,-0.8491,-0.8781,-0.9042,-0.8962,-0.9093,-0.9249,-0.9401,-0.9554,-0.9693,-1.0041,-1.0183,-1.0272,-1.0755,-1.118,-1.1409,-1.164,-1.191,-1.2143,-1.2114,-1.2046,-1.1961,-1.1586,-1.1787,-1.2114,-1.2332,-1.2332,-1.2417,-1.2586,-1.2738,-1.2856,-1.2911,-1.296,-1.3098,-1.3207,-1.3207,-1.3207,-1.3315,-1.3098,-1.3093,-1.3189,-1.313,-1.3212,-1.3306,-1.3761,-1.3993,-1.1338,-1.1559,-1.1747,-1.2303,-1.2205,-1.2027,-1.2086,-1.1542,-1.0835,-1.0121,-0.9232,0.0,-0.7381,-0.703,0.0,0.0,0.0,0.0,-0.8264,-0.8548,-0.8767,0.0,-0.9035,0.0,-0.8925,-0.8735,-0.856,0.0,-0.816,-0.7983,-0.7814,-0.7563,-0.7469,-0.7633,-0.7535,-0.7384,-0.7388,-0.7535,-0.7493,-0.7154,-0.7379,-0.7382,-0.7379,-0.7493,-0.7604,-0.7601,0.0,-0.741,-0.7452,-0.7287,-0.7187,-0.7236,-0.7474,-0.7815,-0.8221,-0.7945,-0.821,-0.8488,-0.8116,-0.7953,-0.8029,-0.7961,-0.7861,-0.788,-0.8055,-0.8287,-0.8369,-0.8369,-0.8702,-0.9007,-0.8772,-0.9016,-0.9273,-0.9361,-0.9614,-0.987,-1.019,-1.0379,-1.0642,-1.1033,-1.1647,-1.216,-1.216,-1.2449,-1.2707,-1.2598,-1.2616,-1.2514,-1.206,-1.2115,-1.2332,-1.255,-1.2659,-1.2659,-1.2881,-1.2881,-1.2989,-1.3098,-1.3098,-1.3207,-1.3423,-1.3428,-1.3532,-1.3645,-1.352,-1.3568,-1.3678,-1.3556,-1.3543,-1.3878,-1.4109,-1.434,-1.1685,-1.1838,-1.2113,-1.2582,-1.2532,-1.2112,-1.1752,-1.1218,-1.0496,-0.9263,0.0,-0.7459,-0.6799,-0.62,-0.6024,-0.6754,0.0,-0.7419,-0.7971,-0.8349,-0.8698,-0.9056,-0.9116,-0.9168,-0.9205,-0.9027,-0.8726,-0.8432,-0.8237,-0.798,-0.7848,-0.7486,-0.7642,-0.8326,-0.7713,-0.7469,-0.7604,-0.7607,-0.7493,-0.7265,-0.7265,-0.7379,-0.7607,-0.7718,-0.7826,-0.7937,-0.7715,-0.7668,-0.7641,-0.731,-0.7217,-0.7301,-0.7323,-0.7769,-0.8329,-0.7886,-0.8161,-0.8854,-0.8241,-0.8241,-0.8386,-0.8245,-0.8094,-0.8156,-0.8496,-0.8464,-0.8515,-0.8497,-0.8754,-0.9001,-0.8885,-0.9137,-0.9501,-0.9521,-0.9866,-1.0206,-1.0227,-1.0576,-1.1031,-1.1394,-1.2118,-1.2719,-1.2719,-1.3182,-1.3302,-1.3034,-1.311,-1.2983,-1.2721,-1.2497,-1.2593,-1.2816,-1.2896,-1.2881,-1.2989,-1.2989,-1.2989,-1.3098,-1.3098,-1.3315,-1.3753,-1.3753,-1.3877,-1.4239,-1.4103,-1.4223,-1.4489,-1.3978,-1.4069,-1.453,-1.4291,-1.4416,-1.191,-1.1729,-1.1575,-1.2097,-1.1877,-1.1484,-1.1292,-1.0264,0.0,0.0,-0.7336,-0.6365,-0.5906,-0.5882,-0.6095,-0.6517,0.0,-0.7464,-0.8146,-0.843,-0.8698,0.0,-0.9222,-0.9393,-0.9509,-0.9331,0.0,0.0,-0.8531,-0.8223,-0.8001,-0.7837,-0.7936,-0.8308,-0.8126,-0.8106,-0.7934,-0.7934,-0.7826,-0.7493,-0.7712,-0.7934,-0.7937,-0.8266,-0.8045,-0.7715,-0.7607,0.0,-0.7296,-0.7274,-0.7168,-0.7195,-0.761,-0.7847,-0.811,-0.8337,-0.8717,-0.8854,-0.8732,-0.8732,-0.8738,-0.8395,-0.8576,-0.8871,-0.879,-0.8952,-0.9001,-0.9127,-0.9112,-0.9238,-0.9724,-0.9845,-0.9877,-1.0244,-1.0417,-1.0591,-1.0959,-1.1382,-1.1768,-1.1997,-1.2359,-1.284,-1.3084,-1.3421,-1.358,-1.3297,-1.3358,-1.3268,-1.3088,-1.2857,-1.271,-1.2822,-1.2659,-1.2659,-1.3207,-1.3207,-1.3428,-1.3975,-1.3975,-1.3975,-1.4083,-1.4083,-1.4174,-1.4471,-1.4182,-1.4301,-1.4724,-1.4174,-1.4069,-1.4291,-1.4416,-1.4535,-1.1799,-1.1701,-1.1497,-1.1722,-1.1421,-1.1008,-1.0336,0.0,0.0,0.0,-0.6493,-0.5728,-0.5264,-0.5403,0.0,0.0,0.0,0.0,-0.7634,-0.7975,0.0,-0.8767,-0.906,-0.9291,0.0,-0.9076,-0.8928,-0.8627,-0.8333,-0.8137,-0.8038,-0.815,-0.8164,-0.8056,-0.824,-0.831,-0.8045,-0.8045,-0.7937,-0.7826,-0.7937,-0.8045,-0.8266,-0.8374,-0.8377,-0.8273,-0.8159,-0.8045,-0.782,-0.749,-0.749,-0.7607,-0.7668,-0.804,-0.8457,-0.8518,-0.8794,-0.9095,-0.8976,-0.8976,-0.9095,-0.8976,-0.8894,-0.9069,-0.9202,-0.9079,-0.9063,-0.9477,-0.9529,-0.9593,-1.0077,-1.0202,-1.034,-1.0539,-1.0795,-1.1193,-1.1719,-1.2001,-1.2367,-1.2479,-1.2719,-1.2964,-1.3204,-1.3444,-1.3655,-1.3561,-1.3665,-1.3745,-1.3639,-1.3673,-1.3453,-1.3228,-1.3426,-1.3497,-1.3717,-1.3814,-1.4103,-1.433,-1.4219,-1.4259,-1.4374,-1.4256,-1.4245,-1.4358,-1.4267,-1.4493,-1.4828,-1.4488,-1.4543,-1.4888,-1.4883,-1.5002,-1.1645,-1.1619,-1.154,-1.1451,-1.1091,-1.059,-0.9535,-0.8624,0.0,0.0,-0.5774,-0.5278,-0.486,0.0,-0.519,0.0,-0.5847,-0.631,0.0,-0.75,-0.7918,0.0,-0.8881,0.0,-0.9056,-0.8928,0.0,-0.8432,-0.8168,-0.8102,-0.8133,-0.8353,-0.8355,-0.8097,-0.843,-0.8377,-0.8156,-0.8156,-0.8156,-0.8156,-0.8187,-0.8295,-0.8598,-0.8628,-0.8739,-0.8826,-0.8598,-0.8484,-0.8488,-0.7967,-0.7868,-0.8094,-0.8042,-0.8308,-0.8965,-0.8753,-0.9023,-0.9339,-0.9217,-0.9217,-0.9457,-0.9457,-0.9236,-0.9158,-0.9481,-0.9452,-0.9377,-0.9832,-0.9943,-1.0061,-1.0425,-1.0579,-1.0725,-1.0963,-1.1316,-1.1827,-1.2209,-1.2479,-1.2719,-1.284,-1.2964,-1.3204,-1.3444,-1.3688,-1.3808,-1.3928,-1.4172,-1.4296,-1.4296,-1.4375,-1.4341,-1.3938,-1.4122,-1.4359,-1.4176,-1.4327,-1.454,-1.454,-1.4372,-1.4383,-1.4611,-1.4439,-1.4369,-1.4417,-1.4558,-1.4765,-1.5036,-1.4831,-1.5007,-1.5477,-1.5235,-1.5235,-1.1344,-1.1363,-1.1294,-1.13,-1.0857,-1.011,-0.9295,0.0,0.0,-0.6139,-0.5348,-0.4847,-0.481,-0.4752,-0.4929,0.0,0.0,-0.6026,0.0,-0.7387,-0.7772,-0.8483,0.0,0.0,-0.9056,-0.9131,-0.8935,-0.8432,-0.8372,-0.8306,-0.8435,-0.8469,-0.8618,-0.8799,-0.8819,-0.8712,-0.8484,-0.8484,-0.8484,-0.8488,-0.862,-0.8729,-0.883,-0.9072,-0.8943,-0.8484,-0.8484,-0.8484,0.0,-0.8292,-0.8344,-0.8707,-0.8965,-0.9081,-0.9238,-0.949,-0.9677,-0.97,-0.97,-0.97,-0.97,-0.97,-0.9794,-0.9881,-0.9757,-1.0053,-1.0369,-1.0225,-1.0425,-1.0789,-1.1152,-1.1261,-1.137,-1.1972,-1.2093,-1.2217,-1.2595,-1.2719,-1.284,-1.3084,-1.3204,-1.3444,-1.4052,-1.4172,-1.4291,-1.4535,-1.453,-1.4535,-1.4535,-1.4862,-1.499,-1.4745,-1.4323,-1.42,-1.4401,-1.453,-1.4654,-1.488,-1.4864,-1.4853,-1.4853,-1.4832,-1.4923,-1.5149,-1.5082,-1.5205,-1.5531,-1.5213,-1.5116,-1.5116,-1.5116,-1.5116,-1.1194,-1.1245,-1.1089,-1.0738,-1.0293,-0.9717,-0.869,0.0,-0.6738,-0.5902,-0.5283,-0.4893,-0.4709,-0.4635,-0.4747,0.0,0.0,0.0,-0.6148,0.0,-0.6805,-0.7675,-0.8086,0.0,0.0,0.0,-0.8924,-0.8425,-0.8392,-0.8435,-0.8469,-0.857,-0.8676,-0.8798,-0.8893,-0.8826,-0.8712,-0.8712,-0.8755,-0.8953,-0.901,-0.901,-0.9069,-0.9127,-0.9072,-0.8712,-0.8712,-0.8759,0.0,-0.8904,-0.9094,-0.9418,-0.9538,-0.9756,-1.0087,-1.0267,-1.0229,-1.0183,-1.0304,-1.0304,-1.0183,-1.0304,-1.0469,-1.039,-1.0204,-1.035,-1.0753,-1.0808,-1.1031,-1.1152,-1.1526,-1.176,-1.1877,-1.2113,-1.2479,-1.284,-1.2964,-1.3204,-1.3444,-1.3688,-1.3808,-1.3933,-1.4416,-1.4416,-1.4535,-1.453,-1.4764,-1.4883,-1.4883,-1.524,-1.5322,-1.5231,-1.5141,-1.4914,-1.4887,-1.5119,-1.5194,-1.5316,-1.5182,-1.5106,-1.5106,-1.4961,-1.4929,-1.5025,-1.5176,-1.5295,-1.5392,-1.5408,-1.5359,-1.5359,-1.5359,-1.5433,-1.0732,-1.0819,-1.0714,-1.0364,-0.9863,-0.9174,0.0,0.0,-0.6425,-0.5714,-0.5181,-0.4801,-0.4618,-0.453,-0.4549,0.0,0.0,-0.4934,-0.5588,-0.582,-0.6189,0.0,0.0,-0.7871,0.0,-0.8729,-0.8803,-0.852,-0.8621,-0.8649,-0.872,-0.8859,-0.8886,-0.8777,-0.8882,-0.894,-0.894,-0.894,-0.9011,-0.9154,-0.9154,-0.9154,-0.9154,-0.9154,-0.9076,-0.894,-0.894,-0.913,0.0,-0.9429,-0.977,-1.0266,-1.0197,-1.0402,-1.0625,-1.0625,-1.0576,-1.0425,-1.0668,-1.0668,-1.0547,-1.0789,-1.1031,-1.1031,-1.0906,-1.1031,-1.1152,-1.1394,-1.1635,-1.1756,-1.201,-1.2247,-1.2359,-1.2479,-1.284,-1.3204,-1.3324,-1.3569,-1.3933,-1.4172,-1.4291,-1.4411,-1.465,-1.4769,-1.4769,-1.4888,-1.5121,-1.5235,-1.5235,-1.5477,-1.5601,-1.5601,-1.5601,-1.5531,-1.5365,-1.5505,-1.5601,-1.5601,-1.5445,-1.5354,-1.5354,-1.5187,-1.5095,-1.5095,-1.5268,-1.5354,-1.5354,-1.5515,-1.5634,-1.5698,-1.5698,-1.5828,-0.9803,-1.0126,-1.0324,-1.0324,-0.9577,-0.8627,0.0,0.0,-0.6142,-0.5531,-0.4982,-0.4618,-0.4618,-0.4443,-0.4377,-0.4646,0.0,0.0,-0.5688,-0.5838,0.0,0.0,0.0,-0.7624,-0.7909,-0.8442,-0.8821,-0.8825,-0.9134,0.0,-0.9089,-0.9333,-0.9268,-0.8937,-0.894,-0.894,-0.894,-0.894,-0.9011,-0.9154,-0.9154,-0.9154,-0.9154,-0.9154,-0.9076,-0.894,-0.894,-0.9353,0.0,-1.0004,-1.0285,-1.1039,-1.0842,-1.0785,-1.0785,-1.0785,-1.0785,-1.0789,-1.0789,-1.0789,-1.091,-1.1152,-1.1514,-1.1877,-1.2113,-1.1997,-1.1756,-1.1756,-1.2238,-1.2719,-1.2719,-1.2719,-1.284,-1.3084,-1.3204,-1.3324,-1.3569,-1.3933,-1.4172,-1.4172,-1.4416,-1.465,-1.4997,-1.511,-1.5235,-1.5596,-1.5596,-1.5596,-1.5596,-1.5601,-1.5601,-1.5601,-1.5601,-1.5601,-1.5596,-1.5601,-1.5601,-1.5601,-1.5596,-1.5596,-1.5596,-1.5591,-1.5591,-1.5591,-1.5591,-1.5596,-1.5596,-1.5601,-1.572,-1.5946,-1.5946,-1.6075,-0.8498,-0.871,-0.8878,-0.8453,-0.817,-0.7755,-0.7069,0.0,-0.6044,-0.533,-0.4943,-0.4709,-0.4539,-0.4499,-0.4554,-0.494,-0.496,0.0,0.0,0.0,0.0,-0.6355,-0.756,-0.8422,0.0,0.0,-0.9229,-0.9133,-0.9135,-0.9083,-0.8938,-0.8973,-0.8998,-0.9106,-0.8996,-0.894,-0.894,-0.894,-0.9011,-0.9154,-0.9154,-0.9267,-0.9493,-0.9602,-0.9681,-0.976,-0.9873,-1.013,-1.0518,-1.0688,-1.0925,-1.1203,-1.1382,-1.1526,-1.1526,-1.1526,-1.1281,-1.1152,-1.1402,-1.1522,-1.1534,-1.2028,-1.2344,-1.2505,-1.2638,-1.2587,-1.2479,-1.2479,-1.2599,-1.2719,-1.2719,-1.3084,-1.3449,-1.3569,-1.3808,-1.4172,-1.4291,-1.4416,-1.453,-1.4759,-1.4878,-1.5002,-1.5359,-1.5596,-1.5844,-1.5963,-1.607,-1.6183,-1.6183,-1.6076,-1.5963,-1.5963,-1.572,-1.5601,-1.5601,-1.5601,-1.5601,-1.5601,-1.5844,-1.5963,-1.5963,-1.5963,-1.5963,-1.5963,-1.572,-1.5677,-1.5838,-1.5838,-1.5962,-1.6204,-1.6361,-1.6479,0.0,-0.7783,-0.7837,-0.7463,-0.7173,0.0,0.0,0.0,-0.5507,-0.5043,-0.4692,-0.4455,-0.4478,-0.4299,-0.4318,-0.4799,-0.478,0.0,0.0,0.0,0.0,-0.651,0.0,0.0,0.0,-0.9111,-0.9229,-0.9236,-0.9187,-0.9252,-0.9425,-0.9268,-0.9273,-0.9551,-0.9109,-0.894,-0.894,-0.894,-0.9011,-0.9154,-0.9096,-0.9212,-0.9603,-0.9706,-0.9924,-1.0062,-1.023,-1.0514,0.0,-1.1031,-1.1248,-1.1522,-1.1772,-1.1776,-1.1776,-1.1776,-1.1768,-1.1635,-1.1885,-1.2051,-1.2356,-1.2651,-1.2946,-1.3107,-1.3359,-1.3184,-1.2964,-1.3084,-1.3204,-1.3324,-1.3324,-1.3688,-1.4047,-1.4047,-1.4291,-1.4655,-1.4655,-1.465,-1.4883,-1.5235,-1.5359,-1.5596,-1.5833,-1.607,-1.6194,-1.6194,-1.6425,-1.6537,-1.6537,-1.6307,-1.6194,-1.6194,-1.607,-1.5952,-1.5952,-1.5839,-1.5839,-1.5952,-1.6194,-1.6194,-1.6194,-1.6194,-1.6194,-1.6194,-1.6076,-1.5953,-1.6189,-1.6252,-1.6296,-1.6452,-1.6684,-1.6791,0.0,0.0,0.0,0.0,0.0,0.0,0.0,0.0,0.0,-0.4663,-0.4257,-0.4016,-0.4431,-0.4033,-0.3842,-0.4451,0.0,0.0,0.0,-0.5518,0.0,0.0,-0.7419,0.0,-0.822,-0.8653,-0.8928,-0.9232,-0.9388,-0.9662,-1.0152,-0.9997,-1.0062,-1.0249,-0.9368,-0.8927,-0.894,-0.8937,-0.9005,-0.925,-0.9001,-0.9234,-0.9712,-0.9727,-0.9851,0.0,-1.0379,-1.0661,-1.1169,-1.1169,-1.1383,-1.1776,-1.1776,-1.1776,-1.1776,-1.1776,-1.201,-1.2234,-1.2234,-1.26,-1.3092,-1.3147,-1.3458,-1.3827,-1.4057,-1.3808,-1.3324,-1.3688,-1.3933,-1.4172,-1.4172,-1.4411,-1.4655,-1.4655,-1.465,-1.4655,-1.4655,-1.5002,-1.5235,-1.5596,-1.5963,-1.62,-1.6419,-1.6537,-1.6537,-1.6537,-1.6537,-1.6537,-1.6537,-1.6537,-1.6537,-1.6537,-1.6537,-1.6537,-1.6537,-1.6312,-1.6194,-1.6537,-1.6537,-1.6537,-1.6537,-1.6537,-1.6537,-1.6537,-1.6554,-1.6453,-1.6464,-1.6566,-1.6673,-1.6694,-1.6904,-1.7001,-0.5075,0.0,-0.549,-0.5193,-0.5062,-0.4963,0.0,0.0,0.0,0.0,0.0,0.0,-0.4431,-0.4186,-0.4158,0.0,0.0,0.0,-0.5489,0.0,0.0,-0.7377,-0.7935,-0.8419,-0.8757,-0.9154,-0.9426,-0.9529,-0.9489,-0.956,-0.9839,-0.9572,-0.9625,-0.9915,-0.9581,-0.9468,-0.9596,-0.9379,-0.9396,-0.965,-0.9614,-0.9791,-1.0292,-1.0417,-1.0774,-1.1145,-1.1328,-1.1551,-1.1591,-1.1591,-1.174,-1.1776,-1.1776,-1.1776,-1.1776,-1.2005,-1.2118,-1.2234,-1.2479,-1.2871,-1.3147,-1.3463,-1.3913,-1.4256,-1.4221,-1.4052,-1.4052,-1.4291,-1.4416,-1.453,-1.453,-1.4769,-1.4997,-1.4997,-1.5121,-1.5483,-1.5726,-1.5844,-1.5957,-1.6183,-1.6307,-1.6425,-1.6537,-1.6661,-1.6903,-1.6903,-1.7132,-1.7244,-1.7244,-1.7015,-1.6903,-1.6903,-1.6661,-1.6655,-1.6903,-1.6543,-1.6419,-1.6537,-1.6779,-1.6903,-1.6903,-1.6903,-1.6903,-1.6903,-1.6612,-1.647,-1.6714,-1.6642,-1.6754,-1.6926,-1.698,-1.7001,-0.435,-0.4764,-0.5069,-0.4827,-0.4762,-0.4693,0.0,0.0,0.0,0.0,0.0,0.0,0.0,0.0,0.0,0.0,-0.503,0.0,0.0,0.0,-0.7044,-0.7741,-0.8222,-0.8544,0.0,-0.906,-0.9307,-0.9502,-0.9371,-0.9544,-0.9927,-0.9729,-0.9677,-1.0019,-0.9827,-0.9753,-0.9812,-0.9706,-0.9706,-0.9816,-0.9816,-0.9972,-1.0404,-1.0572,-1.0974,-1.1616,-1.1807,-1.2055,-1.2247,-1.201,-1.213,-1.2251,-1.201,-1.213,-1.2247,-1.2359,-1.2479,-1.2719,-1.2844,-1.3204,-1.3583,-1.4164,-1.4328,-1.4439,-1.456,-1.4644,-1.4644,-1.465,-1.465,-1.4883,-1.4883,-1.5121,-1.5353,-1.5353,-1.5596,-1.5844,-1.6087,-1.62,-1.6312,-1.6661,-1.6779,-1.6779,-1.6891,-1.7132,-1.7256,-1.7256,-1.7367,-1.7485,-1.7485,-1.7367,-1.7256,-1.7256,-1.7015,-1.7015,-1.725,-1.7015,-1.7009,-1.7009,-1.7239,-1.7428,-1.7428,-1.7428,-1.7375,-1.7256,-1.6908,-1.6915,-1.705,-1.6904,-1.6883,-1.7001,-1.7001,-1.7001,-0.4217,-0.4739,-0.5206,-0.4941,-0.4857,-0.4737,0.0,0.0,0.0,0.0,0.0,0.0,0.0,0.0,0.0,0.0,0.0,0.0,-0.6595,-0.6965,-0.7294,-0.7951,-0.8337,0.0,-0.8485,-0.8785,-0.9172,-0.9489,-0.9347,-0.961,-1.0298,-1.0171,-1.0117,-1.0486,-1.0277,-1.0146,-0.9998,-0.9915,-0.9915,-0.9889,-0.9915,-1.0048,-1.041,-1.0563,-1.0948,-1.1693,0.0,0.0,-1.2631,-1.2273,-1.2393,-1.2636,-1.2303,-1.2436,-1.268,-1.2711,-1.296,-1.3324,-1.3324,-1.3569,-1.3957,-1.4746,-1.4681,-1.4406,-1.4997,-1.5116,-1.5116,-1.4888,-1.5002,-1.5235,-1.5235,-1.5359,-1.5601,-1.5601,-1.5844,-1.6087,-1.6205,-1.6431,-1.6661,-1.702,-1.7056,-1.7185,-1.7491,-1.7515,-1.7527,-1.7491,-1.7485,-1.7485,-1.7485,-1.7485,-1.7485,-1.7485,-1.7485,-1.7485,-1.7485,-1.7485,-1.7485,-1.7485,-1.7732,-1.7895,-1.7937,-1.7937,-1.7817,-1.7545,-1.7427,-1.7302,-1.7302,-1.7125,-1.6969,-1.7001,-1.7001,-1.7001,-0.4707,-0.5009,-0.4927,-0.4101,-0.4323,-0.4581,0.0,0.0,0.0,0.0,0.0,0.0,0.0,0.0,-0.4597,0.0,0.0,-0.6264,0.0,0.0,-0.7581,-0.7967,0.0,-0.8868,-0.9023,-0.9329,-0.9702,-0.9866,-0.9903,-1.0103,-1.0602,-1.0449,-1.0431,-1.0811,-1.0824,-1.0918,-1.1117,-1.051,-1.0296,-1.0262,-1.0514,-1.0663,-1.0928,-1.0956,-1.1175,-1.1684,0.0,-1.1975,-1.2227,-1.2112,-1.2112,-1.2249,-1.2299,-1.2364,-1.2504,-1.2906,-1.3324,-1.3688,-1.4172,-1.4411,-1.454,-1.457,-1.4794,-1.4997,-1.5116,-1.5353,-1.5477,-1.5483,-1.5477,-1.5477,-1.5477,-1.5596,-1.572,-1.5963,-1.6087,-1.62,-1.679,-1.6903,-1.702,-1.7367,-1.7666,-1.7744,-1.7521,-1.7666,-1.7738,-1.7515,-1.7485,-1.7485,-1.7485,-1.7485,-1.7485,-1.7485,-1.7485,-1.7485,-1.7485,-1.7485,-1.7485,-1.7485,-1.7732,-1.798,-1.8221,-1.8227,-1.81,-1.7817,-1.7753,-1.7543,-1.7302,-1.7205,-1.7063,-1.7001,-1.7001,-1.7001,-0.4384,-0.4711,-0.4769,-0.4122,-0.4545,-0.5004,-0.4628,0.0,0.0,0.0,0.0,0.0,0.0,0.0,-0.518,-0.5981,0.0,-0.6555,-0.7163,-0.7468,-0.7844,0.0,0.0,-0.9155,-0.9238,-0.9426,-0.966,-0.9746,-0.9949,-1.0104,-1.0382,-1.0404,-1.0588,-1.0975,-1.0988,-1.1085,-1.1287,-1.115,-1.0979,-1.1008,-1.1093,-1.1177,-1.1372,-1.1372,-1.1587,-1.1994,0.0,-1.2498,-1.2831,-1.2831,-1.2946,-1.3084,-1.3175,-1.3255,-1.3517,-1.3851,-1.4052,-1.4291,-1.4764,-1.4769,-1.465,-1.5007,-1.5121,-1.511,-1.5359,-1.5601,-1.5844,-1.5844,-1.572,-1.5601,-1.5601,-1.572,-1.5963,-1.6087,-1.6324,-1.6672,-1.6908,-1.7138,-1.7367,-1.7485,-1.7581,-1.7624,-1.7503,-1.7581,-1.7624,-1.7503,-1.7485,-1.7485,-1.7485,-1.7485,-1.7539,-1.7678,-1.7569,-1.7539,-1.7678,-1.7563,-1.7545,-1.7684,-1.795,-1.8161,-1.8287,-1.8432,-1.8378,-1.8106,-1.8107,-1.7801,-1.7302,-1.7292,-1.7025,-1.6635,-1.6759,-1.6818,-0.4077,-0.434,-0.4572,-0.4303,0.0,-0.5296,-0.5146,0.0,0.0,0.0,0.0,0.0,0.0,-0.5573,0.0,-0.6675,-0.6794,-0.6961,-0.7561,-0.7819,-0.8147,-0.859,-0.9052,-0.9367,-0.9411,-0.9553,-0.966,-0.9786,-1.0028,-1.0223,-1.031,-1.0498,-1.0744,-1.1048,-1.125,-1.1376,-1.1535,-1.1733,-1.172,-1.1502,-1.1546,-1.1546,-1.1502,-1.1502,-1.1805,-1.2284,-1.2496,-1.2947,-1.3488,-1.3488,-1.36,-1.3733,-1.3719,-1.3978,-1.4336,-1.4564,-1.4769,-1.4769,-1.5121,-1.5002,-1.4888,-1.5483,-1.5596,-1.5359,-1.5715,-1.5957,-1.62,-1.62,-1.5957,-1.5833,-1.5833,-1.5957,-1.62,-1.6318,-1.6672,-1.702,-1.7138,-1.7367,-1.7485,-1.7485,-1.7533,-1.7551,-1.7491,-1.7533,-1.7551,-1.7491,-1.7485,-1.7485,-1.7485,-1.7485,-1.7563,-1.7756,-1.766,-1.7654,-1.7859,-1.763,-1.7569,-1.7649,-1.7925,-1.8105,-1.8165,-1.8356,-1.8368,-1.8171,-1.8232,-1.7865,-1.7302,-1.7235,-1.6888,-1.6398,-1.6522,-1.664,-0.422,-0.4226,-0.4125,-0.4337,-0.4728,0.0,-0.5167,-0.538,0.0,0.0,0.0,0.0,0.0,-0.6595,-0.6986,-0.7342,-0.7577,-0.7816,-0.8019,0.0,-0.8594,-0.862,-0.9221,-0.968,-0.9876,-0.9908,-0.9985,-1.044,-1.0481,-1.061,-1.0801,-1.0988,-1.111,-1.1142,-1.1822,-1.2245,-1.226,-1.248,-1.2162,-1.1313,-1.1485,-1.1476,-1.1309,-1.1309,-1.1638,-1.2079,-1.2186,-1.2622,-1.3366,-1.3366,-1.336,-1.3386,-1.3487,-1.3937,-1.4336,-1.4914,-1.511,-1.5116,-1.5477,-1.5596,-1.5601,-1.5963,-1.6087,-1.6081,-1.6307,-1.6419,-1.6419,-1.6419,-1.6419,-1.6419,-1.6419,-1.6419,-1.6543,-1.6903,-1.7026,-1.7138,-1.7367,-1.7485,-1.7485,-1.7485,-1.7678,-1.7768,-1.7527,-1.7684,-1.7762,-1.7521,-1.7485,-1.7485,-1.7485,-1.7485,-1.7491,-1.7509,-1.7708,-1.7853,-1.7871,-1.763,-1.7379,-1.705,-1.7291,-1.7537,-1.7778,-1.7802,-1.7802,-1.7784,-1.8183,-1.7942,-1.7302,-1.732,-1.7066,-1.6635,-1.6436,-1.6571,-0.3996,-0.4247,-0.4398,-0.4572,0.0,0.0,0.0,0.0,0.0,0.0,0.0,0.0,0.0,0.0,-0.7489,-0.75,-0.7777,-0.8138,-0.8447,-0.88,-0.9096,-0.9216,-0.947,-0.9722,-0.9976,-1.0107,-1.0215,-1.0376,-1.0796,-1.0991,-1.0896,-1.1085,-1.1415,-1.188,-1.2152,-1.2403,-1.2745,-1.2971,-1.2733,-1.2149,-1.2153,-1.2316,-1.2341,-1.2341,-1.2447,-1.2649,-1.2626,-1.29,-1.3422,-1.3529,-1.373,-1.3888,-1.4109,-1.4393,-1.4682,-1.4887,-1.5034,-1.5034,-1.5149,-1.5257,-1.5359,-1.5324,-1.5494,-1.5593,-1.5544,-1.5836,-1.6309,-1.6309,-1.6651,-1.7009,-1.6655,-1.6661,-1.6785,-1.7026,-1.7138,-1.7367,-1.7485,-1.7485,-1.7485,-1.7485,-1.7563,-1.7599,-1.7497,-1.7563,-1.7599,-1.7497,-1.7485,-1.7485,-1.7485,-1.7485,-1.7545,-1.7708,-1.7817,-1.7871,-1.7871,-1.763,-1.7485,-1.7367,-1.7613,-1.7558,-1.7289,-1.7978,-1.8274,-1.8025,-1.8566,-1.8441,-1.79,-1.7501,-1.7027,-1.6596,-1.6252,-1.6183,-0.3784,-0.4043,-0.4325,0.0,0.0,0.0,0.0,0.0,0.0,0.0,-0.6968,0.0,0.0,0.0,0.0,0.0,-0.8143,-0.8458,-0.8724,-0.9237,-0.9538,-0.9676,-0.9777,-0.9951,-1.0304,-1.0416,-1.0452,-1.0631,-1.1125,-1.1372,-1.1182,-1.1376,-1.1722,-1.2223,-1.2399,-1.2612,-1.2863,-1.3021,-1.2944,-1.2741,-1.2698,-1.267,-1.2769,-1.284,-1.2975,-1.3069,-1.2941,-1.3164,-1.3609,-1.3746,-1.3965,-1.4218,-1.4449,-1.4632,-1.4783,-1.4859,-1.4999,-1.4999,-1.4999,-1.5227,-1.5336,-1.528,-1.5454,-1.556,-1.5501,-1.5915,-1.6418,-1.6494,-1.6819,-1.714,-1.6751,-1.6956,-1.7138,-1.7138,-1.7367,-1.7485,-1.7485,-1.7485,-1.7485,-1.7485,-1.7485,-1.7485,-1.7485,-1.7485,-1.7485,-1.7485,-1.7485,-1.7485,-1.7485,-1.7485,-1.7618,-1.7968,-1.7853,-1.7823,-1.7992,-1.7684,-1.7485,-1.7367,-1.7654,-1.7548,-1.7029,-1.7737,-1.809,-1.7923,-1.8191,-1.8025,-1.7677,-1.7188,-1.6774,-1.6321,-1.5997,-1.5919,-0.367,-0.361,0.0,0.0,0.0,0.0,0.0,0.0,0.0,0.0,0.0,-0.7941,-0.8363,0.0,0.0,-0.8368,-0.8765,-0.9,-0.9005,-0.9602,-1.0038,-1.0038,-1.0207,-1.0472,-1.0926,-1.0775,-1.0905,-1.1352,-1.1595,-1.1757,-1.1757,-1.1864,-1.198,-1.198,-1.2485,-1.2699,-1.2699,-1.2704,-1.2804,-1.3104,-1.2804,-1.2615,-1.2329,-1.2547,-1.2751,-1.3049,-1.2809,-1.3312,-1.4169,-1.3922,-1.397,-1.4218,-1.4444,-1.453,-1.4557,-1.4789,-1.5106,-1.5332,-1.5332,-1.5451,-1.5789,-1.6115,-1.6228,-1.6233,-1.6576,-1.6694,-1.6754,-1.7008,-1.6899,-1.6761,-1.702,-1.728,-1.7473,-1.7473,-1.7473,-1.7473,-1.7473,-1.7473,-1.7473,-1.7479,-1.7479,-1.7479,-1.7485,-1.7485,-1.7485,-1.7485,-1.7485,-1.7485,-1.7485,-1.7485,-1.769,-1.8233,-1.7805,-1.7702,-1.8245,-1.7793,-1.7367,-1.7026,-1.7373,-1.7487,-1.739,-1.7029,-1.7028,-1.7297,-1.68,-1.6555,-1.6568,-1.6203,-1.6084,-1.5941,-1.5709,-1.5854,-0.368,-0.3976,0.0,0.0,0.0,0.0,0.0,0.0,0.0,0.0,0.0,-0.8491,-0.8562,0.0,0.0,-0.8748,-0.8952,-0.9086,-0.9399,-0.9861,-1.0294,-1.0376,-1.0554,-1.0794,-1.1139,-1.1356,-1.1558,-1.1915,-1.2104,-1.2174,-1.2174,-1.2042,-1.2149,-1.2501,-1.2668,-1.2804,-1.3004,-1.318,-1.3195,-1.3062,-1.3407,-1.3276,-1.292,-1.3158,-1.327,-1.3372,-1.3491,-1.3784,-1.4267,-1.4568,-1.4652,-1.4724,-1.4797,-1.4825,-1.4831,-1.4903,-1.5046,-1.5046,-1.5046,-1.5268,-1.5498,-1.5424,-1.5488,-1.5597,-1.5534,-1.5828,-1.6103,-1.618,-1.6504,-1.6718,-1.6797,-1.6875,-1.693,-1.693,-1.693,-1.693,-1.693,-1.693,-1.699,-1.7171,-1.7207,-1.7267,-1.7449,-1.7485,-1.7485,-1.7485,-1.7485,-1.7485,-1.7485,-1.7485,-1.7618,-1.7962,-1.769,-1.7624,-1.7968,-1.7678,-1.7485,-1.7367,-1.7654,-1.747,-1.6776,-1.7296,-1.7552,-1.7398,-1.767,-1.7724,-1.7806,-1.7052,-1.6599,-1.6661,-1.5943,-1.5677,-0.4181,0.0,0.0,0.0,0.0,0.0,0.0,0.0,0.0,0.0,0.0,-0.8721,-0.8832,-0.8749,0.0,-0.9215,-0.9316,-0.9546,-0.9843,-1.0334,-1.0722,-1.0895,-1.0895,-1.1081,-1.1583,-1.1636,-1.1868,-1.2209,-1.2437,-1.2565,-1.2565,-1.237,-1.2573,-1.2998,-1.2913,-1.3012,-1.3303,-1.3263,-1.3243,-1.2958,-1.3353,-1.3319,-1.3078,-1.3623,-1.3777,-1.389,-1.4182,-1.4404,-1.4472,-1.4724,-1.495,-1.503,-1.5033,-1.5056,-1.5035,-1.5143,-1.5256,-1.5256,-1.5357,-1.5564,-1.5778,-1.5725,-1.5779,-1.5874,-1.5618,-1.5797,-1.6054,-1.6047,-1.6222,-1.6404,-1.6507,-1.6459,-1.6435,-1.6652,-1.67,-1.67,-1.67,-1.6785,-1.6875,-1.6923,-1.702,-1.7111,-1.7165,-1.7171,-1.7207,-1.7316,-1.7418,-1.7485,-1.7485,-1.7485,-1.7581,-1.7847,-1.7642,-1.7587,-1.7853,-1.763,-1.7485,-1.7485,-1.763,-1.7529,-1.6897,-1.7381,-1.7643,-1.7402,-1.7461,-1.7375,-1.7369,-1.6725,-1.6401,-1.6401,-1.578,-1.5601,0.0,0.0,0.0,0.0,0.0,0.0,0.0,0.0,0.0,0.0,0.0,-0.8783,-0.8988,-0.9006,-0.9219,-0.9632,-0.9892,-1.0029,-1.0226,-1.0879,-1.1295,-1.1295,-1.1316,-1.1516,-1.206,-1.1919,-1.1971,-1.2425,-1.2742,-1.2861,-1.2861,-1.2861,-1.3057,-1.3469,-1.3263,-1.3252,-1.3474,-1.3258,-1.3055,-1.2861,-1.2861,-1.305,-1.326,-1.393,-1.427,-1.4441,-1.483,-1.5022,-1.4815,-1.4809,-1.4941,-1.512,-1.5176,-1.5129,-1.5137,-1.5429,-1.5553,-1.569,-1.5891,-1.6105,-1.643,-1.663,-1.673,-1.6624,-1.6424,-1.6324,-1.6373,-1.629,-1.618,-1.6053,-1.629,-1.6174,-1.6012,-1.6513,-1.6628,-1.6628,-1.6628,-1.6815,-1.6917,-1.6706,-1.6857,-1.696,-1.6767,-1.6718,-1.6791,-1.705,-1.7316,-1.7485,-1.7485,-1.7485,-1.7575,-1.7811,-1.7624,-1.7581,-1.7817,-1.7618,-1.7485,-1.7485,-1.7485,-1.7485,-1.7485,-1.7482,-1.7367,-1.7367,-1.655,-1.6205,-1.6081,-1.5844,-1.5601,-1.5601,-1.5601,-1.5601,0.0,0.0,0.0,0.0,0.0,0.0,0.0,0.0,0.0,0.0,-0.905,-0.9266,-0.9463,-0.9357,-0.9432,-0.9976,-0.9958,-0.9974,-1.019,-1.0876,-1.1304,-1.1304,-1.1657,-1.2122,-1.2835,-1.266,-1.2783,-1.3233,-1.3318,-1.3249,-1.305,-1.3249,-1.3272,-1.3224,-1.3368,-1.3465,-1.3522,-1.3471,-1.3539,-1.3642,-1.3642,-1.3829,-1.4022,-1.3743,-1.41,-1.4902,-1.5234,-1.566,-1.5919,-1.5919,-1.6056,-1.628,-1.5916,-1.5977,-1.628,-1.5977,-1.6026,-1.6418,-1.6518,-1.6524,-1.663,-1.673,-1.673,-1.673,-1.6624,-1.663,-1.6643,-1.6593,-1.6568,-1.653,-1.6593,-1.6355,-1.6248,-1.6365,-1.6282,-1.6066,-1.6066,-1.6109,-1.6193,-1.6344,-1.6429,-1.6592,-1.6948,-1.6839,-1.6791,-1.705,-1.7316,-1.7485,-1.7485,-1.7485,-1.7503,-1.7563,-1.7515,-1.7503,-1.7563,-1.7515,-1.7485,-1.7485,-1.7485,-1.7485,-1.7485,-1.7539,-1.7333,-1.7108,-1.6932,-1.6667,-1.6425,-1.6076,-1.5963,-1.5963,-1.572,-1.5601,0.0,0.0,0.0,0.0,0.0,0.0,0.0,0.0,0.0,-0.954,-0.9532,-0.962,-0.962,-0.9771,-0.996,-1.0308,-1.0351,-1.0472,-1.0671,-1.1328,-1.1732,-1.1649,-1.2047,-1.2527,-1.2831,-1.2802,-1.294,-1.3322,-1.3465,-1.3443,-1.3346,-1.3443,-1.3596,-1.3716,-1.3699,-1.3796,-1.3912,-1.3887,-1.3919,-1.3919,-1.4016,-1.4208,-1.4502,-1.419,-1.4589,-1.5505,-1.565,-1.5995,-1.6505,-1.6248,-1.6314,-1.6495,-1.6081,-1.6094,-1.6336,-1.6336,-1.6418,-1.6552,-1.6797,-1.6955,-1.6955,-1.7054,-1.716,-1.716,-1.6948,-1.6955,-1.6955,-1.673,-1.673,-1.673,-1.673,-1.663,-1.653,-1.653,-1.6205,-1.5891,-1.5891,-1.5988,-1.6079,-1.6091,-1.6199,-1.6344,-1.6489,-1.6622,-1.6791,-1.705,-1.7316,-1.7485,-1.7485,-1.7485,-1.7485,-1.7485,-1.7485,-1.7485,-1.7485,-1.7485,-1.7485,-1.7485,-1.7485,-1.7485,-1.725,-1.7256,-1.7138,-1.7026,-1.6672,-1.6436,-1.6312,-1.5957,-1.5844,-1.5844,-1.572,-1.5601,0.0,0.0,0.0,0.0,0.0,0.0,0.0,0.0,0.0,-1.0096,-1.0051,-0.9916,-0.9771,-1.0143,-1.0511,-1.0655,-1.0767,-1.0913,-1.1118,-1.1768,-1.2116,-1.1993,-1.2433,-1.2813,-1.2909,-1.2991,-1.3066,-1.3315,-1.3501,-1.3527,-1.3567,-1.3527,-1.3721,-1.4172,-1.4027,-1.4016,-1.4276,-1.4346,-1.4232,-1.4034,-1.4274,-1.4592,-1.4796,-1.4741,-1.5114,-1.5785,-1.5834,-1.6179,-1.6558,-1.6196,-1.6145,-1.6298,-1.5972,-1.5978,-1.6208,-1.6497,-1.6626,-1.6626,-1.7029,-1.7239,-1.7272,-1.7417,-1.7542,-1.7582,-1.7384,-1.7279,-1.7173,-1.6948,-1.6836,-1.6836,-1.6836,-1.6842,-1.6842,-1.6842,-1.6418,-1.5992,-1.5998,-1.6168,-1.6259,-1.5934,-1.6103,-1.6193,-1.5934,-1.6338,-1.6754,-1.6923,-1.7177,-1.7364,-1.7406,-1.7412,-1.7436,-1.7479,-1.7485,-1.7485,-1.7485,-1.7485,-1.7485,-1.7485,-1.7485,-1.725,-1.7026,-1.6908,-1.679,-1.679,-1.6324,-1.6087,-1.5963,-1.572,-1.5601,-1.5601,-1.5601,-1.5601,0.0,0.0,0.0,0.0,0.0,0.0,0.0,0.0,0.0,0.0,-1.0415,-1.0443,-1.0368,-1.0443,-1.0524,-1.0715,-1.079,-1.0802,-1.0837,-1.1307,-1.1721,-1.1956,-1.2582,-1.3243,-1.3605,-1.3881,-1.3975,-1.4068,-1.3915,-1.3817,-1.3854,-1.365,-1.365,-1.3908,-1.3952,-1.4032,-1.4196,-1.4453,-1.4528,-1.4528,-1.4867,-1.4987,-1.5083,-1.5025,-1.5215,-1.5524,-1.5758,-1.6087,-1.6328,-1.6251,-1.6439,-1.6627,-1.6098,-1.6401,-1.6965,-1.6557,-1.6787,-1.7384,-1.7281,-1.7375,-1.7542,-1.7288,-1.7375,-1.7582,-1.7582,-1.7589,-1.7582,-1.7477,-1.7477,-1.7477,-1.7477,-1.7272,-1.7173,-1.7173,-1.6849,-1.6524,-1.6324,-1.6248,-1.626,-1.5897,-1.6103,-1.6193,-1.5934,-1.6338,-1.6628,-1.6423,-1.6628,-1.6887,-1.7117,-1.7141,-1.7231,-1.7461,-1.7485,-1.7485,-1.7485,-1.7485,-1.7485,-1.7485,-1.7256,-1.702,-1.7026,-1.6554,-1.6205,-1.6205,-1.6087,-1.5963,-1.572,-1.5601,-1.5601,-1.5601,-1.5601,-1.5601,0.0,0.0,0.0,0.0,0.0,0.0,0.0,0.0,-1.0051,-1.0447,-1.0641,-1.0789,-1.0714,-1.0887,-1.1037,-1.0962,-1.1037,-1.1186,-1.126,-1.1663,-1.1964,-1.2004,-1.2744,-1.3213,-1.3334,-1.3735,-1.3951,-1.3988,-1.4044,-1.4029,-1.4056,-1.395,-1.3938,-1.4056,-1.4035,-1.4126,-1.4245,-1.4513,-1.4773,-1.5034,-1.5321,-1.5452,-1.5452,-1.5452,-1.5608,-1.5686,-1.5808,-1.6156,-1.65,-1.6341,-1.6368,-1.6433,-1.6036,-1.6082,-1.6413,-1.6361,-1.6633,-1.7094,-1.7134,-1.7341,-1.7562,-1.7435,-1.7475,-1.7582,-1.7582,-1.7582,-1.7582,-1.7582,-1.7582,-1.7582,-1.7582,-1.7477,-1.7378,-1.7378,-1.7166,-1.6849,-1.6636,-1.643,-1.6217,-1.5998,-1.5982,-1.6072,-1.6103,-1.6308,-1.6477,-1.6513,-1.6622,-1.6797,-1.7062,-1.7092,-1.7195,-1.7455,-1.7485,-1.7485,-1.7485,-1.7485,-1.7367,-1.7256,-1.702,-1.6908,-1.6554,-1.62,-1.5963,-1.5844,-1.5844,-1.572,-1.5601,-1.5601,-1.5601,-1.5601,-1.5601,-1.5477,0.0,0.0,0.0,0.0,0.0,0.0,0.0,0.0,-1.0089,0.0,-1.0729,-1.0883,-1.0931,-1.1169,-1.1385,-1.1169,-1.1304,-1.1451,-1.1598,-1.1795,-1.1993,-1.2216,-1.2881,-1.3231,-1.3149,-1.3651,-1.3986,-1.3892,-1.4039,-1.4066,-1.4129,-1.4072,-1.4066,-1.4135,-1.4072,-1.4066,-1.4135,-1.4558,-1.4962,-1.5504,-1.5725,-1.5832,-1.5832,-1.5832,-1.585,-1.5862,-1.5862,-1.6077,-1.6466,-1.6246,-1.6159,-1.6139,-1.5912,-1.5872,-1.5972,-1.6192,-1.6506,-1.684,-1.6987,-1.7275,-1.7569,-1.7495,-1.7522,-1.7582,-1.7582,-1.7582,-1.7582,-1.7582,-1.7582,-1.7582,-1.7582,-1.7582,-1.7582,-1.7582,-1.7378,-1.7067,-1.6736,-1.6424,-1.6111,-1.5891,-1.5891,-1.5952,-1.6145,-1.6181,-1.6254,-1.6465,-1.6495,-1.6592,-1.6851,-1.6893,-1.702,-1.7346,-1.7382,-1.7412,-1.7361,-1.7367,-1.725,-1.6903,-1.679,-1.6554,-1.6087,-1.5968,-1.5844,-1.5601,-1.5601,-1.5601,-1.5601,-1.5601,-1.5601,-1.5601,-1.5601,-1.5477,0.0,0.0,0.0,0.0,0.0,0.0,0.0,0.0,0.0,-1.0502,-1.0558,-1.0587,-1.1279,-1.1422,-1.1396,-1.1285,-1.1319,-1.1319,-1.1312,-1.1331,-1.1621,-1.24,-1.2968,-1.3395,-1.3559,-1.409,-1.4342,-1.4073,-1.384,-1.3814,-1.408,-1.3668,-1.3643,-1.4086,-1.3834,-1.3821,-1.4093,-1.4728,-1.5244,-1.5805,-1.5818,-1.5832,-1.5832,-1.5832,-1.5838,-1.5852,-1.5852,-1.5858,-1.5872,-1.5858,-1.5852,-1.5852,-1.5838,-1.6005,-1.6253,-1.6266,-1.6633,-1.7088,-1.682,-1.7101,-1.7535,-1.7261,-1.7361,-1.7582,-1.7582,-1.7582,-1.7582,-1.7582,-1.7582,-1.7582,-1.7582,-1.7582,-1.7582,-1.7582,-1.7378,-1.7067,-1.643,-1.6111,-1.5891,-1.5891,-1.5891,-1.5891,-1.591,-1.591,-1.5916,-1.5928,-1.5934,-1.6024,-1.629,-1.6338,-1.6549,-1.7056,-1.7111,-1.7098,-1.7003,-1.7026,-1.6903,-1.6537,-1.6312,-1.6087,-1.6087,-1.5839,-1.5601,-1.5601,-1.5601,-1.5601,-1.5601,-1.5601,-1.5601,-1.5601,-1.5601,-1.5477,-0.436,0.0,0.0,0.0,0.0,0.0,0.0,-0.8833,-0.9362,-1.0238,-1.0393,-1.0601,-1.1411,-1.1388,-1.1211,-1.1318,-1.1235,-1.1235,-1.1375,-1.1462,-1.1657,-1.2098,-1.2705,-1.314,-1.3347,-1.3967,-1.4357,-1.4287,-1.4198,-1.4166,-1.4185,-1.3931,-1.3765,-1.3948,-1.4137,-1.4409,-1.4865,-1.5271,-1.5718,-1.6009,-1.6009,-1.6009,-1.6009,-1.6009,-1.5899,-1.5734,-1.6133,-1.6109,-1.5832,-1.5832,-1.5832,-1.5832,-1.5832,-1.5994,-1.6286,-1.6286,-1.6758,-1.7351,-1.7241,-1.7503,-1.7891,-1.7782,-1.7711,-1.7582,-1.7582,-1.7582,-1.7582,-1.7582,-1.7582,-1.7582,-1.7582,-1.7582,-1.7477,-1.7153,-1.6948,-1.6743,-1.6211,-1.5998,-1.5891,-1.5891,-1.5891,-1.5891,-1.5891,-1.5891,-1.5891,-1.5891,-1.5891,-1.5982,-1.6247,-1.6284,-1.6435,-1.6803,-1.6839,-1.6881,-1.6864,-1.6783,-1.6646,-1.6297,-1.5954,-1.572,-1.5498,-1.5375,-1.5375,-1.5375,-1.5521,-1.5601,-1.5601,-1.5601,-1.5601,-1.5601,-1.5601,-1.5359,-0.4063,-0.4389,0.0,0.0,0.0,0.0,0.0,0.0,-0.8824,-0.9847,-1.0126,-1.047,-1.1221,-1.1195,-1.1162,-1.1397,-1.1344,-1.1276,-1.1411,-1.1518,-1.1713,-1.2056,-1.2592,-1.3016,-1.326,-1.3791,-1.4128,-1.4166,-1.4253,0.0,-1.4132,-1.4165,-1.42,-1.42,-1.4518,-1.5,-1.5473,-1.5707,-1.5998,-1.6274,-1.6169,-1.612,-1.612,-1.612,-1.5952,-1.5596,-1.6316,-1.6337,-1.5873,-1.5974,-1.6116,-1.6116,-1.6116,-1.6211,-1.6312,-1.6312,-1.6718,-1.7351,-1.7351,-1.7656,-1.797,-1.797,-1.7928,-1.7694,-1.7694,-1.7687,-1.7582,-1.7582,-1.7582,-1.7582,-1.7582,-1.7477,-1.7378,-1.6836,-1.6624,-1.6418,-1.5998,-1.5891,-1.5891,-1.5891,-1.5891,-1.5891,-1.5891,-1.5891,-1.5891,-1.5891,-1.5891,-1.5952,-1.6127,-1.6151,-1.6254,-1.6426,-1.6561,-1.6486,-1.6458,-1.6392,-1.6413,-1.616,-1.5935,-1.5704,-1.5362,-1.5362,-1.5324,-1.5128,-1.5278,-1.5397,-1.5483,-1.5564,-1.5601,-1.5601,-1.5601,-1.524,0.0,0.0,0.0,0.0,0.0,0.0,-0.7442,0.0,-0.7848,-0.9272,-0.9813,-1.0177,-1.0692,-1.0944,-1.1199,-1.1437,-1.1493,-1.15,-1.15,-1.1514,-1.1738,-1.2333,-1.2683,-1.2991,-1.3216,-1.3607,-1.3789,-1.3803,-1.4083,-1.4125,-1.3831,-1.4391,-1.4727,-1.4748,-1.5049,-1.5364,-1.5679,-1.598,-1.6288,-1.6581,-1.626,-1.6106,-1.6106,-1.6099,-1.5924,-1.5658,-1.6288,-1.6378,-1.612,-1.6448,-1.6588,-1.6588,-1.6588,-1.6588,-1.6588,-1.6588,-1.6777,-1.7036,-1.7036,-1.7449,-1.7967,-1.7967,-1.7977,-1.8016,-1.8016,-1.7799,-1.7582,-1.7582,-1.7582,-1.7582,-1.7582,-1.7384,-1.7173,-1.6842,-1.653,-1.6217,-1.5998,-1.5891,-1.5891,-1.5891,-1.5891,-1.5891,-1.5891,-1.5891,-1.5891,-1.5891,-1.5891,-1.5891,-1.5891,-1.5891,-1.5887,-1.5932,-1.6168,-1.6154,-1.5844,-1.5991,-1.6107,-1.6126,-1.6028,-1.5913,-1.5676,-1.5676,-1.5451,-1.488,-1.488,-1.5004,-1.5241,-1.5467,-1.558,-1.5585,-1.5591,-1.5353,-0.359,0.0,0.0,0.0,0.0,0.0,0.0,0.0,-0.6932,-0.8749,-0.899,-0.9299,-1.0415,-1.0682,-1.0842,-1.1282,-1.1288,-1.1185,-1.1185,-1.1374,-1.1577,-1.1745,-1.2107,-1.2487,-1.2791,-1.3264,-1.3626,0.0,-1.4033,-1.4156,-1.4301,-1.4685,-1.4954,-1.5056,-1.5552,-1.596,-1.628,-1.6593,-1.6879,-1.7138,-1.6679,-1.6417,-1.6313,-1.6257,-1.59,-1.5468,-1.6183,-1.6284,-1.5972,-1.6465,-1.6588,-1.6588,-1.6588,-1.6683,-1.6885,-1.6885,-1.7165,-1.7623,-1.7623,-1.7853,-1.8288,-1.8288,-1.8288,-1.8325,-1.8325,-1.8115,-1.7911,-1.7911,-1.7799,-1.7582,-1.7582,-1.7582,-1.7378,-1.7173,-1.6961,-1.6855,-1.6324,-1.6217,-1.6105,-1.5891,-1.5891,-1.5891,-1.5891,-1.5891,-1.5891,-1.5891,-1.5891,-1.5891,-1.5891,-1.5891,-1.5815,-1.5576,-1.5695,-1.5719,-1.5573,-1.5632,-1.5655,-1.5612,-1.5406,-1.5183,-1.4841,-1.4841,-1.4809,-1.4632,-1.4794,-1.4918,-1.4982,-1.5047,-1.5176,-1.5348,-1.5109,-1.4964,-0.4096,-0.4234,-0.4552,-0.4794,0.0,0.0,-0.6008,-0.6046,-0.6331,0.0,-0.8494,-0.882,-0.985,-1.0317,-1.0624,-1.0932,-1.1005,-1.1199,-1.1461,-1.1594,-1.1689,-1.1891,-1.2138,-1.2378,-1.2629,-1.3042,-1.3364,-1.3543,-1.377,-1.4184,-1.4791,-1.4952,-1.5198,-1.5587,-1.5922,-1.6242,-1.657,-1.6798,-1.7115,-1.7426,-1.7093,-1.6862,-1.6712,-1.6605,-1.6274,-1.571,-1.6357,-1.6374,-1.6043,-1.6472,-1.6643,-1.6779,-1.6814,-1.6965,-1.716,-1.716,-1.7363,-1.7611,-1.7611,-1.7858,-1.8217,-1.8347,-1.8311,-1.8196,-1.8345,-1.813,-1.7755,-1.7871,-1.7607,-1.7402,-1.7402,-1.7211,-1.7021,-1.6821,-1.6717,-1.6607,-1.6191,-1.6181,-1.6082,-1.5974,-1.5891,-1.5891,-1.5891,-1.5791,-1.5684,-1.5684,-1.5577,-1.5571,-1.5571,-1.5571,-1.547,-1.5148,-1.5261,-1.5261,-1.5148,-1.5172,-1.5298,-1.5401,-1.5302,-1.4977,-1.4751,-1.4751,-1.4597,-1.4396,-1.4525,-1.4643,-1.474,-1.4939,-1.516,-1.5397,-1.5162,-1.5114,-0.4932,-0.4927,-0.5252,-0.5808,-0.5375,0.0,-0.6431,-0.6203,-0.6075,0.0,-0.7953,-0.8374,-0.8947,-0.969,-1.0181,-1.0219,-1.0568,-1.1142,-1.1852,-1.1828,-1.1872,-1.2292,-1.2202,-1.2258,-1.2623,-1.2772,-1.2871,-1.2895,-1.3457,-1.4179,-1.5178,-1.5139,-1.5354,-1.5957,-1.6163,-1.6324,-1.6615,-1.6802,-1.7135,-1.7517,-1.7273,-1.7048,-1.7018,-1.706,-1.6637,-1.6125,-1.6635,-1.6632,-1.6204,-1.6533,-1.6714,-1.6879,-1.7165,-1.7296,-1.7326,-1.7326,-1.7326,-1.7326,-1.7326,-1.7545,-1.786,-1.8152,-1.8079,-1.7925,-1.8259,-1.7929,-1.7469,-1.7519,-1.7301,-1.7101,-1.7101,-1.6711,-1.6319,-1.6319,-1.6111,-1.6004,-1.591,-1.5928,-1.5989,-1.5907,-1.5867,-1.5891,-1.5891,-1.5684,-1.5589,-1.5589,-1.5256,-1.5035,-1.5041,-1.5041,-1.4934,-1.46,-1.4821,-1.4821,-1.46,-1.4821,-1.5024,-1.5349,-1.5257,-1.5147,-1.4927,-1.4927,-1.4724,-1.4196,-1.4196,-1.432,-1.4579,-1.4977,-1.5305,-1.5558,-1.5531,-1.5548,-0.6562,-0.6403,-0.6403,-0.6254,-0.661,0.0,-0.6426,-0.6316,-0.6449,0.0,-0.6606,-0.66,-0.7462,-0.7933,-0.8288,-0.8594,-0.9399,-1.0269,-1.1069,-1.1199,-1.1163,-1.129,-1.1297,-1.1328,-1.158,-1.1943,-1.2271,-1.2411,-1.3355,-1.4205,-1.4736,-1.5119,-1.5289,-1.5255,-1.5947,-1.6217,-1.5928,-1.6439,-1.6677,-1.6647,-1.668,-1.6579,-1.6402,-1.6469,-1.636,-1.6095,-1.6224,-1.6247,-1.6126,-1.6282,-1.6507,-1.6956,-1.6923,-1.7106,-1.7326,-1.7326,-1.7326,-1.7326,-1.7326,-1.7545,-1.7823,-1.7606,-1.7709,-1.7839,-1.776,-1.7452,-1.7116,-1.6968,-1.684,-1.6794,-1.6794,-1.6754,-1.6607,-1.6607,-1.6607,-1.6506,-1.6319,-1.6228,-1.6135,-1.5989,-1.5852,-1.5891,-1.5891,-1.5891,-1.5785,-1.5785,-1.5785,-1.5684,-1.5482,-1.5374,-1.5154,-1.4713,-1.4606,-1.4713,-1.4606,-1.4606,-1.473,-1.478,-1.478,-1.4678,-1.4364,-1.4369,-1.4348,-1.4196,-1.4196,-1.4401,-1.4815,-1.4719,-1.4896,-1.5316,-1.5112,-1.4998,-0.7949,-0.7698,-0.7768,-0.7588,-0.7638,0.0,0.0,-0.7,-0.6768,-0.7504,-0.6844,-0.6432,-0.7432,-0.7692,-0.7858,-0.8103,-0.8985,-0.9755,-1.0011,-1.0701,-1.1118,-1.1051,-1.1191,-1.123,-1.1107,-1.161,-1.2059,-1.2397,-1.3271,-1.3933,-1.4186,-1.4828,-1.5103,-1.5124,-1.5638,-1.5828,-1.5739,-1.599,-1.6322,-1.6647,-1.6745,-1.6661,-1.6491,-1.675,-1.6562,-1.6013,-1.6257,-1.6252,-1.6102,-1.6179,-1.6286,-1.6566,-1.6639,-1.6806,-1.7091,-1.7091,-1.7194,-1.7333,-1.7153,-1.7261,-1.7421,-1.7291,-1.7244,-1.7308,-1.7329,-1.7114,-1.6914,-1.6707,-1.66,-1.6486,-1.6486,-1.638,-1.6266,-1.6266,-1.6266,-1.6168,-1.6084,-1.611,-1.6055,-1.589,-1.5933,-1.5952,-1.5867,-1.5791,-1.5684,-1.5684,-1.5464,-1.525,-1.5041,-1.4939,-1.473,-1.4396,-1.4401,-1.4401,-1.4401,-1.4401,-1.4401,-1.4401,-1.4401,-1.4293,-1.4196,-1.4196,-1.4196,-1.4196,-1.4196,-1.4363,-1.4708,-1.4476,-1.4729,-1.5424,-1.53,-1.5136,-0.9308,-0.9028,-0.914,-0.8997,-0.8709,-0.8528,0.0,0.0,0.0,-0.8013,-0.7254,-0.6663,-0.7515,0.0,0.0,-0.7809,0.0,0.0,0.0,-0.9994,0.0,-1.0717,-1.0953,-1.1056,-1.0709,-1.1161,-1.1768,-1.2437,-1.2861,-1.3281,-1.3734,-1.4258,-1.4727,-1.4936,-1.5127,-1.5327,-1.5513,-1.5487,-1.5855,-1.6637,-1.6721,-1.6656,-1.6569,-1.7008,-1.6743,-1.6006,-1.6506,-1.6492,-1.6162,-1.6087,-1.6073,-1.6082,-1.6242,-1.6477,-1.6769,-1.6919,-1.7018,-1.7152,-1.7044,-1.6979,-1.7022,-1.6985,-1.6696,-1.649,-1.6792,-1.6738,-1.654,-1.654,-1.6366,-1.6186,-1.6186,-1.6012,-1.5825,-1.5737,-1.573,-1.5737,-1.5825,-1.5783,-1.5763,-1.5782,-1.5794,-1.5799,-1.5843,-1.5684,-1.5583,-1.5583,-1.5148,-1.4713,-1.4713,-1.4401,-1.4299,-1.4196,-1.4196,-1.4196,-1.4196,-1.4196,-1.4196,-1.4196,-1.4196,-1.4196,-1.4196,-1.4196,-1.4196,-1.4196,-1.4196,-1.4309,-1.4536,-1.4352,-1.467,-1.5456,-1.5413,-1.5296,-1.0867,-1.0556,-1.0334,-0.9675,-1.0197,-1.0471,-0.8759,0.0,-0.8349,-0.6926,0.0,-0.6197,-0.6372,0.0,0.0,-0.6802,-0.7449,0.0,-0.7792,-0.8717,-0.9391,-0.9322,-0.9668,-0.9872,-0.9823,-0.9872,-1.0588,-1.2298,-1.1817,-1.2084,-1.3452,-1.3502,-1.3614,-1.3953,-1.4411,-1.4631,-1.4444,-1.514,-1.5481,-1.5779,-1.594,-1.6004,-1.5981,-1.6561,-1.6579,-1.623,-1.6498,-1.6566,-1.6312,-1.6162,-1.5937,-1.574,-1.5918,-1.6155,-1.6455,-1.6748,-1.6879,-1.6952,-1.6973,-1.6979,-1.6892,-1.6448,-1.615,-1.5933,-1.5912,-1.5932,-1.5925,-1.5925,-1.5905,-1.5783,-1.5688,-1.5662,-1.573,-1.554,-1.554,-1.554,-1.573,-1.548,-1.53,-1.5534,-1.5562,-1.5584,-1.5843,-1.5891,-1.5891,-1.5891,-1.5583,-1.5261,-1.5035,-1.4713,-1.4504,-1.4196,-1.4196,-1.4196,-1.4196,-1.4196,-1.4196,-1.4196,-1.4196,-1.4196,-1.4196,-1.4196,-1.4196,-1.4196,-1.4196,-1.4309,-1.4536,-1.4509,-1.4659,-1.4961,-1.4751,-1.4547,-1.1359,-1.1372,-1.144,-1.0661,-1.0836,-1.0924,-0.983,-0.9029,-0.8445,-0.8108,0.0,0.0,0.0,0.0,0.0,0.0,-0.7364,-0.7601,0.0,0.0,-0.8282,-0.86,0.0,0.0,-0.9628,-0.9666,-1.009,-1.122,-1.1151,-1.1449,-1.2233,-1.2874,-1.3285,-1.3298,-1.3998,-1.434,-1.4331,-1.4633,-1.4996,-1.5388,-1.5465,-1.5652,-1.6006,-1.6269,-1.6349,-1.6222,-1.6579,-1.6566,-1.6394,-1.6319,-1.6162,-1.5922,-1.5814,-1.5904,-1.6118,-1.6257,-1.6426,-1.6623,-1.6685,-1.6608,-1.6443,-1.6062,-1.5812,-1.5611,-1.5778,-1.5832,-1.5832,-1.5832,-1.5832,-1.5737,-1.554,-1.554,-1.554,-1.5356,-1.5267,-1.5267,-1.5363,-1.5268,-1.5105,-1.5262,-1.5283,-1.5371,-1.559,-1.5789,-1.5891,-1.5891,-1.547,-1.5261,-1.5261,-1.4928,-1.4606,-1.4611,-1.4636,-1.4554,-1.4412,-1.4418,-1.4336,-1.4202,-1.4196,-1.4196,-1.4196,-1.4196,-1.4196,-1.4196,-1.4196,-1.4245,-1.4336,-1.4336,-1.439,-1.4487,-1.4659,-1.4569,-1.2026,-1.2304,-1.2483,-1.1361,-1.1196,-1.1087,-1.0215,-0.939,-0.8876,-0.9046,-0.8201,0.0,0.0,0.0,-0.7323,-0.742,0.0,-0.7697,-0.6897,-0.7066,-0.7446,-0.7849,-0.8303,0.0,0.0,-0.9174,-0.9441,-1.0267,-1.0322,-1.0595,-1.1241,-1.2128,-1.2664,-1.2714,-1.3459,-1.3893,-1.4089,-1.4391,-1.4787,-1.5193,-1.5282,-1.5458,-1.5859,-1.5982,-1.6063,-1.6079,-1.6436,-1.6472,-1.6394,-1.6319,-1.6154,-1.6004,-1.5741,-1.5646,-1.5796,-1.5884,-1.6052,-1.6294,-1.6353,-1.6189,-1.5853,-1.5617,-1.5504,-1.5424,-1.5551,-1.5705,-1.5812,-1.5732,-1.5765,-1.573,-1.5452,-1.5452,-1.5452,-1.5077,-1.4987,-1.4987,-1.5083,-1.4987,-1.4942,-1.4942,-1.5041,-1.5121,-1.5311,-1.5559,-1.5807,-1.5879,-1.547,-1.5261,-1.5482,-1.5041,-1.4713,-1.4928,-1.4881,-1.4833,-1.4608,-1.4543,-1.4466,-1.4299,-1.4288,-1.4261,-1.4196,-1.4196,-1.4196,-1.4196,-1.4196,-1.4196,-1.4196,-1.4196,-1.4196,-1.4202,-1.4541,-1.4585,-1.3162,-1.3547,-1.3533,-1.1426,-1.1377,-1.1345,-0.9239,-0.9606,-1.0108,-0.8961,-0.963,-1.0356,-0.9989,-0.9331,-0.8847,-0.8838,-0.8469,0.0,0.0,-0.7014,-0.698,-0.6859,-0.7608,-0.8299,0.0,-0.7983,-0.8139,-0.9809,-0.9067,-0.931,-1.0945,-1.1064,-1.1353,-1.199,-1.2805,-1.3205,-1.3222,-1.4354,-1.5022,-1.5191,-1.5373,-1.5462,-1.5486,-1.5691,-1.5697,-1.5713,-1.6071,-1.6251,-1.6394,-1.6162,-1.5914,-1.565,-1.5506,-1.5431,-1.5482,-1.5796,-1.5921,-1.5893,-1.603,-1.5693,-1.5252,-1.508,-1.5177,-1.5344,-1.5077,-1.5384,-1.5772,-1.5491,-1.5611,-1.5737,-1.5267,-1.5267,-1.535,-1.4879,-1.4694,-1.479,-1.5083,-1.4688,-1.4394,-1.47,-1.4911,-1.5097,-1.5115,-1.5365,-1.5596,-1.5849,-1.569,-1.5482,-1.5482,-1.5154,-1.4928,-1.4606,-1.4611,-1.4603,-1.4503,-1.453,-1.453,-1.4525,-1.4525,-1.4422,-1.4202,-1.4196,-1.4196,-1.4196,-1.4196,-1.4196,-1.4196,-1.4196,-1.4196,-1.4196,-1.4207,-1.4218,0.0,0.0,-1.3931,-1.2335,-1.1854,-1.1371,-0.9842,-0.9744,-0.9763,-0.8999,-0.9609,-1.013,-0.9758,-0.946,-0.9199,-0.8946,-0.8532,-0.8002,0.0,-0.687,-0.6856,-0.7168,-0.753,-0.7805,-0.7971,0.0,-0.7956,-0.9032,-0.8826,-0.9125,-1.0215,-1.0876,-1.1361,-1.1601,-1.2312,-1.2848,-1.3224,-1.3601,-1.4155,-1.4874,-1.4928,-1.5232,-1.5692,-1.5583,-1.5694,-1.592,-1.5886,-1.592,-1.5953,-1.5874,-1.5785,-1.564,-1.534,-1.516,-1.5145,-1.5474,-1.5599,-1.5551,-1.5691,-1.5451,-1.5223,-1.5164,-1.4986,-1.4836,-1.4744,-1.4819,-1.495,-1.4858,-1.4943,-1.5065,-1.4803,-1.4842,-1.4879,-1.449,-1.44,-1.449,-1.4592,-1.4394,-1.4298,-1.4394,-1.4467,-1.4588,-1.4777,-1.4859,-1.5131,-1.578,-1.5683,-1.5589,-1.5791,-1.547,-1.5261,-1.5261,-1.5184,-1.5102,-1.4867,-1.4793,-1.4702,-1.4546,-1.4536,-1.4433,-1.4202,-1.4196,-1.4196,-1.4196,-1.4196,-1.4196,-1.4196,-1.4196,-1.4196,-1.4196,-1.4196,-1.4196,-1.4369,-1.4642,0.0,-1.3215,-1.2742,-1.2187,-1.0714,-1.0648,-1.0711,-1.0104,-1.0597,-1.1131,-1.1047,-1.0625,-1.0155,-0.9603,-0.9023,-0.8289,0.0,-0.6932,-0.7007,-0.7384,-0.7433,-0.758,-0.7933,-0.7517,-0.7619,-0.8549,-0.8326,-0.8567,0.0,-1.0268,-1.0819,-1.1138,-1.18,-1.235,-1.2746,-1.3263,-1.3772,-1.4304,-1.4698,-1.5063,-1.545,-1.5429,-1.5536,-1.5802,-1.5726,-1.5639,-1.5674,-1.5605,-1.5514,-1.5377,-1.5086,-1.4896,-1.4816,-1.5138,-1.5328,-1.5376,-1.5227,-1.512,-1.4984,-1.4939,-1.4677,-1.4449,-1.4441,-1.4523,-1.4571,-1.4556,-1.4624,-1.4644,-1.4657,-1.4678,-1.4592,-1.4394,-1.4298,-1.4298,-1.4298,-1.4226,-1.4159,-1.4159,-1.4254,-1.4315,-1.4497,-1.4686,-1.5089,-1.5634,-1.5656,-1.5583,-1.5879,-1.569,-1.5482,-1.5369,-1.5184,-1.5021,-1.4983,-1.4993,-1.495,-1.4799,-1.4708,-1.4557,-1.4326,-1.4239,-1.4196,-1.4196,-1.4196,-1.4234,-1.4315,-1.4315,-1.4358,-1.4439,-1.4439,-1.4396]},{"header":{"parameterUnit":"m.s-1","parameterCategory":1,"la1":30.6,"la2":29.2853,"lo1":-89.7004,"lo2":-87.6739,"dy":0.0162,"dx":0.0183,"nx":112,"ny":82,"refTime":"2023-08-04T12:00:00:Z","depth":0,"parameterNumber":3,"parameterNumberName":"V-component_of_WINDS"},"data":[0.0,0.0,0.0,0.0,0.0,0.0,0.0,0.0,0.0,0.0,0.0,0.0,0.0,0.0,0.0,0.0,0.0,0.0,0.0,0.0,0.0,0.0,0.0,0.0,0.0,0.0,0.0,0.0,0.0,0.0,0.0,0.0,0.0,0.0,0.0,0.0,0.0,0.0,0.0,0.0,0.0,0.0,0.0,0.0,0.0,0.0,0.0,0.0,0.0,0.0,0.0,0.0,0.0,0.0,0.0,0.0,0.0,0.0,0.0,0.0,0.0,0.0,0.0,0.0,0.0,0.0,0.0,0.0,0.0,0.0,0.0,0.0,0.0,0.0,0.0,0.0,0.0,0.0,0.0,0.0,0.0,0.0,0.0,0.0,0.0,0.0,0.0,0.0,0.0,0.0,-1.4652,-1.783,-2.1532,-2.3852,-2.406,-2.4574,-2.3564,-2.0469,0.0,0.0,0.0,0.0,0.0,0.0,0.0,0.0,0.0,0.0,0.0,0.0,0.0,0.0,0.0,0.0,0.0,0.0,0.0,0.0,0.0,0.0,0.0,0.0,0.0,0.0,0.0,0.0,0.0,0.0,0.0,0.0,0.0,0.0,0.0,0.0,0.0,0.0,0.0,0.0,0.0,0.0,0.0,0.0,0.0,0.0,0.0,0.0,0.0,0.0,0.0,0.0,0.0,0.0,0.0,0.0,0.0,0.0,0.0,0.0,0.0,0.0,0.0,0.0,0.0,0.0,0.0,0.0,0.0,0.0,0.0,0.0,0.0,0.0,0.0,0.0,0.0,0.0,0.0,0.0,0.0,0.0,0.0,0.0,0.0,0.0,0.0,0.0,0.0,0.0,0.0,0.0,0.0,0.0,0.0,0.0,0.0,0.0,0.0,0.0,0.0,0.0,0.0,0.0,-1.4733,-2.0161,-2.2483,-2.3952,-2.4758,-2.4265,-2.3088,-2.1172,0.0,0.0,0.0,0.0,0.0,0.0,0.0,0.0,0.0,0.0,0.0,0.0,0.0,0.0,0.0,0.0,0.0,0.0,0.0,0.0,0.0,0.0,0.0,0.0,0.0,0.0,0.0,0.0,0.0,0.0,0.0,0.0,0.0,0.0,0.0,0.0,0.0,0.0,0.0,0.0,0.0,0.0,0.0,0.0,0.0,0.0,0.0,0.0,0.0,0.0,0.0,0.0,0.0,0.0,0.0,0.0,0.0,0.0,0.0,0.0,0.0,0.0,0.0,0.0,0.0,0.0,0.0,0.0,0.0,0.0,0.0,0.0,0.0,0.0,0.0,0.0,0.0,0.0,0.0,0.0,0.0,0.0,0.0,0.0,0.0,0.0,0.0,0.0,0.0,0.0,0.0,0.0,0.0,0.0,0.0,0.0,0.0,0.0,0.0,0.0,0.0,0.0,0.0,-1.4581,-1.7472,-2.1517,-2.343,-2.4574,-2.4966,-2.467,-2.3531,-2.1384,-1.8992,0.0,0.0,0.0,0.0,0.0,0.0,0.0,0.0,0.0,0.0,0.0,0.0,0.0,0.0,0.0,0.0,0.0,0.0,0.0,0.0,0.0,0.0,0.0,0.0,0.0,0.0,0.0,0.0,0.0,0.0,0.0,0.0,0.0,0.0,0.0,0.0,0.0,0.0,0.0,0.0,0.0,0.0,0.0,0.0,0.0,0.0,0.0,0.0,0.0,0.0,0.0,0.0,0.0,0.0,0.0,0.0,0.0,0.0,0.0,0.0,0.0,0.0,0.0,0.0,0.0,0.0,0.0,0.0,0.0,0.0,0.0,0.0,0.0,0.0,0.0,0.0,0.0,0.0,0.0,0.0,0.0,0.0,0.0,0.0,0.0,0.0,0.0,0.0,0.0,0.0,0.0,0.0,0.0,0.0,0.0,0.0,0.0,0.0,0.0,0.0,0.0,0.0,-1.7738,-1.9981,-2.227,-2.4049,-2.507,-2.5038,-2.4879,-2.3883,-2.1733,-1.8878,0.0,0.0,0.0,0.0,0.0,0.0,0.0,0.0,0.0,0.0,0.0,0.0,0.0,0.0,0.0,0.0,0.0,0.0,0.0,0.0,0.0,0.0,0.0,0.0,0.0,0.0,0.0,0.0,0.0,0.0,0.0,0.0,0.0,0.0,0.0,0.0,0.0,0.0,0.0,0.0,0.0,0.0,0.0,0.0,0.0,0.0,0.0,0.0,0.0,0.0,0.0,0.0,0.0,0.0,0.0,0.0,0.0,0.0,0.0,0.0,0.0,0.0,0.0,0.0,0.0,0.0,0.0,0.0,0.0,0.0,0.0,0.0,0.0,0.0,0.0,0.0,0.0,0.0,0.0,0.0,0.0,0.0,0.0,0.0,0.0,0.0,0.0,0.0,0.0,0.0,0.0,0.0,0.0,0.0,0.0,0.0,0.0,0.0,0.0,0.0,0.0,0.0,-1.7919,-2.0598,-2.2399,-2.4049,-2.5038,-2.5088,-2.4352,-2.3503,-2.257,-1.8659,0.0,0.0,0.0,0.0,0.0,0.0,0.0,0.0,0.0,0.0,0.0,0.0,0.0,0.0,0.0,0.0,0.0,0.0,0.0,0.0,0.0,0.0,0.0,0.0,0.0,0.0,0.0,0.0,0.0,0.0,0.0,0.0,0.0,0.0,0.0,0.0,0.0,0.0,0.0,0.0,0.0,0.0,0.0,0.0,0.0,0.0,0.0,0.0,0.0,0.0,0.0,0.0,0.0,0.0,0.0,0.0,0.0,0.0,0.0,0.0,0.0,0.0,0.0,0.0,0.0,0.0,0.0,0.0,0.0,0.0,0.0,0.0,0.0,0.0,0.0,0.0,0.0,0.0,0.0,0.0,0.0,0.0,0.0,0.0,0.0,0.0,0.0,0.0,0.0,0.0,0.0,0.0,0.0,0.0,0.0,0.0,0.0,0.0,0.0,0.0,0.0,0.0,-1.7425,-2.0045,-2.2303,-2.4005,-2.5006,-2.5051,-2.4765,-2.4048,-2.2699,0.0,0.0,0.0,0.0,0.0,0.0,0.0,0.0,0.0,0.0,0.0,0.0,0.0,0.0,0.0,0.0,0.0,0.0,0.0,0.0,0.0,0.0,0.0,0.0,0.0,0.0,0.0,0.0,0.0,0.0,0.0,0.0,0.0,0.0,0.0,0.0,0.0,0.0,0.0,0.0,0.0,0.0,0.0,0.0,0.0,0.0,0.0,0.0,0.0,0.0,0.0,0.0,0.0,0.0,0.0,0.0,0.0,0.0,0.0,0.0,0.0,0.0,0.0,0.0,0.0,0.0,0.0,0.0,0.0,0.0,0.0,0.0,0.0,0.0,0.0,0.0,0.0,0.0,0.0,0.0,0.0,0.0,0.0,0.0,0.0,0.0,0.0,0.0,0.0,0.0,0.0,0.0,0.0,0.0,0.0,0.0,0.0,0.0,0.0,0.0,0.0,0.0,-1.4482,-1.7615,-2.031,-2.2322,-2.4024,-2.5012,-2.5025,-2.4822,-2.4074,-2.2669,0.0,0.0,0.0,0.0,0.0,0.0,0.0,0.0,0.0,0.0,0.0,0.0,0.0,0.0,0.0,0.0,0.0,0.0,0.0,0.0,0.0,0.0,0.0,0.0,0.0,0.0,0.0,0.0,0.0,0.0,0.0,0.0,0.0,0.0,0.0,0.0,0.0,0.0,0.0,0.0,0.0,0.0,0.0,0.0,0.0,0.0,0.0,0.0,0.0,0.0,0.0,0.0,0.0,0.0,0.0,0.0,0.0,0.0,0.0,0.0,0.0,0.0,0.0,0.0,0.0,0.0,0.0,0.0,0.0,0.0,0.0,0.0,0.0,0.0,0.0,0.0,0.0,0.0,0.0,0.0,0.0,0.0,0.0,0.0,0.0,0.0,0.0,0.0,0.0,0.0,0.0,0.0,0.0,0.0,0.0,0.0,0.0,0.0,0.0,0.0,0.0,0.0,-1.468,-1.8688,-2.1624,-2.2513,-2.4049,-2.5044,-2.512,-2.434,-2.3453,0.0,0.0,0.0,0.0,0.0,0.0,0.0,0.0,0.0,0.0,0.0,0.0,0.0,0.0,0.0,0.0,0.0,0.0,0.0,0.0,0.0,0.0,0.0,0.0,0.0,0.0,0.0,0.0,0.0,0.0,0.0,0.0,0.0,0.0,0.0,0.0,0.0,0.0,0.0,0.0,0.0,0.0,0.0,0.0,0.0,0.0,0.0,0.0,0.0,0.0,0.0,0.0,0.0,0.0,0.0,0.0,0.0,0.0,0.0,0.0,0.0,0.0,0.0,0.0,0.0,0.0,0.0,0.0,0.0,0.0,0.0,0.0,0.0,0.0,0.0,0.0,0.0,0.0,0.0,0.0,0.0,0.0,0.0,0.0,0.0,0.0,0.0,0.0,0.0,0.0,0.0,0.0,0.0,0.0,0.0,0.0,0.0,0.0,0.0,0.0,0.0,0.0,0.0,-1.5367,-1.8488,-2.117,-2.3232,-2.4924,-2.5926,-2.5939,-2.6269,-2.5596,-2.3564,0.0,0.0,0.0,0.0,0.0,0.0,0.0,0.0,0.0,0.0,0.0,0.0,0.0,0.0,0.0,0.0,0.0,0.0,0.0,0.0,0.0,0.0,0.0,0.0,0.0,0.0,0.0,0.0,0.0,0.0,0.0,0.0,0.0,0.0,0.0,0.0,0.0,0.0,0.0,0.0,0.0,0.0,0.0,0.0,0.0,0.0,0.0,0.0,0.0,0.0,0.0,0.0,0.0,0.0,0.0,0.0,0.0,0.0,0.0,0.0,0.0,0.0,0.0,0.0,0.0,0.0,0.0,0.0,0.0,0.0,0.0,0.0,0.0,0.0,0.0,0.0,0.0,0.0,0.0,0.0,0.0,0.0,0.0,0.0,0.0,0.0,0.0,0.0,0.0,0.0,0.0,0.0,0.0,0.0,0.0,0.0,0.0,0.0,0.0,0.0,0.0,0.0,-1.5798,-1.905,-2.1888,-2.4117,-2.552,-2.6434,-2.679,-2.7292,-2.6644,-2.4429,0.0,0.0,0.0,0.0,0.0,0.0,0.0,0.0,0.0,0.0,0.0,0.0,0.0,0.0,0.0,0.0,0.0,0.0,0.0,0.0,0.0,0.0,0.0,0.0,0.0,0.0,0.0,0.0,0.0,0.0,0.0,0.0,0.0,0.0,0.0,0.0,0.0,0.0,0.0,0.0,0.0,0.0,0.0,0.0,0.0,0.0,0.0,0.0,0.0,0.0,0.0,0.0,0.0,0.0,0.0,0.0,0.0,0.0,0.0,0.0,0.0,0.0,0.0,0.0,0.0,0.0,0.0,0.0,0.0,0.0,0.0,0.0,0.0,0.0,0.0,0.0,0.0,0.0,0.0,0.0,0.0,0.0,0.0,0.0,0.0,0.0,0.0,0.0,0.0,0.0,0.0,0.0,0.0,0.0,0.0,0.0,0.0,0.0,0.0,0.0,0.0,0.0,-1.6075,-1.9964,-2.3179,-2.4989,-2.592,-2.6732,-2.7535,-2.7744,-2.7089,-2.5348,0.0,0.0,0.0,0.0,0.0,0.0,0.0,0.0,0.0,0.0,0.0,0.0,0.0,0.0,0.0,0.0,0.0,0.0,0.0,0.0,0.0,0.0,0.0,0.0,0.0,0.0,0.0,0.0,0.0,0.0,0.0,0.0,0.0,0.0,0.0,0.0,0.0,0.0,0.0,0.0,0.0,0.0,0.0,0.0,0.0,0.0,0.0,0.0,0.0,0.0,0.0,0.0,0.0,0.0,0.0,0.0,0.0,0.0,0.0,0.0,-1.4967,0.0,0.0,0.0,0.0,0.0,0.0,0.0,0.0,0.0,0.0,0.0,0.0,0.0,0.0,0.0,0.0,0.0,0.0,0.0,0.0,0.0,0.0,0.0,0.0,0.0,0.0,0.0,0.0,0.0,0.0,0.0,0.0,0.0,0.0,0.0,0.0,0.0,0.0,0.0,0.0,0.0,-1.684,-1.9869,-2.255,-2.4877,-2.6448,-2.7401,-2.7573,-2.8812,-2.8836,-2.7159,-2.4557,0.0,0.0,0.0,0.0,0.0,0.0,0.0,0.0,0.0,0.0,0.0,0.0,0.0,0.0,0.0,0.0,0.0,0.0,0.0,0.0,0.0,0.0,0.0,0.0,0.0,0.0,0.0,0.0,0.0,0.0,0.0,0.0,0.0,0.0,0.0,0.0,0.0,0.0,0.0,0.0,0.0,0.0,0.0,0.0,0.0,0.0,0.0,0.0,0.0,0.0,0.0,0.0,0.0,0.0,0.0,0.0,0.0,0.0,0.0,0.0,-1.7392,0.0,0.0,0.0,0.0,0.0,0.0,0.0,0.0,0.0,0.0,0.0,0.0,0.0,0.0,0.0,0.0,0.0,0.0,0.0,0.0,0.0,0.0,0.0,0.0,0.0,0.0,0.0,0.0,0.0,0.0,0.0,0.0,0.0,0.0,0.0,0.0,0.0,0.0,0.0,0.0,-1.7723,-2.0794,-2.3561,-2.6078,-2.7478,-2.8382,-2.8809,-2.9655,-2.9589,-2.8297,-2.6269,0.0,0.0,0.0,0.0,0.0,0.0,0.0,0.0,0.0,0.0,0.0,0.0,0.0,0.0,0.0,0.0,0.0,0.0,0.0,0.0,0.0,0.0,0.0,0.0,0.0,0.0,0.0,0.0,0.0,0.0,0.0,0.0,0.0,0.0,0.0,0.0,0.0,0.0,0.0,0.0,0.0,0.0,0.0,0.0,0.0,0.0,0.0,0.0,0.0,0.0,0.0,0.0,0.0,-2.3069,-2.3936,-2.4995,-2.5447,-2.6381,-2.7443,-2.4082,-2.2621,-2.2411,-2.0084,0.0,0.0,0.0,0.0,0.0,0.0,0.0,0.0,0.0,0.0,0.0,0.0,0.0,0.0,0.0,0.0,0.0,0.0,0.0,0.0,0.0,0.0,0.0,0.0,-2.4111,-2.4418,-2.1807,0.0,0.0,0.0,0.0,0.0,0.0,0.0,0.0,0.0,0.0,0.0,-1.8913,-2.214,-2.5022,-2.7433,-2.8421,-2.9192,-2.9907,-3.0103,-2.9961,-2.9398,-2.7778,-2.5898,0.0,0.0,0.0,0.0,0.0,0.0,0.0,0.0,0.0,0.0,0.0,0.0,0.0,0.0,0.0,0.0,0.0,0.0,0.0,0.0,0.0,0.0,0.0,0.0,0.0,0.0,0.0,0.0,0.0,0.0,0.0,0.0,-1.2433,-1.4293,0.0,0.0,0.0,0.0,0.0,0.0,0.0,0.0,0.0,0.0,0.0,0.0,0.0,-2.0966,-2.1966,-2.512,-2.6467,-2.5986,-2.8948,-2.9709,-2.8606,-3.0821,-3.1927,-3.2146,-3.2293,0.0,-2.6839,-2.511,0.0,0.0,0.0,0.0,0.0,0.0,0.0,0.0,0.0,0.0,0.0,0.0,0.0,0.0,0.0,0.0,0.0,0.0,0.0,0.0,0.0,0.0,-2.8086,-2.9019,-2.9443,-2.9905,0.0,-2.6392,-2.1828,-2.0631,-1.8658,0.0,0.0,0.0,0.0,0.0,0.0,0.0,-2.0728,-2.3343,-2.5659,-2.7491,-2.8427,-2.8949,-2.9058,-2.9765,-3.0472,-3.1121,-2.9589,-2.8479,-2.8089,-2.5967,0.0,0.0,0.0,0.0,0.0,0.0,0.0,0.0,0.0,0.0,0.0,0.0,0.0,0.0,0.0,0.0,0.0,0.0,0.0,0.0,0.0,0.0,0.0,0.0,0.0,0.0,0.0,0.0,0.0,-1.1887,-1.4763,-1.6933,-1.7888,-1.8078,0.0,0.0,0.0,0.0,0.0,0.0,0.0,0.0,0.0,-2.2639,-2.4697,-2.6409,-2.7794,-3.0217,-3.1499,-3.1626,-3.3128,-3.3705,-3.3518,-3.4629,-3.5387,-3.5828,-3.6215,-3.5329,-3.3397,-3.0755,-2.8627,-2.689,0.0,0.0,0.0,0.0,-2.4915,-2.5552,-2.7345,-2.8568,-2.9261,-2.8637,0.0,0.0,0.0,0.0,0.0,0.0,0.0,0.0,0.0,0.0,-3.1661,-3.3003,-3.3689,-3.4383,-3.5605,-3.3089,-2.9605,0.0,-2.4839,-2.2806,-1.8685,-1.808,0.0,0.0,0.0,-2.1206,-2.3263,-2.5282,-2.6995,-2.8242,-2.9574,-3.0357,-3.0357,-3.0682,-3.1269,-3.2178,-3.0628,-2.9672,-2.9685,-2.7726,-2.5516,0.0,0.0,0.0,0.0,0.0,0.0,0.0,0.0,0.0,0.0,0.0,0.0,0.0,0.0,0.0,0.0,0.0,0.0,0.0,0.0,0.0,0.0,0.0,0.0,0.0,0.0,0.0,0.0,-1.4149,-1.6875,-1.9238,-2.0585,-2.1013,0.0,0.0,0.0,0.0,0.0,0.0,-2.3025,-2.4149,-2.5813,-2.814,-2.9852,-3.148,-3.2981,-3.4462,-3.5515,-3.617,-3.66,-3.7043,-3.7481,-3.7932,-3.8439,-3.8999,-3.9061,-3.9191,-3.9127,-3.5463,-3.2767,-3.082,-2.9979,-2.8741,-2.7602,-2.8849,-2.9805,-3.0835,-3.3161,-3.4788,-3.5701,-3.4735,-3.3986,-3.2907,-2.9892,0.0,0.0,0.0,0.0,-3.0471,-3.2016,-3.3357,-3.4641,-3.5951,-3.6877,-3.772,-3.8653,-3.8427,-3.6683,0.0,-3.0688,-2.891,-2.4226,-2.3784,0.0,-2.2105,-2.3618,-2.5375,-2.6642,-2.8045,-2.915,-2.9808,-3.1045,-3.1809,-3.1809,-3.1771,-3.2129,-3.3053,-3.1704,-3.0992,-3.1243,-2.9786,-2.823,-2.6592,0.0,0.0,0.0,0.0,0.0,0.0,0.0,0.0,0.0,0.0,0.0,0.0,0.0,0.0,0.0,0.0,0.0,0.0,0.0,0.0,0.0,0.0,0.0,0.0,0.0,0.0,0.0,0.0,0.0,-2.0984,-2.34,0.0,0.0,0.0,0.0,-2.3588,-2.5124,-2.6529,-2.7426,-2.9091,-3.0814,-3.2526,-3.4276,-3.5617,-3.6523,-3.7368,-3.7858,-3.7983,-3.9576,-3.9962,-3.9334,-4.0977,-4.1735,-4.1707,-4.1711,-4.2184,-4.2613,-3.8363,-3.6086,-3.5206,-3.4378,-3.3518,-3.2734,-3.281,-3.3341,-3.4287,-3.6002,-3.6716,-3.7334,-4.0468,-3.9901,-3.7614,-3.5731,-3.4591,0.0,0.0,-3.5733,-3.6614,-3.7423,-3.7726,-3.7881,-3.8022,-3.8691,-3.9522,-4.0391,-4.1183,-4.066,0.0,-3.4979,-3.3492,-3.2365,0.0,-3.0785,-2.987,-3.0437,-3.1011,-3.1172,-3.1923,-3.2451,-3.2501,-3.2577,-3.2634,-3.2634,-3.2634,-3.3012,-3.3888,-3.3138,-3.3019,-3.3792,-3.301,-3.1728,-2.9989,-2.8256,0.0,0.0,0.0,0.0,0.0,0.0,0.0,0.0,0.0,0.0,0.0,0.0,0.0,0.0,0.0,0.0,0.0,0.0,0.0,0.0,0.0,0.0,0.0,0.0,0.0,0.0,0.0,0.0,-2.4259,-2.6358,0.0,-2.7103,-2.8396,-2.8913,-2.8076,-3.0145,-3.1853,-3.2705,-3.4372,-3.5565,-3.6161,-3.7834,-3.8869,-3.9191,-4.0008,-4.0735,-4.1324,-4.1925,-4.2056,-4.1812,-4.2459,-4.2763,-4.2729,-4.2729,-4.2913,-4.3076,-4.1547,-4.0146,-3.8922,-3.8624,-3.7638,-3.6369,-3.6389,-3.6899,-3.7745,-3.8865,-3.9998,-4.1164,-4.2427,-4.1499,-3.9793,-3.9139,-3.8353,-3.7947,-3.9303,-3.9482,-3.9595,-4.0998,-4.1359,-4.1393,-4.1412,-4.1666,-4.1983,-4.2246,-4.256,-4.2382,-4.1069,-3.9456,-3.731,-3.4224,-3.4356,-3.4227,-3.2269,-3.3068,-3.3922,-3.3934,-3.4155,-3.4315,-3.4312,-3.4827,-3.4923,-3.4369,-3.4312,-3.4445,-3.4802,-3.3521,-3.3104,-3.3957,-3.3192,-3.245,-3.1876,-3.018,-2.7924,0.0,0.0,0.0,0.0,0.0,0.0,0.0,0.0,0.0,0.0,0.0,0.0,0.0,0.0,0.0,0.0,0.0,0.0,0.0,0.0,0.0,0.0,0.0,0.0,0.0,0.0,-2.3717,-2.6517,-2.8821,-3.019,-3.0213,-3.2039,-3.302,-3.2499,-3.4318,-3.5945,-3.7123,-3.8238,-3.9104,-3.97,-4.0796,-4.1389,-4.1386,-4.195,-4.2544,-4.315,-4.3423,-4.3589,-4.3616,-4.3936,-4.424,-4.451,-4.4515,-4.4684,-4.4959,-4.4935,-4.3965,-4.2434,-4.1854,-4.0945,-3.992,-3.992,-4.0256,-4.0868,-4.1961,-4.3115,-4.4128,-4.4485,-4.3641,-4.2466,-4.2176,-4.1886,-4.1809,-4.2615,-4.2613,-4.2555,-4.3389,-4.3616,-4.3559,-4.3235,-4.3419,-4.3675,-4.3607,-4.3844,-4.3944,-4.3609,-4.2399,-4.0554,-3.7695,-3.7867,-3.7817,-3.6108,-3.6741,-3.7209,-3.6651,-3.6791,-3.67,-3.6107,-3.6566,-3.6566,-3.5706,-3.5649,-3.5515,-3.528,-3.3926,-3.341,-3.3976,-3.3161,-3.2726,-3.2775,-3.1083,-2.8962,-2.6421,0.0,0.0,0.0,0.0,0.0,0.0,0.0,0.0,0.0,0.0,0.0,0.0,0.0,0.0,0.0,0.0,0.0,0.0,0.0,0.0,0.0,0.0,0.0,-2.0279,-2.3193,-2.5956,-2.7682,-3.0796,-3.2837,-3.2953,-3.5212,-3.6699,-3.6772,-3.7559,-3.8766,-4.045,-4.0585,-4.1373,-4.3047,-4.3124,-4.314,-4.3131,-4.314,-4.3188,-4.3294,-4.4133,-4.4568,-4.4645,-4.5471,-4.6303,-4.7096,-4.7129,-4.7627,-4.8392,-4.8327,-4.7337,-4.5703,-4.404,-4.3343,-4.3305,-4.3305,-4.3324,-4.3614,-4.5258,-4.5838,-4.5974,-4.6844,-4.6563,-4.5738,-4.4904,-4.5208,-4.5686,-4.4791,-4.5133,-4.5559,-4.4681,-4.4492,-4.4311,-4.3435,-4.3863,-4.4495,-4.4508,-4.516,-4.5491,-4.4649,-4.3772,-4.3162,-4.3104,-4.2345,-4.1737,-4.1731,-4.1608,0.0,-3.9369,-3.9869,-3.968,-3.796,-3.7769,-3.7445,-3.6661,-3.6566,-3.6184,-3.5305,-3.4464,-3.4006,-3.4044,-3.3203,-3.2711,-3.2691,-3.1083,-2.8954,-2.6333,0.0,0.0,0.0,0.0,0.0,0.0,0.0,0.0,0.0,0.0,0.0,0.0,0.0,0.0,0.0,0.0,0.0,0.0,0.0,0.0,0.0,0.0,-2.3954,-2.4576,-2.6517,-2.8976,-3.1923,-3.3635,-3.5082,-3.6307,-3.7674,-3.8489,-3.852,-3.988,-4.0934,-4.1431,-4.2585,-4.3201,-4.3104,-4.3662,-4.397,-4.3968,-4.4003,-4.4328,-4.4925,-4.524,-4.5387,-4.5422,-4.6336,-4.6854,-4.7134,-4.7708,-4.8114,-4.8327,-4.8311,-4.8037,-4.7438,-4.5766,-4.4369,-4.3305,-4.3305,-4.4078,-4.5258,-4.6361,-4.6733,-4.6877,-4.7689,-4.7004,-4.5775,-4.5539,-4.522,-4.5028,-4.5355,-4.5153,-4.4931,-4.5256,-4.5372,-4.5449,-4.577,-4.6075,-4.6439,-4.7039,-4.6846,-4.6502,-4.6257,-4.5526,-4.4509,-4.3246,-4.2771,-4.2543,-4.2488,-4.247,-4.2049,-4.0979,-4.1036,-4.0769,-3.9699,-3.9603,-3.924,-3.84,-3.7731,-3.7024,-3.6203,-3.4789,-3.4254,-3.4846,-3.4031,-3.3274,-3.2632,-3.1596,-2.9789,0.0,0.0,0.0,0.0,0.0,0.0,0.0,0.0,0.0,0.0,0.0,0.0,0.0,0.0,0.0,0.0,0.0,0.0,0.0,0.0,0.0,0.0,-2.5187,-2.7498,-2.977,-3.0624,-3.1919,-3.4267,-3.5924,-3.7297,-3.829,-3.9218,-3.9749,-3.9746,-4.1011,-4.197,-4.2335,-4.3585,-4.4239,-4.4143,-4.4605,-4.4836,-4.4836,-4.4889,-4.5156,-4.5635,-4.5684,-4.5924,-4.6302,-4.6839,-4.7506,-4.8217,-4.8671,-4.9077,-4.9405,-4.9389,-4.9196,0.0,0.0,0.0,0.0,0.0,-4.6051,-4.6999,-4.7889,-4.7704,-4.7287,-4.8466,-4.7457,-4.5868,-4.624,-4.5766,-4.5286,-4.6123,-4.5979,-4.5776,-4.6577,-4.6777,-4.6915,-4.7347,-4.7446,-4.76,-4.8046,-4.7757,-4.7296,-4.6971,-4.649,0.0,-4.4285,-4.3711,-4.3445,-4.3388,-4.333,-4.3004,-4.2144,-4.2335,-4.224,-4.1437,-4.1361,-4.0845,-3.9604,-3.905,0.0,0.0,0.0,-3.4375,-3.4113,-3.398,0.0,0.0,0.0,-3.2244,-3.0712,0.0,0.0,0.0,-2.448,-2.367,0.0,0.0,0.0,0.0,0.0,0.0,0.0,0.0,0.0,0.0,0.0,0.0,0.0,0.0,0.0,0.0,-2.8777,-3.0815,-3.4655,-3.4827,-3.4859,-3.5653,-3.7721,-3.9172,-3.933,-4.0153,-4.0649,-4.0642,-4.1546,-4.2431,-4.3181,0.0,0.0,0.0,0.0,-4.5586,-4.5586,-4.5622,-4.5637,-4.57,-4.5715,-4.619,-4.7096,-4.7192,-4.814,-4.9707,-4.9803,-5.0248,-5.089,-5.0897,-5.0488,-4.9745,-4.8778,-4.8392,-4.8392,-4.8392,-4.845,-4.8662,-4.9436,0.0,0.0,-4.8987,-4.7925,-4.6205,-4.6882,-4.6622,-4.6225,-4.6902,-4.7173,-4.7405,-4.7998,-4.8314,-4.842,-4.8349,-4.8391,-4.8412,-4.8394,-4.8317,-4.8029,-4.7317,-4.7105,-4.676,-4.5936,-4.5054,-4.4461,-4.4365,-4.4306,-4.3959,-4.3042,-4.3558,-4.3692,-4.2889,0.0,0.0,-4.0596,-4.0444,-3.9395,-3.6955,-3.5964,-3.4727,-3.3078,-3.3946,-3.4385,-3.4236,-3.5124,-3.5579,-3.5581,-3.5434,-3.5075,-3.4352,-2.8643,-2.6792,0.0,0.0,0.0,0.0,0.0,0.0,0.0,0.0,0.0,0.0,0.0,0.0,0.0,0.0,0.0,-2.9141,-3.1478,-3.3459,-3.4999,-3.6867,-3.8183,-3.8353,-3.886,-3.9448,-4.0175,-4.1034,-4.155,-4.1546,-4.297,-4.3893,-4.4066,-4.4874,-4.5432,-4.5586,-4.5586,-4.5586,-4.5586,-4.5657,-4.5693,-4.569,0.0,0.0,-4.7109,-4.7835,-4.872,-4.9745,-5.0403,-5.0774,-5.0897,-5.0893,-5.0813,-5.0519,-4.8991,-4.8392,-4.8392,-4.8392,-4.8846,-4.9461,-4.9644,-4.9475,-4.9146,-4.8694,-4.8214,-4.7731,-4.7249,-4.7472,0.0,-4.725,-4.7599,-4.8009,-4.7476,-4.835,-4.9321,-4.9255,-4.9775,-5.0275,-5.0202,-4.9701,-4.9162,-4.8952,-4.8355,-4.7817,-4.7625,-4.6877,-4.6052,-4.5285,-4.5704,-4.5529,-4.3978,-4.3902,-4.3671,-4.281,-4.2713,-4.2559,-4.2153,-4.1549,-4.0672,-3.945,-3.7966,-3.6672,-3.5644,-3.7034,-3.7528,-3.6881,-3.7623,-3.8022,-3.8022,-3.7356,-3.7621,-3.8605,-3.4112,-3.2179,0.0,0.0,0.0,0.0,0.0,0.0,0.0,0.0,0.0,0.0,0.0,-2.6129,0.0,0.0,-3.0773,-3.2896,-3.4358,-3.5634,-3.6929,-3.8261,-3.9252,-3.9691,-4.0161,-4.0806,-4.1706,-4.2203,-4.245,-4.245,-4.3605,-4.4297,-4.4297,-4.5124,-4.5586,-4.5586,-4.5586,-4.5586,-4.5586,-4.5676,-4.569,-4.5706,-4.621,-4.6916,-4.7762,-4.8203,-4.9107,-5.0306,-5.0306,-5.0558,-5.0945,-5.0941,-5.0921,-5.0828,-4.9977,-4.9649,-4.9649,-4.9649,-4.9935,-5.0298,-5.0287,-5.0001,-4.956,-4.91,-4.8659,-4.8214,-4.7809,-4.8033,-4.8392,-4.8392,-4.8701,-4.9049,-4.8999,-4.9911,-5.0844,-5.081,-5.1103,-5.1375,-5.1356,-5.0683,-4.9971,-4.949,-4.9048,-4.8606,-4.8182,-4.8068,-4.7741,-4.6837,-4.6643,-4.643,-4.5965,-4.5142,-4.4584,-4.4601,-4.4219,-4.3738,-4.3232,-4.2074,-4.1161,-4.0741,-3.9504,-3.8592,-3.8115,-3.939,-4.0076,-4.0057,-4.0876,-4.1504,-4.1898,-4.106,-4.1076,-4.1794,-3.9207,-3.7349,0.0,0.0,0.0,0.0,0.0,0.0,0.0,0.0,-2.4547,-2.6706,-2.8619,-3.0435,-3.2157,-3.3462,-3.4827,-3.6594,-3.6897,-3.7467,-3.9031,-3.9429,-3.9846,-4.055,-4.1255,-4.1997,-4.2744,-4.3126,-4.3335,-4.3319,-4.4085,-4.4547,-4.4547,-4.522,-4.5586,-4.5586,-4.5586,-4.5622,-4.5622,-4.5657,-4.5783,-4.5986,-4.6731,-4.7646,-4.8643,-4.8643,-4.9475,-5.0867,-5.021,-5.0322,-5.0971,-5.0971,-5.0956,-5.0906,-5.0906,-5.1003,-5.1138,-5.0964,-5.0906,-5.0906,-5.0906,-5.043,-4.9834,-4.9679,-4.9254,-4.881,-4.8813,-4.8845,-4.9034,-4.9714,-4.9923,-5.0039,-5.0523,-5.1377,-5.2133,-5.2097,-5.2064,-5.2011,-5.1992,-5.1318,-5.0491,-4.9779,-4.9644,-4.9433,-4.8721,-4.9125,-4.92,-4.8162,-4.7488,-4.7272,-4.7742,-4.6571,-4.5977,-4.666,-4.6107,-4.5278,-4.4368,-4.2746,-4.1778,-4.1803,-4.0965,-4.0469,-4.0447,-4.1521,-4.2398,-4.3,-4.4056,-4.4893,-4.5551,-4.4839,-4.4493,-4.445,-4.3502,-4.176,-2.6222,-2.3974,-2.2665,-2.3971,-2.3742,-2.4614,0.0,0.0,-3.0179,-3.4074,-3.451,-3.4699,-3.6345,-3.6252,-3.6501,-3.825,-3.8537,-3.8899,-3.9909,-4.0788,-4.136,-4.1454,-4.1602,-4.1733,-4.1852,-4.3246,-4.4165,-4.4168,-4.4972,-4.5451,-4.5451,-4.5547,-4.5586,-4.5586,-4.5586,-4.564,-4.5693,-4.5693,-4.6127,-4.694,-4.7055,-4.7975,-4.9552,-4.9552,-5.0055,-5.0906,-5.0809,-5.0828,-5.0906,-5.0906,-5.0906,-5.0906,-5.0906,-5.137,-5.195,-5.1196,-5.0906,-5.0906,-5.0906,-5.0832,-5.0639,-4.9923,-5.0097,-5.0619,-5.0607,-5.061,-5.0629,-5.0675,-5.0711,-5.061,-4.9914,-5.0951,-5.2166,-5.2114,-5.208,-5.2082,-5.2011,-5.1318,-5.0663,-5.0568,-5.0548,-5.051,-5.0433,-5.0432,-4.9891,-4.8258,-4.8484,-4.8573,-4.7895,-4.7624,-4.7506,-4.7556,-4.7434,-4.6982,-4.6093,-4.4431,-4.3464,-4.3618,-4.2734,-4.2262,-4.2387,-4.3805,-4.4653,-4.4813,-4.6258,-4.7043,-4.7138,-4.7043,-4.6973,-4.6876,-4.614,-4.4421,-2.9008,-2.7978,-2.7378,0.0,-2.8424,-2.9473,-3.2958,-3.36,-3.4242,-3.6984,-3.8045,-3.8729,-3.9451,-3.9364,-3.9406,0.0,-3.9889,-3.9757,-4.0196,-4.0597,-4.0844,-4.0843,-4.1319,-4.2063,-4.3097,-4.3862,-4.4475,-4.4957,-4.534,-4.5531,-4.5531,-4.5586,-4.5586,-4.5586,-4.5586,-4.5871,-4.6386,-4.5938,-4.6179,-4.7113,-4.7558,-4.8207,-4.8952,-4.9424,-4.985,-5.0229,-5.0743,-5.0956,-5.0995,-5.1517,-5.1711,-5.1769,-5.2221,-5.2647,-5.284,-5.197,-5.166,-5.166,-5.166,-5.1331,-5.0945,-5.1099,-5.1354,-5.1689,-5.2194,-5.2331,-5.2296,-5.2259,-5.2278,-5.2103,-5.1254,-5.1945,-5.2833,-5.2815,-5.2835,-5.2971,-5.3379,-5.2396,-5.1453,-5.1395,-5.101,-5.0702,-5.0643,-5.0582,-5.0291,-4.9518,-4.9248,-4.9146,-4.9232,-4.8342,-4.7662,-4.7596,-4.7105,-4.6662,-4.632,-4.5607,-4.5185,-4.5214,-4.5304,-4.5385,-4.5432,-4.6074,-4.67,-4.7188,-4.7871,-4.8434,-4.8837,-4.8329,-4.8102,-4.8083,-4.7205,-4.5994,-3.043,0.0,0.0,-3.1368,-3.2347,-3.3669,-3.5364,-3.6403,-3.7577,-3.9573,-4.0768,-4.1449,-4.1495,-4.1396,-4.1309,-4.1292,-4.069,-4.0291,-4.0559,-4.0616,-4.0558,-4.0346,-4.1073,-4.2105,-4.3443,-4.3998,-4.4516,-4.5111,-4.536,-4.5513,-4.5513,-4.5568,-4.5586,-4.5586,-4.5834,-4.6273,-4.6921,-4.6587,-4.6885,-4.7805,-4.8404,-4.881,-4.9107,-4.9695,-4.9985,-5.0074,-5.0704,-5.0971,-5.1029,-5.1648,-5.2055,-5.2326,-5.2914,-5.344,-5.3768,-5.3149,-5.2608,-5.2163,-5.1912,-5.1428,-5.1003,-5.1641,-5.1973,-5.2288,-5.3123,-5.3338,-5.334,-5.3571,-5.3302,-5.2877,-5.253,-5.2684,-5.3088,-5.3551,-5.3513,-5.359,-5.4342,-5.3359,-5.2319,-5.226,-5.1567,-5.0989,-5.0929,-5.0675,-5.0457,-5.0412,-4.9854,-4.9641,-5.0225,-4.9139,-4.8281,-4.8207,-4.7454,-4.6841,-4.6643,-4.6575,-4.6455,-4.6271,-4.6992,-4.7448,-4.7448,-4.7701,-4.8118,-4.8712,-4.8965,-4.9364,-4.9898,-4.9275,-4.8973,-4.8981,-4.8048,-4.7329,0.0,0.0,-3.1177,-3.281,-3.4524,-3.6242,-3.7992,-3.9006,-4.0325,-4.2918,-4.2829,-4.2257,-4.2281,-4.173,-4.1288,-4.1288,-4.0689,-4.0463,-4.1264,-4.1418,-4.117,-4.0387,-4.1074,-4.1628,0.0,-4.3215,-4.423,-4.4323,-4.5053,-4.5513,-4.5586,-4.5586,-4.5586,-4.5586,-4.6427,-4.6901,-4.6992,-4.7812,-4.8694,-4.9629,-4.9583,-4.9988,-5.0828,-5.0848,-5.0867,-5.0867,-5.0887,-5.0906,-5.0906,-5.0925,-5.1447,-5.2202,-5.2221,-5.3265,-5.4755,-5.4735,-5.3652,-5.2066,-5.1235,-5.0925,-5.0906,-5.0945,-5.1505,-5.234,-5.3068,-5.33,-5.3455,-5.4244,-5.3282,-5.2223,-5.3051,-5.2704,-5.2548,-5.4168,-5.3918,-5.3514,-5.4323,-5.3801,-5.3164,-5.3164,-5.2412,-5.1774,-5.1755,-5.0996,-5.0412,-5.0412,-5.0329,-5.0264,-5.0302,-5.0197,-5.0106,-5.0032,-4.9258,-4.8371,-4.7536,-4.741,-4.7087,-4.6454,-4.7086,-4.7523,-4.7596,-4.8321,-4.877,-4.8789,-4.9516,-4.986,-4.9898,-4.986,-4.9833,-4.975,-4.9,-4.8621,-3.1007,0.0,-3.4383,-3.5492,-3.6621,-3.8075,-4.0322,-4.1061,-4.1713,-4.3221,-4.3328,-4.2853,-4.1825,-4.0978,-4.0473,-4.0554,-3.989,-3.9662,-4.054,-4.0693,-4.0597,-4.0328,-4.0558,0.0,0.0,0.0,0.0,-4.3329,-4.4172,-4.467,-4.4725,-4.528,-4.5622,-4.5657,-4.6463,-4.7227,-4.787,-4.8156,-4.8771,-4.9707,-4.9672,-5.0101,-5.0897,-5.0909,-5.0906,-5.0906,-5.0906,-5.0906,-5.0945,-5.1525,-5.1931,-5.2318,-5.3426,-5.422,-5.4723,-5.4723,-5.4355,-5.3754,-5.2901,-5.224,-5.1854,-5.2434,-5.3191,-5.4008,-5.4841,-5.5036,-5.5036,-5.5344,-5.4572,-5.3609,-5.3359,-5.307,-5.2954,-5.3532,-5.3879,-5.4323,-5.5129,-5.4648,-5.3878,-5.3238,-5.241,-5.16,-5.0977,-5.0607,-5.0367,-5.0278,-5.0278,-5.0278,-5.0182,-5.0158,-5.0108,-4.9978,-4.9231,-4.8624,-4.8339,-4.8294,-4.8162,-4.7947,-4.8662,-4.9098,-4.9143,-4.9383,-4.9535,-4.9535,-4.9773,-4.9898,-4.9898,-5.0373,-5.0676,-5.0714,-5.0336,-4.9892,-3.2876,-3.4735,-3.6616,-3.834,-3.9189,-4.0121,-4.2063,-4.2521,-4.2723,-4.3391,-4.3064,-4.221,-4.0653,-3.9218,-3.8365,-3.8747,-3.8384,-3.8459,-3.968,-4.01,-4.0406,-4.0691,-4.073,-4.0883,0.0,0.0,0.0,-4.2482,-4.3846,-4.4574,-4.4303,-4.5143,-4.564,-4.5657,-4.6788,-4.767,-4.8243,-4.8913,-4.9525,-5.012,-5.0117,-5.0391,-5.0899,-5.0909,-5.0906,-5.0906,-5.0906,-5.108,-5.1389,-5.1621,-5.2105,-5.2743,-5.3503,-5.4181,-5.4705,-5.4723,-5.4723,-5.457,-5.3771,-5.313,-5.2763,-5.3323,-5.4061,-5.4838,-5.5362,-5.5692,-5.5846,-5.5885,-5.4997,-5.3993,-5.3763,-5.3474,-5.328,-5.3587,-5.43,-5.5072,-5.5609,-5.5282,-5.4724,-5.412,-5.3289,-5.2497,-5.1825,-5.1204,-5.0756,-5.0689,-5.0422,-5.0207,-5.0108,-5.0082,-5.0031,-4.9933,-4.9451,-4.9034,-4.8776,-4.8977,-4.9034,-4.8757,-4.947,-4.9898,-4.9871,-4.9871,-4.9843,-4.9816,-4.9816,-4.9976,-5.0306,-5.0781,-5.1216,-5.1642,-5.1489,-5.1187,-3.4946,-3.6456,-3.7914,-4.1113,-4.1927,-4.2187,-4.3168,-4.3273,-4.3224,-4.3366,-4.1992,-4.0254,0.0,0.0,-3.528,-3.6044,-3.6382,-3.7158,-3.8839,-3.9814,-4.0635,0.0,0.0,0.0,0.0,0.0,0.0,-4.1915,0.0,-4.5109,-4.4335,-4.5194,-4.5657,-4.5603,-4.7364,-4.8268,-4.8214,-4.9997,-5.0899,-5.0899,-5.0893,-5.0893,-5.0899,-5.0893,-5.089,-5.0906,-5.0906,-5.137,-5.2066,-5.1235,-5.1873,-5.3285,-5.2492,-5.3194,-5.4647,-5.4757,-5.4779,-5.4647,-5.3887,-5.3594,-5.3575,-5.3575,-5.4155,-5.4834,-5.48,-5.5306,-5.5905,-5.5905,-5.4592,-5.3396,-5.4206,-5.3782,-5.3356,-5.4222,-5.5049,-5.5645,-5.5684,-5.5684,-5.5662,-5.5538,-5.4821,-5.4173,-5.4052,-5.2584,-5.1485,-5.1478,-5.0723,-5.0165,-5.0108,-5.0057,-5.0005,-5.0005,-4.9952,-4.9622,-4.8897,-4.947,-4.9584,-4.8878,-4.9489,-4.9871,-4.9807,-4.9807,-4.9778,-4.9692,-4.9692,-5.0147,-5.0998,-5.1055,-5.1537,-5.2475,-5.2447,-5.2447,-3.698,-3.8233,-3.9445,-4.1485,-4.1541,-4.1492,-4.2983,-4.2441,-4.1418,-4.0806,-3.8953,-3.6556,0.0,0.0,0.0,-3.4475,-3.6131,0.0,-3.9737,-4.0673,0.0,-4.1476,0.0,-4.2565,-4.2776,-4.3426,0.0,0.0,-4.3881,-4.4514,-4.4316,-4.5194,-4.569,-4.5668,-4.7378,-4.8282,-4.826,-5.0014,-5.0897,-5.0909,-5.0913,-5.0913,-5.0909,-5.0897,-5.0893,-5.0906,-5.0906,-5.1041,-5.1215,-5.1003,-5.1157,-5.1602,-5.1976,-5.279,-5.3816,-5.4491,-5.513,-5.5632,-5.5434,-5.4967,-5.4465,-5.4465,-5.5026,-5.5702,-5.5666,-5.5805,-5.5981,-5.5981,-5.467,-5.3321,-5.3552,-5.2916,-5.2452,-5.3318,-5.4184,-5.4972,-5.5525,-5.5618,-5.5423,-5.4695,-5.3752,-5.3105,-5.3054,-5.2634,-5.2079,-5.1444,-5.1159,-5.0798,-5.0184,-5.0057,-4.9978,-4.9925,-4.9925,-4.9803,-4.9559,-4.9702,-4.9712,-4.9476,-4.9665,-4.975,-4.9721,-4.9721,-4.9721,-4.9692,-4.975,-5.0175,-5.0998,-5.1699,-5.2504,-5.3366,-5.321,-5.315,-3.8278,-3.9658,-4.0966,-4.2208,-4.2216,-4.1942,-4.2149,-4.1268,-3.9741,-3.7445,-3.5378,0.0,-3.0165,-3.0148,0.0,0.0,0.0,0.0,-3.8877,-4.0215,-4.1246,0.0,-4.2507,0.0,-4.3867,-4.4423,-4.4556,0.0,-4.4572,-4.4703,-4.4316,-4.5192,-4.5861,-4.623,-4.7571,-4.8681,-4.9431,-5.0417,-5.0897,-5.0906,-5.0893,-5.0913,-5.0893,-5.0897,-5.088,-5.0861,0.0,-5.1106,-5.1396,-5.1045,-5.1138,-5.1486,-5.1551,-5.229,-5.3414,-5.3969,-5.4937,-5.5961,-5.5977,-5.5705,-5.5378,-5.5763,-5.5935,-5.607,-5.642,-5.6288,-5.5999,-5.5999,-5.494,-5.3822,-5.3861,-5.3167,-5.2587,-5.3087,-5.3836,-5.4583,-5.4981,-5.5324,-5.5393,-5.4839,-5.4212,-5.3739,-5.3739,-5.3392,-5.2929,-5.2474,-5.2047,-5.163,-5.1216,-5.0461,-4.9925,-4.9871,-4.9843,-4.9843,-4.9807,-4.9807,-4.9778,-4.975,-4.975,-4.9721,-4.9663,-4.9682,-4.9634,-4.9623,-5.0021,-5.0636,-5.1496,-5.2416,-5.3327,-5.4148,-5.4068,-5.3987,-3.9133,-4.0615,-4.1897,-4.2819,-4.2996,-4.2589,-4.0985,-3.9776,-3.7849,-3.3975,0.0,-2.9642,-2.7271,-2.6591,-2.7172,-2.955,0.0,-3.4904,-3.7502,-3.9279,-4.0922,-4.2603,-4.2889,-4.3597,-4.5245,-4.538,-4.5419,-4.5495,-4.555,-4.5259,-4.4509,-4.5343,-4.6287,-4.7221,-4.8017,-4.9241,-5.088,-5.0899,-5.0897,-5.089,-5.089,-5.0893,-5.0899,-5.0883,-5.0846,-5.0829,-5.0863,-5.1305,-5.1901,-5.1199,-5.1351,-5.195,-5.1296,-5.1981,-5.3338,-5.3563,-5.4608,-5.5905,-5.5979,-5.5979,-5.6115,-5.6866,-5.6691,-5.6248,-5.6849,-5.6636,-5.6135,-5.6019,-5.5268,-5.4516,-5.4555,-5.3879,-5.3201,-5.3317,-5.3889,-5.4402,-5.4518,-5.5048,-5.5456,-5.5383,-5.5229,-5.5094,-5.5094,-5.4382,-5.385,-5.3775,-5.3073,-5.2561,-5.2484,-5.1071,-5.0041,-5.0005,-4.9863,-4.9807,-4.9778,-4.9778,-4.9778,-4.975,-4.975,-4.9692,-4.9593,-4.9593,-4.9619,-4.9659,-5.0428,-5.1287,-5.2247,-5.3093,-5.3917,-5.4705,-5.4767,-5.4755,-4.0207,-4.0239,-4.0365,-4.1841,-4.1762,-4.1061,-4.004,-3.7649,0.0,0.0,-2.8626,-2.5527,-2.3689,-2.4981,-2.6936,-2.8803,0.0,-3.5114,-3.8323,-3.9661,-4.0922,0.0,-4.3386,-4.4188,-4.5222,-4.5359,0.0,0.0,-4.5476,-4.5473,-4.5374,-4.6215,-4.7426,-4.8988,-4.9216,-4.9774,-5.081,-5.081,-5.0846,-5.0897,-5.0844,-5.081,-5.0829,-5.0757,-5.0793,-5.0863,-5.0899,0.0,-5.1103,-5.0948,-5.1003,-5.1196,-5.1689,-5.2503,-5.347,-5.4167,-5.5036,-5.5905,-5.5924,-5.5924,-5.5962,-5.6173,-5.6541,-5.6811,-5.629,-5.6522,-5.6831,-5.6039,-5.519,-5.4476,-5.4451,-5.3774,-5.3292,-5.3958,-5.4223,-5.4488,-5.5092,-5.5326,-5.5365,-5.5255,-5.5176,-5.5066,-5.5028,-5.4847,-5.4465,-5.3831,-5.3575,-5.3215,-5.2494,-5.1566,-5.0978,-5.095,-5.0306,-4.9843,-4.9721,-4.9721,-4.9682,-4.9551,-4.9551,-4.9551,-4.9521,-4.9521,-4.984,-5.0466,-5.071,-5.1569,-5.3094,-5.3364,-5.3917,-5.4767,-5.4755,-5.4723,-3.9832,-4.0146,-4.0428,-4.1217,-4.0835,-3.9693,-3.7589,0.0,0.0,0.0,-2.5333,-2.319,-2.1514,-2.2947,0.0,0.0,0.0,0.0,-3.5916,-3.7521,0.0,-4.1246,-4.2622,-4.3711,0.0,-4.5112,-4.54,-4.5438,-4.5513,-4.5568,-4.5586,-4.6815,-4.8141,-4.9465,-4.991,-5.0334,-5.0793,-5.0793,-5.0829,-5.0846,-5.0829,-5.0793,-5.0757,-5.072,-5.0739,-5.0795,-5.0794,-5.0793,-5.0808,-5.0877,-5.0877,-5.0899,-5.1305,-5.2236,-5.3397,-5.3783,-5.4747,-5.5846,-5.5885,-5.5885,-5.5846,-5.5885,-5.6155,-5.6464,-5.6502,-5.6521,-5.6425,-5.5882,-5.5457,-5.5109,-5.5042,-5.4383,-5.382,-5.4219,-5.4269,-5.4407,-5.5135,-5.5275,-5.5214,-5.5149,-5.5094,-5.5057,-5.5,-5.4941,-5.4769,-5.4389,-5.4303,-5.4122,-5.3705,-5.287,-5.2019,-5.1149,-5.0996,-5.0816,-5.0312,-5.067,-5.0854,-5.0811,-5.0416,-5.0141,-5.0128,-4.9715,-4.9678,-5.0072,-5.1011,-5.182,-5.2578,-5.3604,-5.4277,-5.4608,-5.459,-5.4557,-3.9002,-3.9864,-4.0578,-4.0603,-3.9994,-3.8512,-3.5277,-3.2468,0.0,0.0,-2.2735,-2.1571,-2.0245,0.0,-2.2936,0.0,-2.6931,-2.9688,0.0,-3.5286,-3.7254,0.0,-4.1781,0.0,-4.4019,-4.4882,0.0,-4.5495,-4.5741,-4.5951,-4.6124,-4.7375,-4.8623,-4.9716,-5.0374,-5.0739,-5.0775,-5.0775,-5.0775,-5.0775,-5.0968,-5.093,-5.0702,-5.0875,-5.0856,-5.0702,-5.0702,-5.0701,-5.072,-5.1022,-5.1117,-5.1101,-5.1505,-5.2452,-5.3571,-5.3745,-5.4651,-5.5806,-5.5826,-5.5826,-5.5766,-5.5766,-5.5942,-5.6232,-5.6654,-5.648,-5.6037,-5.5761,-5.5682,-5.564,-5.5573,-5.5067,-5.4541,-5.4494,-5.4402,-5.4473,-5.5069,-5.5149,-5.5094,-5.5066,-5.5057,-5.5,-5.4941,-5.4901,-5.4871,-5.4841,-5.4799,-5.4786,-5.4786,-5.4119,-5.3057,-5.1567,-5.1801,-5.1776,-5.1117,-5.1663,-5.1989,-5.1989,-5.1387,-5.0999,-5.0954,-5.0353,-5.0109,-5.0278,-5.1619,-5.2352,-5.2437,-5.3935,-5.4576,-5.4424,-5.4472,-5.4472,-3.8297,-3.8983,-3.9714,-3.9733,-3.9147,-3.7731,-3.4391,0.0,0.0,-2.4396,-2.1855,-2.0188,-2.0036,-2.0792,-2.2234,0.0,0.0,-2.8351,0.0,-3.4751,-3.6566,-3.9909,0.0,0.0,-4.4019,-4.4881,-4.5438,-4.5495,-4.63,-4.7105,-4.7836,-4.8029,-4.8875,-5.0548,-5.0664,-5.0702,-5.0701,-5.0701,-5.0701,-5.072,-5.151,-5.1472,-5.0721,-5.1452,-5.1376,-5.0701,-5.0701,-5.0701,0.0,-5.1623,-5.1951,-5.203,-5.3571,-5.4265,-5.4476,-5.5226,-5.559,-5.5724,-5.5724,-5.5724,-5.5724,-5.5724,-5.6263,-5.6763,-5.6051,-5.6297,-5.6637,-5.5849,-5.5573,-5.5504,-5.5432,-5.535,-5.5268,-5.5141,-5.5115,-5.5107,-5.5102,-5.5094,-5.5066,-5.5028,-5.5,-5.4941,-5.4829,-5.4799,-5.4767,-5.4723,-5.4705,-5.4723,-5.4723,-5.4514,-5.4054,-5.3169,-5.2536,-5.2083,-5.1927,-5.1952,-5.1957,-5.1893,-5.1837,-5.1799,-5.1799,-5.1724,-5.2043,-5.2832,-5.3034,-5.3466,-5.4165,-5.4397,-5.4505,-5.4505,-5.4505,-5.4505,-3.7791,-3.8895,-3.965,-3.9727,-3.8754,-3.6906,-3.3601,0.0,-2.7024,-2.367,-2.1388,-1.9996,-2.0,-2.0278,-2.1194,0.0,0.0,0.0,-2.8924,0.0,-3.2718,-3.6107,-3.8456,0.0,0.0,0.0,-4.4863,-4.5456,-4.584,-4.6646,-4.8029,-4.8606,-4.9202,-4.9894,-5.0433,-5.0702,-5.0702,-5.0702,-5.0952,-5.1433,-5.1761,-5.1761,-5.1433,-5.176,-5.1452,-5.0702,-5.0702,-5.0972,0.0,-5.1819,-5.2242,-5.274,-5.3413,-5.3949,-5.4425,-5.4729,-5.5193,-5.5618,-5.5596,-5.5596,-5.5618,-5.5596,-5.5804,-5.6057,-5.5734,-5.5846,-5.5969,-5.56,-5.5456,-5.5432,-5.5415,-5.5326,-5.5281,-5.521,-5.5149,-5.5066,-5.5057,-5.5,-5.4941,-5.4901,-5.4871,-5.486,-5.4755,-5.4755,-5.4723,-5.4705,-5.4622,-5.459,-5.459,-5.4491,-5.4326,-5.4006,-5.3687,-5.3325,-5.2785,-5.3165,-5.3428,-5.3414,-5.2944,-5.2682,-5.2682,-5.2175,-5.2062,-5.24,-5.2926,-5.3339,-5.3677,-5.418,-5.4458,-5.4458,-5.4458,-5.4721,-3.6522,-3.8042,-3.8964,-3.9018,-3.7797,-3.5796,0.0,0.0,-2.6257,-2.3133,-2.1172,-1.9998,-2.0001,-2.0021,-2.0517,0.0,0.0,-2.3212,-2.6008,-2.7676,-2.9754,0.0,0.0,-3.8261,0.0,-4.3388,-4.4768,-4.5419,-4.5956,-4.6666,-4.7626,-4.8991,-4.976,-4.9779,-5.0375,-5.0702,-5.0702,-5.0702,-5.1106,-5.1914,-5.1914,-5.1914,-5.1914,-5.1914,-5.1471,-5.0702,-5.0702,-5.1125,0.0,-5.2143,-5.2715,-5.3437,-5.3708,-5.4146,-5.466,-5.466,-5.5048,-5.5573,-5.5527,-5.5527,-5.5551,-5.5504,-5.5456,-5.5456,-5.5461,-5.5456,-5.5432,-5.5383,-5.5333,-5.5307,-5.5313,-5.5241,-5.5176,-5.5149,-5.5066,-5.5,-5.4971,-5.4931,-5.486,-5.4799,-5.4767,-5.4736,-5.4673,-5.4641,-5.4641,-5.4608,-5.4524,-5.4472,-5.4472,-5.4424,-5.4409,-5.4409,-5.4409,-5.4165,-5.3583,-5.4071,-5.4409,-5.4409,-5.3864,-5.3545,-5.3545,-5.2963,-5.2644,-5.2644,-5.3245,-5.3545,-5.3545,-5.4108,-5.4521,-5.4747,-5.4747,-5.5197,-3.4189,-3.5904,-3.7228,-3.7228,-3.6054,-3.4283,0.0,0.0,-2.5582,-2.3037,-2.116,-2.0001,-2.0001,-2.0041,-2.0375,-2.1176,0.0,0.0,-2.5926,-2.7173,0.0,0.0,0.0,-3.6258,-3.8872,-4.2928,-4.5381,-4.54,-4.6991,0.0,-4.6761,-4.9161,-5.0623,-5.0683,-5.0702,-5.0702,-5.0702,-5.0702,-5.1106,-5.1914,-5.1914,-5.1914,-5.1914,-5.1914,-5.1471,-5.0702,-5.0702,-5.1084,0.0,-5.2691,-5.3533,-5.4259,-5.5135,-5.5485,-5.5485,-5.5485,-5.5485,-5.5504,-5.5504,-5.5504,-5.548,-5.5432,-5.5358,-5.5281,-5.521,-5.5255,-5.5307,-5.5307,-5.5203,-5.5094,-5.5094,-5.5094,-5.5066,-5.5028,-5.5,-5.4971,-5.4931,-5.486,-5.4799,-5.4799,-5.4755,-5.4673,-5.4538,-5.4486,-5.4472,-5.439,-5.439,-5.439,-5.439,-5.4409,-5.4409,-5.4409,-5.4409,-5.4409,-5.439,-5.4409,-5.4409,-5.4409,-5.439,-5.439,-5.439,-5.4371,-5.4371,-5.4371,-5.4371,-5.439,-5.439,-5.4409,-5.4822,-5.561,-5.561,-5.6061,-3.0133,-3.1676,-3.2845,-3.2392,-3.188,-3.0817,-2.8351,0.0,-2.4701,-2.2201,-2.0788,-2.0,-2.0059,-2.0088,-2.0756,-2.2751,-2.3086,0.0,0.0,0.0,0.0,-3.1235,-3.675,-4.0939,0.0,0.0,-4.536,-4.5399,-4.6454,-4.728,-4.7645,-4.9009,-4.9759,-4.974,-5.0375,-5.0702,-5.0702,-5.0702,-5.1106,-5.1914,-5.1914,-5.1894,-5.1853,-5.2448,-5.2235,-5.1406,-5.2001,-5.2727,-5.3487,-5.3732,-5.4302,-5.5063,-5.5326,-5.5415,-5.5415,-5.5415,-5.5446,-5.5432,-5.5421,-5.5396,-5.5454,-5.5988,-5.5679,-5.5263,-5.5853,-5.5625,-5.5149,-5.5149,-5.5121,-5.5094,-5.5094,-5.5028,-5.496,-5.4931,-5.4871,-5.4799,-5.4767,-5.4755,-5.4705,-5.4603,-5.4571,-5.4557,-5.4458,-5.439,-5.4359,-5.4324,-5.4252,-5.4198,-5.4198,-5.4271,-5.4324,-5.4324,-5.4375,-5.4409,-5.4409,-5.4409,-5.4409,-5.4409,-5.4359,-5.4324,-5.4324,-5.4324,-5.4324,-5.4324,-5.4375,-5.4672,-5.5235,-5.5235,-5.5667,-5.6512,-5.7056,-5.7469,0.0,-2.8305,-2.9504,-2.9117,-2.8768,0.0,0.0,0.0,-2.3163,-2.1627,-2.0124,-1.9297,-1.9993,-1.9593,-1.9888,-2.2102,-2.2486,0.0,0.0,0.0,0.0,-3.1642,0.0,0.0,0.0,-4.4287,-4.536,-4.5398,-4.6185,-4.7048,-4.793,-4.8815,-4.9431,-4.9716,-5.0374,-5.0702,-5.0702,-5.0702,-5.1106,-5.1914,-5.1587,-5.1586,-5.1813,-5.237,-5.2269,-5.1765,-5.2628,-5.3468,0.0,-5.4221,-5.4675,-5.5396,-5.5384,-5.5403,-5.5403,-5.5403,-5.5365,-5.5333,-5.532,-5.5504,-5.5736,-5.5911,-5.5522,-5.5123,-5.5645,-5.5446,-5.5057,-5.5028,-5.5,-5.4971,-5.4971,-5.4901,-5.481,-5.481,-5.4767,-5.4692,-5.4692,-5.4673,-5.459,-5.4472,-5.4458,-5.439,-5.4321,-5.4252,-5.4235,-5.4235,-5.4146,-5.4091,-5.4091,-5.4181,-5.4235,-5.4235,-5.4252,-5.4287,-5.4287,-5.434,-5.434,-5.4287,-5.4235,-5.4235,-5.4235,-5.4235,-5.4235,-5.4235,-5.4271,-5.4734,-5.554,-5.6213,-5.6831,-5.7375,-5.8182,-5.8558,0.0,0.0,0.0,0.0,0.0,0.0,0.0,0.0,0.0,-2.1032,-1.9202,-1.8115,-1.9783,-1.8771,-1.8272,-2.0079,0.0,0.0,0.0,-2.5683,0.0,0.0,-3.6061,0.0,-4.0403,-4.3503,-4.54,-4.5379,-4.6144,-4.6966,-4.7761,-4.8592,-4.9455,-5.0374,-5.0545,-5.0625,-5.0702,-5.0683,-5.1068,-5.1798,-5.1048,-5.1066,-5.1773,-5.1849,-5.1886,0.0,-5.2778,-5.3598,-5.4293,-5.4293,-5.4727,-5.5403,-5.5403,-5.5403,-5.5403,-5.5403,-5.5313,-5.5183,-5.5183,-5.5682,-5.615,-5.5294,-5.4998,-5.4947,-5.4848,-5.4871,-5.4971,-5.4901,-5.486,-5.4799,-5.4799,-5.4736,-5.4692,-5.4692,-5.4673,-5.4692,-5.4692,-5.4557,-5.4472,-5.439,-5.4324,-5.4254,-5.4127,-5.4091,-5.4091,-5.4091,-5.4091,-5.4091,-5.4091,-5.4091,-5.4091,-5.4091,-5.4091,-5.4091,-5.4091,-5.42,-5.4235,-5.4091,-5.4091,-5.4091,-5.4091,-5.4091,-5.4091,-5.4091,-5.4147,-5.4667,-5.5581,-5.7302,-5.8145,-5.822,-5.8952,-5.929,-1.7847,0.0,-2.0488,-1.99,-2.0115,-2.0281,0.0,0.0,0.0,0.0,0.0,0.0,-1.9783,-1.9277,-1.9563,0.0,0.0,0.0,-2.555,0.0,0.0,-3.7086,-3.9444,-4.1379,-4.3044,-4.4498,-4.5319,-4.5317,-4.6124,-4.6987,-4.7826,-4.812,-4.8945,-5.0421,-4.9869,-4.9871,-5.0542,-5.0603,-5.0699,-5.083,-5.0638,-5.0962,-5.174,-5.2372,-5.2958,-5.358,-5.4459,-5.4931,-5.5123,-5.5123,-5.5231,-5.5403,-5.5403,-5.5403,-5.5403,-5.5294,-5.5229,-5.5183,-5.5149,-5.5199,-5.5294,-5.5017,-5.5288,-5.5624,-5.4988,-5.4829,-5.4829,-5.4767,-5.4755,-5.4705,-5.4705,-5.4641,-5.4538,-5.4538,-5.4524,-5.4443,-5.4393,-5.4359,-5.4306,-5.4198,-5.4181,-5.4146,-5.4091,-5.4073,-5.4019,-5.4019,-5.3926,-5.387,-5.387,-5.3963,-5.4019,-5.4019,-5.4073,-5.4055,-5.4019,-5.411,-5.4127,-5.4091,-5.4037,-5.4019,-5.4019,-5.4019,-5.4019,-5.4019,-5.4762,-5.56,-5.6424,-5.7564,-5.8427,-5.9027,-5.9215,-5.929,-1.5555,-1.7326,-1.9084,-1.8663,-1.8922,-1.918,0.0,0.0,0.0,0.0,0.0,0.0,0.0,0.0,0.0,0.0,-2.3411,0.0,0.0,0.0,-3.4623,-3.8049,-3.9964,-4.1532,0.0,-4.4039,-4.4745,-4.4704,-4.555,-4.6392,-4.721,-4.7291,-4.8099,-4.9803,-4.9403,-4.9597,-5.0481,-5.0521,-5.0521,-5.05,-5.05,-5.0708,-5.114,-5.1963,-5.2757,-5.3499,-5.4377,-5.4943,-5.5241,-5.5313,-5.5286,-5.526,-5.5313,-5.5286,-5.5241,-5.5176,-5.5149,-5.5094,-5.5085,-5.5,-5.4988,-5.5264,-5.5404,-5.5334,-5.4818,-5.4654,-5.4654,-5.4673,-5.4673,-5.459,-5.459,-5.4524,-5.4439,-5.4439,-5.439,-5.4359,-5.4308,-5.4254,-5.42,-5.4073,-5.4037,-5.4037,-5.3981,-5.3926,-5.3907,-5.3907,-5.3851,-5.3813,-5.3813,-5.3851,-5.3907,-5.3907,-5.3963,-5.3963,-5.3888,-5.3963,-5.3944,-5.3944,-5.4261,-5.4446,-5.4446,-5.4446,-5.4279,-5.3907,-5.5305,-5.6201,-5.665,-5.7997,-5.8877,-5.929,-5.929,-5.929,-1.5207,-1.7535,-1.9775,-1.9279,-1.9482,-1.9732,0.0,0.0,0.0,0.0,0.0,0.0,0.0,0.0,0.0,0.0,0.0,0.0,-3.1026,-3.3123,-3.507,-3.7406,-3.9221,0.0,-4.1704,-4.3178,-4.4095,-4.4168,-4.4937,-4.57,-4.645,-4.6358,-4.7089,-4.8808,-4.8872,-4.9319,-5.0265,-5.0421,-5.0421,-5.0287,-5.0421,-5.0514,-5.06,-5.1346,-5.2064,-5.2743,0.0,0.0,-5.4713,-5.4795,-5.4768,-5.4732,-5.4928,-5.4958,-5.4922,-5.5056,-5.5038,-5.4971,-5.4971,-5.4931,-5.4955,-5.5516,-5.5271,-5.4717,-5.4538,-5.4505,-5.4505,-5.4608,-5.4557,-5.4472,-5.4472,-5.4458,-5.4409,-5.4409,-5.4359,-5.4308,-5.4273,-5.4164,-5.4073,-5.3982,-5.4094,-5.4093,-5.3831,-5.3905,-5.3943,-5.3831,-5.3813,-5.3813,-5.3813,-5.3813,-5.3813,-5.3813,-5.3813,-5.3813,-5.3813,-5.3813,-5.3813,-5.3813,-5.4574,-5.5076,-5.5206,-5.5206,-5.4834,-5.3998,-5.5696,-5.6594,-5.6594,-5.8278,-5.9178,-5.929,-5.929,-5.929,-1.6551,-1.8372,-1.9222,-1.645,-1.734,-1.8544,0.0,0.0,0.0,0.0,0.0,0.0,0.0,0.0,-2.1626,0.0,0.0,-2.9159,0.0,0.0,-3.5668,-3.7483,0.0,-4.0845,-4.245,-4.3423,-4.4221,-4.4965,-4.5137,-4.5573,-4.6382,-4.5715,-4.61,-4.7776,-4.7834,-4.8253,-4.9129,-4.9981,-5.0046,-4.9335,-5.0,-5.0707,-5.141,-5.1544,-5.2016,-5.2705,0.0,-5.292,-5.2962,-5.2989,-5.2989,-5.3057,-5.3807,-5.4093,-5.4161,-5.4809,-5.4971,-5.4901,-5.4799,-5.4736,-5.4742,-5.4856,-5.4735,-5.4538,-5.4505,-5.4439,-5.4424,-5.4443,-5.4424,-5.4424,-5.4424,-5.439,-5.4375,-5.4324,-5.4308,-5.4254,-5.4074,-5.4019,-5.3982,-5.3851,-5.437,-5.4611,-5.3924,-5.437,-5.4593,-5.3905,-5.3813,-5.3813,-5.3813,-5.3813,-5.3813,-5.3813,-5.3813,-5.3813,-5.3813,-5.3813,-5.3813,-5.3813,-5.4574,-5.5336,-5.6079,-5.6097,-5.5707,-5.4834,-5.588,-5.6499,-5.6594,-5.7623,-5.854,-5.929,-5.929,-5.929,-1.581,-1.7583,-1.8779,-1.6847,-1.8573,-2.0451,-1.9276,0.0,0.0,0.0,0.0,0.0,0.0,0.0,-2.3858,-2.7262,0.0,-3.1174,-3.37,-3.5133,-3.6511,0.0,0.0,-4.0461,-4.1244,-4.2082,-4.269,-4.3071,-4.3967,-4.4652,-4.4969,-4.5065,-4.5864,-4.7538,-4.7596,-4.8014,-4.889,-4.9782,-5.004,-4.9654,-5.0035,-5.0416,-5.0773,-5.0773,-5.1205,-5.1954,0.0,-5.2056,-5.2437,-5.2437,-5.2409,-5.2475,-5.3338,-5.3661,-5.3716,-5.4538,-5.4829,-5.4767,-5.4622,-5.4641,-5.4673,-5.4576,-5.4524,-5.4486,-5.4458,-5.4409,-5.4359,-5.4359,-5.4375,-5.4409,-5.4409,-5.4375,-5.4324,-5.4308,-5.4237,-5.4111,-5.4037,-5.3944,-5.3851,-5.3813,-5.411,-5.424,-5.3868,-5.411,-5.424,-5.3868,-5.3813,-5.3813,-5.3813,-5.3813,-5.398,-5.4407,-5.4073,-5.398,-5.4407,-5.4054,-5.3998,-5.4426,-5.5243,-5.5893,-5.6283,-5.6729,-5.6562,-5.5726,-5.6567,-5.6889,-5.6594,-5.7454,-5.7941,-5.8014,-5.8445,-5.8652,-1.5084,-1.6631,-1.8003,-1.7587,0.0,-2.1848,-2.1643,0.0,0.0,0.0,0.0,0.0,0.0,-2.4631,0.0,-3.0109,-3.1622,-3.3104,-3.5193,-3.6396,-3.7524,-3.8747,-3.9604,-4.0172,-4.0363,-4.0971,-4.1428,-4.1559,-4.3006,-4.3843,-4.3783,-4.4581,-4.5627,-4.692,-4.7314,-4.7846,-4.8511,-4.9347,-4.9772,-4.9822,-5.0012,-5.0012,-4.9822,-4.9822,-5.0133,-5.0681,-5.0589,-5.0979,-5.1687,-5.1687,-5.1658,-5.1703,-5.2575,-5.3093,-5.3503,-5.4352,-5.4641,-5.4641,-5.4524,-5.4557,-5.4608,-5.4443,-5.439,-5.4458,-5.4356,-5.4306,-5.4254,-5.4254,-5.4306,-5.4321,-5.4321,-5.4306,-5.4254,-5.4219,-5.4111,-5.3982,-5.3944,-5.3851,-5.3813,-5.3813,-5.3961,-5.4017,-5.3831,-5.3961,-5.4017,-5.3831,-5.3813,-5.3813,-5.3813,-5.3813,-5.4054,-5.4648,-5.4351,-5.4333,-5.4964,-5.4258,-5.4073,-5.4724,-5.5579,-5.6137,-5.6323,-5.6918,-5.6955,-5.6341,-5.6958,-5.7094,-5.6594,-5.7267,-5.7472,-5.7187,-5.7619,-5.8032,-1.5612,-1.6196,-1.6544,-1.7236,-1.8789,0.0,-2.2159,-2.241,0.0,0.0,0.0,0.0,0.0,-2.8565,-3.0259,-3.2121,-3.383,-3.5257,-3.6172,0.0,-3.8766,-3.888,-3.9545,-4.0319,-4.1136,-4.1269,-4.1592,-4.2265,-4.324,-4.3771,-4.3725,-4.4483,-4.4976,-4.5109,-4.6549,-4.7348,-4.7405,-4.8256,-4.878,-4.9004,-4.9746,-4.9708,-4.8985,-4.8985,-4.8948,-4.8901,-4.8875,-4.9248,-4.9881,-4.9881,-4.9862,-4.9956,-5.0778,-5.2013,-5.3503,-5.4237,-5.4486,-5.4505,-5.4424,-5.439,-5.4409,-5.4324,-5.4308,-5.4289,-5.4181,-5.4127,-5.4127,-5.4127,-5.4127,-5.4127,-5.4127,-5.4127,-5.411,-5.4019,-5.4,-5.3944,-5.3851,-5.3813,-5.3813,-5.3813,-5.4407,-5.4686,-5.3943,-5.4426,-5.4667,-5.3924,-5.3813,-5.3813,-5.3813,-5.3813,-5.3831,-5.3887,-5.45,-5.4946,-5.5001,-5.4258,-5.3888,-5.4075,-5.4839,-5.5621,-5.6385,-5.6459,-5.6459,-5.6403,-5.6379,-5.6476,-5.6594,-5.665,-5.7155,-5.8014,-5.7319,-5.7788,-1.5045,-1.613,-1.716,-1.8003,0.0,0.0,0.0,0.0,0.0,0.0,0.0,0.0,0.0,0.0,-3.1806,-3.2485,-3.4025,-3.5605,-3.6957,-3.8118,-3.9012,-3.9526,-3.9827,-4.0108,-4.0388,-4.0919,-4.1355,-4.1616,-4.2901,-4.3677,-4.3701,-4.4459,-4.5363,-4.6353,-4.6989,-4.7529,-4.7985,-4.8834,-4.8796,-4.7837,-4.8742,-4.8943,-4.8594,-4.8594,-4.8567,-4.8474,-4.7956,-4.8145,-4.8813,-4.8784,-4.9093,-4.9657,-5.0447,-5.1463,-5.2497,-5.2785,-5.2865,-5.2865,-5.2832,-5.3207,-5.3564,-5.3005,-5.3159,-5.3496,-5.29,-5.3038,-5.3344,-5.3344,-5.3626,-5.3944,-5.4055,-5.4073,-5.4055,-5.4,-5.3944,-5.3851,-5.3813,-5.3813,-5.3813,-5.3813,-5.4054,-5.4166,-5.385,-5.4054,-5.4166,-5.385,-5.3813,-5.3813,-5.3813,-5.3813,-5.3998,-5.45,-5.4834,-5.5001,-5.5001,-5.4258,-5.3813,-5.3851,-5.4613,-5.5266,-5.5678,-5.6588,-5.7088,-5.7167,-5.7568,-5.7609,-5.7206,-5.6798,-5.6575,-5.6479,-5.6213,-5.6436,-1.4373,-1.5356,-1.6574,0.0,0.0,0.0,0.0,0.0,0.0,0.0,-3.0483,0.0,0.0,0.0,0.0,0.0,-3.4582,-3.6273,-3.7414,-3.8477,-3.9349,-3.9918,-3.9954,-3.9911,-3.9841,-4.064,-4.1154,-4.1108,-4.2635,-4.358,-4.3629,-4.4386,-4.5325,-4.6426,-4.6682,-4.707,-4.7589,-4.8174,-4.7891,-4.6732,-4.7391,-4.7701,-4.7655,-4.7919,-4.8004,-4.7938,-4.7062,-4.7466,-4.866,-4.8337,-4.8701,-4.9584,-5.0391,-5.1029,-5.1555,-5.1818,-5.1879,-5.1879,-5.1879,-5.224,-5.2615,-5.2001,-5.2173,-5.2529,-5.1915,-5.2055,-5.2472,-5.2714,-5.2939,-5.3144,-5.3534,-5.3777,-5.3944,-5.3944,-5.3851,-5.3813,-5.3813,-5.3813,-5.3813,-5.3813,-5.3813,-5.3813,-5.3813,-5.3813,-5.3813,-5.3813,-5.3813,-5.3813,-5.3813,-5.3813,-5.4221,-5.5299,-5.4946,-5.4853,-5.5373,-5.4426,-5.3813,-5.3851,-5.4333,-5.4818,-5.5268,-5.6254,-5.6941,-5.7281,-5.7258,-5.7167,-5.6928,-5.622,-5.5734,-5.5542,-5.5332,-5.5516,-1.3696,-1.3712,0.0,0.0,0.0,0.0,0.0,0.0,0.0,0.0,0.0,-3.2762,-3.3543,0.0,0.0,-3.3562,-3.5818,-3.7489,-3.7508,-3.8871,-3.9889,-3.9889,-3.9826,-3.9777,-3.9736,-4.0566,-4.1057,-4.0935,-4.253,-4.3498,-4.3498,-4.4278,-4.4712,-4.4712,-4.5404,-4.5791,-4.5791,-4.581,-4.5782,-4.5697,-4.5782,-4.5875,-4.6013,-4.6825,-4.7174,-4.7052,-4.6186,-4.7202,-4.9415,-4.8551,-4.872,-4.9584,-5.0372,-5.0673,-5.0767,-5.1574,-5.1828,-5.1761,-5.1761,-5.1746,-5.1644,-5.1502,-5.1467,-5.1486,-5.1397,-5.1379,-5.1565,-5.2345,-5.2011,-5.1584,-5.2382,-5.3181,-5.3775,-5.3775,-5.3775,-5.3775,-5.3775,-5.3775,-5.3775,-5.3794,-5.3794,-5.3794,-5.3813,-5.3813,-5.3813,-5.3813,-5.3813,-5.3813,-5.3813,-5.3813,-5.4444,-5.6116,-5.4797,-5.4481,-5.6153,-5.476,-5.3851,-5.4,-5.3869,-5.4222,-5.5155,-5.5268,-5.5697,-5.6575,-5.495,-5.4575,-5.5489,-5.4701,-5.4737,-5.5592,-5.4784,-5.5291,-1.3855,-1.4969,0.0,0.0,0.0,0.0,0.0,0.0,0.0,0.0,0.0,-3.4055,-3.3715,0.0,0.0,-3.3526,-3.5248,-3.6785,-3.7351,-3.8826,-3.9804,-3.9762,-3.9735,-3.9934,-4.0508,-4.1299,-4.2033,-4.2603,-4.3646,-4.4275,-4.4275,-4.4553,-4.4949,-4.5461,-4.5678,-4.5782,-4.5726,-4.6346,-4.6017,-4.4815,-4.5996,-4.6298,-4.5811,-4.6656,-4.7051,-4.7022,-4.6663,-4.729,-4.8553,-4.8789,-4.907,-4.9313,-4.9557,-4.965,-4.9669,-4.9912,-4.9992,-4.9992,-4.9992,-5.0333,-5.0692,-5.006,-5.0266,-5.062,-5.0027,-5.02,-5.0687,-5.0929,-5.1174,-5.1454,-5.1695,-5.1936,-5.2104,-5.2104,-5.2104,-5.2104,-5.2104,-5.2104,-5.2289,-5.2847,-5.2958,-5.3144,-5.3701,-5.3813,-5.3813,-5.3813,-5.3813,-5.3813,-5.3813,-5.3813,-5.4221,-5.528,-5.4444,-5.424,-5.5299,-5.4407,-5.3813,-5.3851,-5.4333,-5.4577,-5.4447,-5.4857,-5.5247,-5.5603,-5.562,-5.5787,-5.6048,-5.5343,-5.5154,-5.5359,-5.4696,-5.4672,-1.5076,0.0,0.0,0.0,0.0,0.0,0.0,0.0,0.0,0.0,0.0,-3.4339,-3.415,-3.3828,0.0,-3.4392,-3.5699,-3.6911,-3.7721,-3.8905,-3.967,-3.9623,-3.9623,-3.9957,-4.0729,-4.1606,-4.2434,-4.3292,-4.41,-4.4551,-4.4551,-4.4605,-4.4955,-4.5707,-4.5406,-4.5378,-4.564,-4.5875,-4.5434,-4.4458,-4.5442,-4.5696,-4.5237,-4.636,-4.6885,-4.6892,-4.7498,-4.786,-4.8084,-4.8538,-4.8898,-4.916,-4.8791,-4.8866,-4.9179,-4.9146,-4.9131,-4.9131,-4.9079,-4.9362,-4.9663,-4.9126,-4.9294,-4.9591,-4.9161,-4.935,-4.978,-5.0131,-5.03,-5.0488,-5.0803,-5.0655,-5.058,-5.1249,-5.1398,-5.1398,-5.1398,-5.1658,-5.1936,-5.2085,-5.2382,-5.2661,-5.2828,-5.2847,-5.2958,-5.3292,-5.3608,-5.3813,-5.3813,-5.3813,-5.411,-5.4927,-5.4296,-5.4128,-5.4946,-5.4258,-5.3813,-5.3813,-5.4258,-5.4352,-5.4,-5.4708,-5.5116,-5.5193,-5.5379,-5.5529,-5.551,-5.5136,-5.4928,-5.4928,-5.4581,-5.4409,0.0,0.0,0.0,0.0,0.0,0.0,0.0,0.0,0.0,0.0,0.0,-3.3961,-3.4755,-3.4205,-3.4108,-3.5635,-3.6597,-3.743,-3.8165,-3.8898,-3.9389,-3.9389,-3.9464,-3.9833,-4.0712,-4.1567,-4.2446,-4.3332,-4.4074,-4.4487,-4.4487,-4.4487,-4.4796,-4.5469,-4.4776,-4.4739,-4.5488,-4.4757,-4.443,-4.4487,-4.4487,-4.4411,-4.441,-4.5922,-4.6676,-4.6869,-4.8506,-4.8754,-4.8082,-4.8063,-4.8492,-4.9071,-4.8133,-4.8352,-4.9127,-4.8934,-4.8956,-4.9015,-4.8909,-4.8839,-4.8751,-4.8642,-4.8587,-4.8623,-4.8732,-4.8787,-4.8935,-4.9765,-4.9431,-4.9041,-4.9765,-4.9412,-4.928,-5.0822,-5.1175,-5.1175,-5.1175,-5.1751,-5.2067,-5.1416,-5.1881,-5.2197,-5.1602,-5.1454,-5.1676,-5.2475,-5.3292,-5.3813,-5.3813,-5.3813,-5.4091,-5.4816,-5.424,-5.411,-5.4834,-5.4221,-5.3813,-5.3813,-5.3813,-5.3813,-5.3813,-5.4614,-5.5081,-5.5081,-5.4557,-5.4273,-5.4289,-5.4359,-5.4409,-5.4409,-5.4409,-5.4409,0.0,0.0,0.0,0.0,0.0,0.0,0.0,0.0,0.0,0.0,-3.4072,-3.4581,-3.471,-3.4617,-3.4597,-3.4789,-3.5606,-3.6271,-3.6434,-3.7619,-3.8471,-3.8471,-3.9039,-3.996,-4.1334,-4.1735,-4.2473,-4.397,-4.425,-4.4373,-4.4411,-4.4373,-4.4448,-4.4645,-4.4418,-4.4389,-4.4576,-4.4408,-4.4285,-4.4274,-4.4274,-4.4195,-4.4135,-4.5305,-4.6483,-4.7625,-4.8688,-4.8922,-4.8633,-4.8633,-4.8691,-4.8657,-4.7914,-4.8099,-4.8657,-4.8099,-4.8248,-4.8714,-4.866,-4.8678,-4.8642,-4.8587,-4.8587,-4.8587,-4.8623,-4.8642,-4.8679,-4.8881,-4.8807,-4.8697,-4.8881,-4.8879,-4.8915,-4.9267,-4.9377,-4.9447,-4.9447,-4.9577,-4.9837,-5.0302,-5.0562,-5.1063,-5.2159,-5.1825,-5.1676,-5.2475,-5.3292,-5.3813,-5.3813,-5.3813,-5.3868,-5.4054,-5.3905,-5.3868,-5.4054,-5.3905,-5.3813,-5.3813,-5.3813,-5.3813,-5.3813,-5.398,-5.4149,-5.4261,-5.4112,-5.4092,-5.4146,-5.4271,-5.4324,-5.4324,-5.4375,-5.4409,0.0,0.0,0.0,0.0,0.0,0.0,0.0,0.0,0.0,-3.3269,-3.4083,-3.4687,-3.4687,-3.4645,-3.4733,-3.5079,-3.5514,-3.5927,-3.6316,-3.7343,-3.8077,-3.8103,-3.8798,-3.9732,-4.1008,-4.1549,-4.2324,-4.3575,-4.4042,-4.4314,-4.4344,-4.4314,-4.4472,-4.4864,-4.4461,-4.4431,-4.4804,-4.4382,-4.4147,-4.4147,-4.4116,-4.4055,-4.3979,-4.5003,-4.627,-4.772,-4.8166,-4.8505,-4.8623,-4.7864,-4.7718,-4.7904,-4.6703,-4.674,-4.7442,-4.7442,-4.7682,-4.807,-4.844,-4.855,-4.855,-4.8495,-4.8458,-4.8458,-4.8532,-4.855,-4.855,-4.8587,-4.8587,-4.8587,-4.8587,-4.8642,-4.8697,-4.8697,-4.8785,-4.8909,-4.8909,-4.9206,-4.9485,-4.9522,-4.9856,-5.0302,-5.0748,-5.1156,-5.1676,-5.2475,-5.3292,-5.3813,-5.3813,-5.3813,-5.3813,-5.3813,-5.3813,-5.3813,-5.3813,-5.3813,-5.3813,-5.3813,-5.3813,-5.3813,-5.3888,-5.3907,-5.3944,-5.4,-5.4111,-5.4183,-5.42,-5.4306,-5.4359,-5.4359,-5.4375,-5.4409,0.0,0.0,0.0,0.0,0.0,0.0,0.0,0.0,0.0,-3.3022,-3.3933,-3.4583,-3.4645,-3.4517,-3.4652,-3.5404,-3.5493,-3.5693,-3.6366,-3.7043,-3.7567,-3.775,-3.8552,-3.9435,-4.0328,-4.1203,-4.208,-4.2883,-4.3479,-4.3901,-4.4031,-4.3901,-4.4188,-4.4948,-4.4153,-4.4116,-4.4935,-4.4153,-4.3801,-4.3844,-4.3931,-4.3929,-4.3902,-4.4703,-4.5834,-4.7175,-4.7323,-4.7661,-4.8088,-4.6705,-4.6557,-4.7,-4.5418,-4.5436,-4.6411,-4.691,-4.7279,-4.761,-4.8089,-4.8346,-4.8438,-4.8179,-4.8196,-4.8306,-4.8419,-4.8457,-4.8494,-4.8532,-4.855,-4.855,-4.855,-4.8569,-4.8569,-4.8569,-4.8714,-4.8855,-4.8874,-4.9394,-4.9672,-4.9039,-4.9559,-4.9837,-4.9039,-5.0283,-5.1565,-5.2085,-5.2865,-5.3441,-5.3571,-5.359,-5.3664,-5.3794,-5.3813,-5.3813,-5.3813,-5.3813,-5.3813,-5.3813,-5.3813,-5.3888,-5.4,-5.4037,-5.4074,-5.4074,-5.4237,-5.4308,-5.4324,-5.4375,-5.4409,-5.4409,-5.4409,-5.4409,0.0,0.0,0.0,0.0,0.0,0.0,0.0,0.0,0.0,0.0,-3.3803,-3.4427,-3.445,-3.4427,-3.4423,-3.4507,-3.4484,-3.4521,-3.4633,-3.5324,-3.6073,-3.6798,-3.8155,-3.9293,-4.0078,-4.0892,-4.1767,-4.2662,-4.2198,-4.221,-4.2958,-4.2326,-4.2326,-4.3125,-4.231,-4.2242,-4.3052,-4.2884,-4.2797,-4.2797,-4.3486,-4.3837,-4.3804,-4.3948,-4.4502,-4.5408,-4.6091,-4.6391,-4.6431,-4.621,-4.6102,-4.5993,-4.5145,-4.568,-4.693,-4.6433,-4.7077,-4.8087,-4.748,-4.7737,-4.8196,-4.7498,-4.7737,-4.8306,-4.8306,-4.8324,-4.8306,-4.8344,-4.8344,-4.8344,-4.8344,-4.8438,-4.8494,-4.8494,-4.8587,-4.8678,-4.8787,-4.8915,-4.8952,-4.8927,-4.9559,-4.9837,-4.9039,-5.0283,-5.1175,-5.0543,-5.1175,-5.1974,-5.2679,-5.2754,-5.3032,-5.3738,-5.3813,-5.3813,-5.3813,-5.3813,-5.3813,-5.3813,-5.3907,-5.3982,-5.4,-5.4147,-5.4273,-5.4273,-5.4308,-5.4324,-5.4375,-5.4409,-5.4409,-5.4409,-5.4409,-5.4409,0.0,0.0,0.0,0.0,0.0,0.0,0.0,0.0,-3.1399,-3.2154,-3.2994,-3.3706,-3.4242,-3.4269,-3.4221,-3.4245,-3.4221,-3.4173,-3.4148,-3.4858,-3.5499,-3.5877,-3.7276,-3.8375,-3.8726,-3.9889,-4.0806,-4.1206,-4.1373,-4.1625,-4.2008,-4.1693,-4.1656,-4.2008,-4.1644,-4.1613,-4.1964,-4.1852,-4.2009,-4.2456,-4.3266,-4.3634,-4.3634,-4.3634,-4.4076,-4.4918,-4.5268,-4.5622,-4.5956,-4.5515,-4.5277,-4.5149,-4.4358,-4.4487,-4.5094,-4.5258,-4.6011,-4.6966,-4.7076,-4.7645,-4.8251,-4.7902,-4.8012,-4.8306,-4.8306,-4.8306,-4.8306,-4.8306,-4.8306,-4.8306,-4.8306,-4.8344,-4.8401,-4.8401,-4.8476,-4.8587,-4.866,-4.8751,-4.8822,-4.8874,-4.9187,-4.9466,-4.9559,-5.019,-5.0711,-5.0822,-5.1156,-5.1695,-5.2512,-5.2605,-5.2921,-5.372,-5.3813,-5.3813,-5.3813,-5.3813,-5.3851,-5.3907,-5.3982,-5.4037,-5.4147,-5.4254,-5.4324,-5.4359,-5.4359,-5.4375,-5.4409,-5.4409,-5.4409,-5.4409,-5.4409,-5.4424,0.0,0.0,0.0,0.0,0.0,0.0,0.0,0.0,-3.0154,0.0,-3.1834,-3.2524,-3.3393,-3.387,-3.4025,-3.387,-3.3784,-3.3734,-3.3684,-3.4257,-3.4829,-3.5227,-3.6629,-3.7624,-3.7653,-3.9091,-4.005,-4.0062,-4.0486,-4.0849,-4.1034,-4.0868,-4.0849,-4.1052,-4.0868,-4.0849,-4.1052,-4.1112,-4.1673,-4.2598,-4.3204,-4.3497,-4.3497,-4.3497,-4.3844,-4.4483,-4.4483,-4.4779,-4.5241,-4.4635,-4.4397,-4.4342,-4.3718,-4.3608,-4.3883,-4.4488,-4.5351,-4.6269,-4.6673,-4.7462,-4.8269,-4.8067,-4.8141,-4.8306,-4.8306,-4.8306,-4.8306,-4.8306,-4.8306,-4.8306,-4.8306,-4.8306,-4.8306,-4.8306,-4.8401,-4.8532,-4.8605,-4.8732,-4.8857,-4.8909,-4.8909,-4.9094,-4.9689,-4.98,-5.0023,-5.0673,-5.0766,-5.1063,-5.1862,-5.1992,-5.2382,-5.3385,-5.3497,-5.359,-5.3832,-5.3851,-5.3888,-5.4019,-5.4074,-5.4147,-5.4308,-5.4343,-5.4359,-5.4409,-5.4409,-5.4409,-5.4409,-5.4409,-5.4409,-5.4409,-5.4409,-5.4424,0.0,0.0,0.0,0.0,0.0,0.0,0.0,0.0,0.0,-3.0074,-3.0448,-3.0748,-3.1415,-3.2939,-3.3815,-3.3007,-3.2871,-3.2871,-3.2853,-3.2908,-3.3511,-3.5018,-3.6619,-3.7566,-3.7507,-3.8977,-3.9945,-4.0019,-3.9356,-3.9282,-4.0038,-3.9416,-3.9342,-4.0056,-3.9338,-3.9301,-4.0075,-4.074,-4.1882,-4.3424,-4.3461,-4.3497,-4.3497,-4.3497,-4.3516,-4.3552,-4.3552,-4.3571,-4.3608,-4.3571,-4.3552,-4.3552,-4.3516,-4.3975,-4.4654,-4.469,-4.57,-4.6948,-4.6214,-4.6985,-4.8177,-4.7425,-4.77,-4.8306,-4.8306,-4.8306,-4.8306,-4.8306,-4.8306,-4.8306,-4.8306,-4.8306,-4.8306,-4.8306,-4.8401,-4.8532,-4.8751,-4.8857,-4.8909,-4.8909,-4.8909,-4.8909,-4.8964,-4.8964,-4.8983,-4.902,-4.9039,-4.9317,-5.0135,-5.0283,-5.0933,-5.2494,-5.2661,-5.3014,-5.3926,-5.4,-5.4019,-5.4091,-5.42,-5.4308,-5.4308,-5.434,-5.4409,-5.4409,-5.4409,-5.4409,-5.4409,-5.4409,-5.4409,-5.4409,-5.4409,-5.4424,-1.2752,0.0,0.0,0.0,0.0,0.0,0.0,-2.5836,-2.6997,-2.9112,-2.9554,-2.9936,-3.1139,-3.1937,-3.233,-3.1961,-3.1949,-3.1949,-3.19,-3.2366,-3.2919,-3.3466,-3.4908,-3.6101,-3.667,-3.7607,-3.84,-3.8988,-3.823,-3.7888,-3.8193,-3.8016,-3.8077,-3.8322,-3.9105,-3.9858,-4.0565,-4.1394,-4.204,-4.2536,-4.2536,-4.2536,-4.2536,-4.2536,-4.2244,-4.1805,-4.2865,-4.3375,-4.3497,-4.3497,-4.3497,-4.3497,-4.3497,-4.3646,-4.3851,-4.3851,-4.4821,-4.6101,-4.5808,-4.6815,-4.8172,-4.7879,-4.8009,-4.8306,-4.8306,-4.8306,-4.8306,-4.8306,-4.8306,-4.8306,-4.8306,-4.8306,-4.8344,-4.8439,-4.8532,-4.8624,-4.8804,-4.8874,-4.8909,-4.8909,-4.8909,-4.8909,-4.8909,-4.8909,-4.8909,-4.8909,-4.8909,-4.9187,-5.0005,-5.0116,-5.058,-5.1714,-5.1825,-5.1955,-5.2289,-5.2828,-5.3199,-5.3306,-5.3431,-5.35,-5.3605,-5.362,-5.362,-5.362,-5.4127,-5.4409,-5.4409,-5.4409,-5.4409,-5.4409,-5.4409,-5.4458,-1.1635,-1.2307,0.0,0.0,0.0,0.0,0.0,0.0,-2.4577,-2.724,-2.8011,-2.8572,-2.9814,-3.0345,-3.0668,-3.0894,-3.0956,-3.098,-3.0931,-3.1433,-3.1964,-3.2462,-3.368,-3.4814,-3.5703,-3.6401,-3.7046,-3.7637,-3.7374,0.0,-3.6814,-3.7387,-3.7729,-3.7729,-3.909,-4.0119,-4.0839,-4.1732,-4.2227,-4.2394,-4.212,-4.1993,-4.1993,-4.1993,-4.1555,-4.0896,-4.2503,-4.3122,-4.3025,-4.33,-4.3393,-4.3393,-4.3393,-4.3358,-4.334,-4.334,-4.4127,-4.5202,-4.5202,-4.6298,-4.7746,-4.7746,-4.7949,-4.8286,-4.8286,-4.8267,-4.8306,-4.8306,-4.8306,-4.8306,-4.8306,-4.8344,-4.8401,-4.855,-4.8623,-4.8714,-4.8874,-4.8909,-4.8909,-4.8909,-4.8909,-4.8909,-4.8909,-4.8909,-4.8909,-4.8909,-4.8909,-4.9094,-4.9633,-4.9707,-5.0023,-5.0932,-5.0971,-5.1118,-5.1414,-5.1989,-5.2453,-5.2858,-5.2947,-5.3016,-5.3136,-5.3136,-5.3005,-5.2757,-5.3282,-5.3695,-5.3996,-5.4277,-5.4409,-5.4409,-5.4409,-5.4491,0.0,0.0,0.0,0.0,0.0,0.0,-2.0446,0.0,-2.1274,-2.4474,-2.5731,-2.6512,-2.7318,-2.8142,-2.8986,-2.9794,-2.994,-2.9958,-2.9958,-2.9995,-3.0578,-3.2128,-3.304,-3.3842,-3.4655,-3.5447,-3.5921,-3.5957,-3.6687,-3.6796,-3.603,-3.7489,-3.8364,-3.8419,-3.9203,-4.0024,-4.0844,-4.1628,-4.243,-4.3196,-4.2357,-4.1956,-4.1956,-4.1938,-4.1482,-4.0789,-4.243,-4.2667,-4.1993,-4.285,-4.3214,-4.3214,-4.3214,-4.3214,-4.3214,-4.3214,-4.3707,-4.4381,-4.4381,-4.5457,-4.6807,-4.6807,-4.7451,-4.8187,-4.8187,-4.8247,-4.8306,-4.8306,-4.8306,-4.8306,-4.8306,-4.8419,-4.8494,-4.8569,-4.8697,-4.8822,-4.8874,-4.8909,-4.8909,-4.8909,-4.8909,-4.8909,-4.8909,-4.8909,-4.8909,-4.8909,-4.8909,-4.8909,-4.8909,-4.8909,-4.9259,-5.0147,-5.0133,-5.0466,-5.1423,-5.15,-5.1873,-5.2746,-5.2837,-5.2872,-5.2922,-5.2922,-5.2582,-5.1893,-5.1893,-5.2325,-5.3151,-5.3939,-5.4334,-5.4352,-5.4371,-5.4439,-0.973,0.0,0.0,0.0,0.0,0.0,0.0,0.0,-1.8176,-2.2499,-2.3118,-2.3606,-2.6105,-2.6776,-2.7175,-2.7924,-2.8658,-2.9138,-2.9138,-2.963,-3.0159,-3.0597,-3.1336,-3.2111,-3.2893,-3.3673,-3.437,0.0,-3.5175,-3.5483,-3.5846,-3.6808,-3.7962,-3.9221,-3.9993,-4.0777,-4.1595,-4.2396,-4.285,-4.2957,-4.1542,-4.089,-4.0889,-4.0238,-3.9603,-3.9018,-4.0563,-4.0817,-4.0289,-4.2341,-4.3214,-4.3214,-4.3214,-4.3178,-4.3141,-4.3141,-4.3577,-4.4173,-4.4173,-4.5321,-4.6724,-4.6724,-4.7332,-4.805,-4.805,-4.813,-4.8226,-4.8226,-4.8247,-4.8306,-4.8306,-4.8306,-4.8401,-4.8494,-4.8569,-4.8606,-4.8787,-4.8822,-4.8839,-4.8909,-4.8909,-4.8909,-4.8909,-4.8909,-4.8909,-4.8909,-4.8909,-4.8909,-4.8909,-4.8909,-4.9036,-4.9399,-4.9403,-4.9477,-4.9769,-5.0344,-5.0807,-5.1065,-5.1189,-5.1256,-5.1335,-5.1335,-5.1222,-5.1029,-5.1593,-5.2024,-5.225,-5.2475,-5.2926,-5.3526,-5.3574,-5.3959,-1.0331,-1.0612,-1.1411,-1.2092,0.0,0.0,-1.535,-1.5251,-1.5769,0.0,-2.1025,-2.1694,-2.4227,-2.5217,-2.5809,-2.6231,-2.7067,-2.7894,-2.8547,-2.9062,-2.9486,-2.9805,-3.0232,-3.0831,-3.1656,-3.2079,-3.2665,-3.352,-3.387,-3.4672,-3.6154,-3.632,-3.7148,-3.8824,-3.9657,-4.0455,-4.127,-4.2105,-4.263,-4.2862,-4.1522,-4.0708,-4.0347,-3.9842,-3.9049,-3.8162,-3.9734,-4.0022,-3.9461,-4.1288,-4.225,-4.2596,-4.2959,-4.3068,-4.3012,-4.3012,-4.3246,-4.3588,-4.3588,-4.4479,-4.566,-4.5987,-4.6484,-4.7095,-4.7791,-4.7853,-4.7805,-4.8117,-4.8047,-4.781,-4.781,-4.7609,-4.7408,-4.75,-4.7537,-4.7555,-4.7698,-4.8011,-4.8414,-4.88,-4.8909,-4.8909,-4.8909,-4.8962,-4.8996,-4.8996,-4.903,-4.9012,-4.9012,-4.9012,-4.9064,-4.9164,-4.915,-4.915,-4.9164,-4.9627,-5.0038,-5.0374,-5.0445,-5.0563,-5.0609,-5.0609,-5.0491,-5.0203,-5.0654,-5.1067,-5.1405,-5.21,-5.2869,-5.3695,-5.3762,-5.4039,-1.1549,-1.1679,-1.2602,-1.3936,-1.2741,0.0,-1.5623,-1.4702,-1.4141,0.0,-1.8966,-1.9849,-2.1599,-2.3109,-2.4132,-2.4222,-2.5049,-2.6249,-2.7921,-2.8206,-2.8484,-2.9134,-2.9278,-2.9593,-3.0287,-3.0458,-3.0882,-3.1717,-3.269,-3.423,-3.6417,-3.5882,-3.6173,-3.7593,-3.8545,-3.9409,-4.0113,-4.1071,-4.1884,-4.2551,-4.1701,-4.0906,-4.0092,-3.9947,-3.9193,-3.7989,-3.9427,-3.9662,-3.912,-3.9914,-4.0854,-4.1778,-4.2484,-4.281,-4.2882,-4.2882,-4.2882,-4.2882,-4.2882,-4.3425,-4.4204,-4.4928,-4.5316,-4.5797,-4.7259,-4.7323,-4.7036,-4.7809,-4.7535,-4.6985,-4.6985,-4.6544,-4.6083,-4.6083,-4.6135,-4.6151,-4.6205,-4.6921,-4.7787,-4.8595,-4.8834,-4.8909,-4.8909,-4.8996,-4.9068,-4.9068,-4.9131,-4.9179,-4.9197,-4.9197,-4.923,-4.9289,-4.9244,-4.9244,-4.9289,-4.9244,-4.9529,-5.0206,-5.0295,-5.0328,-5.0394,-5.0394,-5.0108,-4.9509,-4.9509,-4.994,-5.0842,-5.2231,-5.3376,-5.4259,-5.4165,-5.4221,-1.4738,-1.4467,-1.4552,-1.4212,-1.4674,0.0,-1.4691,-1.4185,-1.4232,0.0,-1.5103,-1.4999,-1.7265,-1.8466,-1.9291,-1.9882,-2.1747,-2.3903,-2.6237,-2.6543,-2.6621,-2.6759,-2.6777,-2.6849,-2.6954,-2.8136,-2.891,-2.9062,-3.1654,-3.3669,-3.4717,-3.519,-3.5585,-3.5939,-3.7343,-3.8204,-3.8453,-3.9932,-4.0763,-4.0944,-4.0022,-3.9536,-3.9355,-3.8564,-3.808,-3.7917,-3.8222,-3.8276,-3.8222,-3.9067,-4.0348,-4.1704,-4.1886,-4.2339,-4.2882,-4.2882,-4.2882,-4.2882,-4.2882,-4.3425,-4.4114,-4.4411,-4.4958,-4.5579,-4.5966,-4.6063,-4.6084,-4.6305,-4.6269,-4.614,-4.614,-4.603,-4.5938,-4.5938,-4.5938,-4.5974,-4.6083,-4.6797,-4.7531,-4.7787,-4.8428,-4.8909,-4.8909,-4.8909,-4.8943,-4.8943,-4.8943,-4.8996,-4.9101,-4.9135,-4.9183,-4.9276,-4.9308,-4.9276,-4.9308,-4.9308,-4.9332,-4.9501,-4.9501,-4.9551,-4.9684,-4.9703,-4.9628,-4.9509,-4.9509,-5.0222,-5.1668,-5.133,-5.1949,-5.3414,-5.27,-5.3179,-1.7046,-1.6603,-1.685,-1.646,-1.6286,0.0,0.0,-1.5097,-1.4515,-1.6563,-1.5104,-1.4197,-1.6595,-1.7378,-1.7753,-1.8093,-2.018,-2.2039,-2.2887,-2.4759,-2.5877,-2.5416,-2.5739,-2.5828,-2.5392,-2.6387,-2.7406,-2.8174,-3.0521,-3.2235,-3.3019,-3.3698,-3.4324,-3.4784,-3.5966,-3.6841,-3.7304,-3.8131,-3.8923,-3.9698,-3.9211,-3.8779,-3.8385,-3.8294,-3.7864,-3.7272,-3.7613,-3.7828,-3.7935,-3.8348,-3.9319,-4.0492,-4.0926,-4.1596,-4.2303,-4.2303,-4.2556,-4.29,-4.2994,-4.3266,-4.3665,-4.4178,-4.4343,-4.4507,-4.544,-4.5772,-4.5847,-4.5902,-4.5608,-4.5296,-4.5296,-4.5002,-4.469,-4.469,-4.469,-4.4726,-4.4798,-4.5493,-4.6299,-4.681,-4.762,-4.8375,-4.8834,-4.8962,-4.8996,-4.8996,-4.9046,-4.9113,-4.9197,-4.9249,-4.9332,-4.939,-4.9409,-4.9409,-4.9409,-4.9409,-4.9409,-4.9409,-4.9409,-4.944,-4.9509,-4.9509,-4.9509,-4.9509,-4.9509,-5.0091,-5.1292,-5.0485,-5.1367,-5.3789,-5.3357,-5.3668,-1.919,-1.8718,-1.9162,-1.8863,-1.8156,-1.768,0.0,0.0,0.0,-1.7382,-1.5646,-1.437,-1.63,0.0,0.0,-1.6745,0.0,0.0,0.0,-2.2446,0.0,-2.3791,-2.4456,-2.4688,-2.4052,-2.4491,-2.5674,-2.7772,-2.8887,-3.0005,-3.1213,-3.1836,-3.2503,-3.3351,-3.4378,-3.5249,-3.5892,-3.6265,-3.7127,-3.8492,-3.8456,-3.8079,-3.7434,-3.8201,-3.7827,-3.6594,-3.7292,-3.7703,-3.7846,-3.7899,-3.8329,-3.9065,-3.9949,-4.0782,-4.1506,-4.1614,-4.2122,-4.272,-4.2995,-4.3104,-4.3213,-4.3962,-4.378,-4.3524,-4.4913,-4.537,-4.5443,-4.5443,-4.4966,-4.447,-4.447,-4.3993,-4.3479,-4.3532,-4.3513,-4.3532,-4.3479,-4.4262,-4.5139,-4.5835,-4.6863,-4.7911,-4.876,-4.8996,-4.9049,-4.9049,-4.9164,-4.9276,-4.9276,-4.9409,-4.9459,-4.9509,-4.9509,-4.9509,-4.9509,-4.9509,-4.9509,-4.9509,-4.9509,-4.9509,-4.9509,-4.9509,-4.9509,-4.9509,-4.9509,-4.9903,-5.0691,-5.0053,-5.1161,-5.3902,-5.3752,-5.3785,-2.1796,-2.1406,-2.1188,-1.9837,-2.0907,-2.1469,-1.8262,0.0,-1.731,-1.5023,0.0,-1.2992,-1.3211,0.0,0.0,-1.4023,-1.5706,0.0,-1.671,-1.8908,-2.0489,-2.0456,-2.1093,-2.1537,-2.143,-2.1537,-2.3099,-2.6677,-2.593,-2.6517,-2.9349,-2.9627,-3.0048,-3.0795,-3.2367,-3.3251,-3.3418,-3.482,-3.6034,-3.6948,-3.6878,-3.6808,-3.6754,-3.7417,-3.7238,-3.6453,-3.7274,-3.7649,-3.7739,-3.7846,-3.8005,-3.8235,-3.9153,-3.9985,-4.0727,-4.1452,-4.1778,-4.1959,-4.2813,-4.3104,-4.316,-4.3414,-4.3484,-4.3481,-4.3718,-4.3773,-4.3754,-4.3754,-4.3699,-4.366,-4.3695,-4.3621,-4.3513,-4.3582,-4.3582,-4.3582,-4.3513,-4.4328,-4.5072,-4.5115,-4.6509,-4.7961,-4.876,-4.8909,-4.8909,-4.8909,-4.9049,-4.915,-4.9179,-4.9276,-4.9358,-4.9509,-4.9509,-4.9509,-4.9509,-4.9509,-4.9509,-4.9509,-4.9509,-4.9509,-4.9509,-4.9509,-4.9509,-4.9509,-4.9509,-4.9903,-5.0691,-5.0598,-5.1123,-5.2175,-5.1442,-5.1581,-2.2293,-2.2439,-2.282,-2.1266,-2.1616,-2.179,-1.9716,-1.8108,-1.6937,-1.6624,0.0,0.0,0.0,0.0,0.0,0.0,-1.5183,-1.5936,0.0,0.0,-1.7364,-1.8338,0.0,0.0,-2.0185,-2.0728,-2.1888,-2.3925,-2.3914,-2.4552,-2.6384,-2.7766,-2.8652,-2.9012,-3.0538,-3.1649,-3.2188,-3.2866,-3.388,-3.518,-3.5146,-3.5363,-3.574,-3.6542,-3.672,-3.6435,-3.7238,-3.7649,-3.7703,-3.7757,-3.7846,-3.7969,-3.8415,-3.9117,-3.9894,-4.0238,-4.0655,-4.1144,-4.2087,-4.2432,-4.2559,-4.3246,-4.3151,-4.2892,-4.3351,-4.3497,-4.3497,-4.3497,-4.3497,-4.3532,-4.3582,-4.3582,-4.3582,-4.3667,-4.3719,-4.3719,-4.3686,-4.4029,-4.4498,-4.4961,-4.5675,-4.6613,-4.798,-4.8593,-4.8909,-4.8909,-4.9064,-4.915,-4.915,-4.9211,-4.9308,-4.9327,-4.9808,-4.9934,-4.9446,-4.9872,-4.9997,-4.9527,-4.9509,-4.9509,-4.9509,-4.9509,-4.9509,-4.9509,-4.9509,-4.9678,-4.9997,-4.9997,-5.0185,-5.0522,-5.1123,-5.1657,-2.2738,-2.3386,-2.4108,-2.194,-2.1739,-2.1642,-2.0048,-1.8429,-1.742,-1.7947,-1.636,0.0,0.0,0.0,-1.4768,-1.472,0.0,-1.5608,-1.4064,-1.4329,-1.51,-1.6272,-1.7311,0.0,0.0,-1.9233,-1.9906,-2.1286,-2.152,-2.2212,-2.37,-2.557,-2.67,-2.6957,-2.87,-2.9963,-3.0561,-3.1217,-3.2261,-3.3728,-3.3924,-3.4316,-3.4799,-3.5686,-3.6078,-3.6114,-3.6916,-3.7435,-3.7703,-3.7757,-3.7828,-3.7934,-3.8002,-3.8484,-3.9097,-3.9315,-3.9731,-4.0329,-4.1252,-4.1631,-4.1844,-4.2619,-4.2598,-4.2378,-4.2727,-4.3149,-4.3442,-4.3222,-4.3314,-4.3513,-4.3634,-4.3634,-4.3634,-4.3786,-4.3837,-4.3837,-4.3804,-4.3837,-4.4017,-4.4656,-4.4953,-4.5523,-4.6776,-4.7887,-4.8649,-4.8872,-4.9064,-4.915,-4.9101,-4.9197,-4.9276,-4.9211,-4.9837,-5.0076,-4.9714,-5.0303,-5.0447,-4.9865,-4.9828,-4.9734,-4.9509,-4.9509,-4.9509,-4.9509,-4.9509,-4.9509,-4.9509,-4.9509,-4.9509,-4.9527,-5.071,-5.1287,-2.3745,-2.4692,-2.5055,-2.1376,-2.1623,-2.1794,-1.8133,-1.8955,-1.9839,-1.7683,-1.8899,-2.0107,-1.9395,-1.802,-1.6995,-1.6978,-1.6443,0.0,0.0,-1.3765,-1.3848,-1.3909,-1.5259,-1.6464,0.0,-1.6011,-1.6413,-1.9356,-1.8286,-1.8775,-2.1714,-2.281,-2.3668,-2.4314,-2.6697,-2.7999,-2.8035,-3.0264,-3.185,-3.2763,-3.3539,-3.3928,-3.3981,-3.4832,-3.5257,-3.5293,-3.6096,-3.6934,-3.7703,-3.7846,-3.7951,-3.8018,-3.814,-3.8192,-3.8319,-3.9097,-3.9405,-3.9585,-4.0435,-4.0881,-4.1068,-4.1152,-4.1699,-4.2158,-4.1423,-4.2268,-4.3332,-4.2561,-4.2892,-4.3532,-4.3719,-4.3719,-4.3649,-4.3832,-4.3915,-4.3883,-4.3804,-4.3897,-4.3974,-4.3934,-4.4564,-4.5119,-4.5175,-4.6595,-4.7999,-4.8779,-4.9015,-4.9101,-4.9101,-4.9183,-4.9211,-4.9308,-4.9327,-4.9696,-5.0579,-5.0673,-5.0673,-5.0654,-5.0654,-5.0297,-4.9527,-4.9509,-4.9509,-4.9509,-4.9509,-4.9509,-4.9509,-4.9509,-4.9509,-4.9509,-4.9546,-4.9584,0.0,0.0,-2.5261,-2.2483,-2.1833,-2.1162,-1.8414,-1.8422,-1.8654,-1.7379,-1.8558,-1.9564,-1.8745,-1.8173,-1.7671,-1.7186,-1.6477,-1.5454,0.0,-1.3268,-1.31,-1.3553,-1.462,-1.5401,-1.5645,0.0,-1.5784,-1.7822,-1.7511,-1.8104,-2.0157,-2.2054,-2.3165,-2.3395,-2.5243,-2.6785,-2.7882,-2.8676,-3.0013,-3.1898,-3.2196,-3.2851,-3.3844,-3.4195,-3.4638,-3.5136,-3.5472,-3.5757,-3.6041,-3.6076,-3.652,-3.707,-3.6582,-3.6826,-3.7486,-3.8301,-3.8608,-3.8733,-3.9581,-3.999,-4.0181,-4.083,-4.0895,-4.0763,-4.1066,-4.1558,-4.1926,-4.1668,-4.2198,-4.2838,-4.2991,-4.3412,-4.3832,-4.3942,-4.3992,-4.3942,-4.3929,-4.3974,-4.4005,-4.3974,-4.4196,-4.4568,-4.5143,-4.5732,-4.6568,-4.7856,-4.8627,-4.9068,-4.8962,-4.9064,-4.915,-4.915,-4.9664,-5.0179,-5.0595,-5.1166,-5.1273,-5.0729,-5.0691,-5.0335,-4.9527,-4.9509,-4.9509,-4.9509,-4.9509,-4.9509,-4.9509,-4.9509,-4.9509,-4.9509,-4.9509,-4.9509,-2.5014,-2.5488,0.0,-2.3357,-2.2637,-2.1873,-1.9429,-1.951,-1.9831,-1.8805,-1.9826,-2.0825,-2.056,-1.9878,-1.8999,-1.7966,-1.6969,-1.559,0.0,-1.3037,-1.3041,-1.3459,-1.4054,-1.4638,-1.5159,-1.4517,-1.4794,-1.66,-1.6253,-1.6722,0.0,-2.0371,-2.1581,-2.2098,-2.3667,-2.5181,-2.6574,-2.7344,-2.8551,-3.0159,-3.0988,-3.1938,-3.2944,-3.3277,-3.3894,-3.4674,-3.4709,-3.492,-3.5204,-3.5256,-3.5679,-3.6227,-3.5756,-3.5963,-3.6671,-3.7468,-3.7938,-3.8298,-3.8904,-3.9134,-3.929,-3.9955,-4.0052,-3.9968,-4.022,-4.073,-4.1148,-4.0822,-4.1585,-4.253,-4.2567,-4.3241,-4.3929,-4.3974,-4.4005,-4.4005,-4.4005,-4.3782,-4.3578,-4.3578,-4.3547,-4.3732,-4.4289,-4.4865,-4.576,-4.7411,-4.8184,-4.868,-4.8872,-4.9015,-4.9101,-4.9116,-4.9664,-5.0305,-5.0989,-5.186,-5.2137,-5.1611,-5.1292,-5.0767,-4.9959,-4.9659,-4.9509,-4.9509,-4.9509,-4.964,-4.9922,-4.9922,-5.0072,-5.0353,-5.0353,-5.0203]}]]